[[{"header":{"parameterUnit":"m.s-1","parameterCategory":1,"la1":30.6,"la2":29.2853,"lo1":-89.7004,"lo2":-87.6739,"dy":0.0162,"dx":0.0183,"nx":112,"ny":82,"refTime":"2023-07-11T06:00:00:Z","depth":0,"parameterNumber":2,"parameterNumberName":"U-component_of_WINDS"},"data":[0.0,0.0,0.0,0.0,0.0,0.0,0.0,0.0,0.0,0.0,0.0,0.0,0.0,0.0,0.0,0.0,0.0,0.0,0.0,0.0,0.0,0.0,0.0,0.0,0.0,0.0,0.0,0.0,0.0,0.0,0.0,0.0,0.0,0.0,0.0,0.0,0.0,0.0,0.0,0.0,0.0,0.0,0.0,0.0,0.0,0.0,0.0,0.0,0.0,0.0,0.0,0.0,0.0,0.0,0.0,0.0,0.0,0.0,0.0,0.0,0.0,0.0,0.0,0.0,0.0,0.0,0.0,0.0,0.0,0.0,0.0,0.0,0.0,0.0,0.0,0.0,0.0,0.0,0.0,0.0,0.0,0.0,0.0,0.0,0.0,0.0,0.0,0.0,0.0,0.0,-0.6338,-0.6338,-0.6338,-0.6338,-0.6338,-0.6338,-0.6338,-0.6338,0.0,0.0,0.0,0.0,0.0,0.0,0.0,0.0,0.0,0.0,0.0,0.0,0.0,0.0,0.0,0.0,0.0,0.0,0.0,0.0,0.0,0.0,0.0,0.0,0.0,0.0,0.0,0.0,0.0,0.0,0.0,0.0,0.0,0.0,0.0,0.0,0.0,0.0,0.0,0.0,0.0,0.0,0.0,0.0,0.0,0.0,0.0,0.0,0.0,0.0,0.0,0.0,0.0,0.0,0.0,0.0,0.0,0.0,0.0,0.0,0.0,0.0,0.0,0.0,0.0,0.0,0.0,0.0,0.0,0.0,0.0,0.0,0.0,0.0,0.0,0.0,0.0,0.0,0.0,0.0,0.0,0.0,0.0,0.0,0.0,0.0,0.0,0.0,0.0,0.0,0.0,0.0,0.0,0.0,0.0,0.0,0.0,0.0,0.0,0.0,0.0,0.0,0.0,0.0,-0.6338,-0.6338,-0.6338,-0.6338,-0.6338,-0.6338,-0.6338,-0.6338,0.0,0.0,0.0,0.0,0.0,0.0,0.0,0.0,0.0,0.0,0.0,0.0,0.0,0.0,0.0,0.0,0.0,0.0,0.0,0.0,0.0,0.0,0.0,0.0,0.0,0.0,0.0,0.0,0.0,0.0,0.0,0.0,0.0,0.0,0.0,0.0,0.0,0.0,0.0,0.0,0.0,0.0,0.0,0.0,0.0,0.0,0.0,0.0,0.0,0.0,0.0,0.0,0.0,0.0,0.0,0.0,0.0,0.0,0.0,0.0,0.0,0.0,0.0,0.0,0.0,0.0,0.0,0.0,0.0,0.0,0.0,0.0,0.0,0.0,0.0,0.0,0.0,0.0,0.0,0.0,0.0,0.0,0.0,0.0,0.0,0.0,0.0,0.0,0.0,0.0,0.0,0.0,0.0,0.0,0.0,0.0,0.0,0.0,0.0,0.0,0.0,0.0,0.0,-0.6338,-0.6338,-0.6338,-0.6338,-0.6338,-0.6338,-0.6338,-0.6338,-0.6338,-0.6338,0.0,0.0,0.0,0.0,0.0,0.0,0.0,0.0,0.0,0.0,0.0,0.0,0.0,0.0,0.0,0.0,0.0,0.0,0.0,0.0,0.0,0.0,0.0,0.0,0.0,0.0,0.0,0.0,0.0,0.0,0.0,0.0,0.0,0.0,0.0,0.0,0.0,0.0,0.0,0.0,0.0,0.0,0.0,0.0,0.0,0.0,0.0,0.0,0.0,0.0,0.0,0.0,0.0,0.0,0.0,0.0,0.0,0.0,0.0,0.0,0.0,0.0,0.0,0.0,0.0,0.0,0.0,0.0,0.0,0.0,0.0,0.0,0.0,0.0,0.0,0.0,0.0,0.0,0.0,0.0,0.0,0.0,0.0,0.0,0.0,0.0,0.0,0.0,0.0,0.0,0.0,0.0,0.0,0.0,0.0,0.0,0.0,0.0,0.0,0.0,0.0,0.0,-0.6338,-0.6338,-0.6338,-0.6338,-0.6338,-0.6338,-0.6338,-0.6338,-0.6338,-0.6338,0.0,0.0,0.0,0.0,0.0,0.0,0.0,0.0,0.0,0.0,0.0,0.0,0.0,0.0,0.0,0.0,0.0,0.0,0.0,0.0,0.0,0.0,0.0,0.0,0.0,0.0,0.0,0.0,0.0,0.0,0.0,0.0,0.0,0.0,0.0,0.0,0.0,0.0,0.0,0.0,0.0,0.0,0.0,0.0,0.0,0.0,0.0,0.0,0.0,0.0,0.0,0.0,0.0,0.0,0.0,0.0,0.0,0.0,0.0,0.0,0.0,0.0,0.0,0.0,0.0,0.0,0.0,0.0,0.0,0.0,0.0,0.0,0.0,0.0,0.0,0.0,0.0,0.0,0.0,0.0,0.0,0.0,0.0,0.0,0.0,0.0,0.0,0.0,0.0,0.0,0.0,0.0,0.0,0.0,0.0,0.0,0.0,0.0,0.0,0.0,0.0,0.0,-0.6338,-0.6338,-0.6338,-0.6338,-0.6338,-0.6338,-0.6338,-0.6338,-0.6338,-0.6338,0.0,0.0,0.0,0.0,0.0,0.0,0.0,0.0,0.0,0.0,0.0,0.0,0.0,0.0,0.0,0.0,0.0,0.0,0.0,0.0,0.0,0.0,0.0,0.0,0.0,0.0,0.0,0.0,0.0,0.0,0.0,0.0,0.0,0.0,0.0,0.0,0.0,0.0,0.0,0.0,0.0,0.0,0.0,0.0,0.0,0.0,0.0,0.0,0.0,0.0,0.0,0.0,0.0,0.0,0.0,0.0,0.0,0.0,0.0,0.0,0.0,0.0,0.0,0.0,0.0,0.0,0.0,0.0,0.0,0.0,0.0,0.0,0.0,0.0,0.0,0.0,0.0,0.0,0.0,0.0,0.0,0.0,0.0,0.0,0.0,0.0,0.0,0.0,0.0,0.0,0.0,0.0,0.0,0.0,0.0,0.0,0.0,0.0,0.0,0.0,0.0,0.0,-0.6338,-0.6338,-0.6338,-0.6338,-0.6338,-0.6338,-0.6338,-0.6338,-0.6338,0.0,0.0,0.0,0.0,0.0,0.0,0.0,0.0,0.0,0.0,0.0,0.0,0.0,0.0,0.0,0.0,0.0,0.0,0.0,0.0,0.0,0.0,0.0,0.0,0.0,0.0,0.0,0.0,0.0,0.0,0.0,0.0,0.0,0.0,0.0,0.0,0.0,0.0,0.0,0.0,0.0,0.0,0.0,0.0,0.0,0.0,0.0,0.0,0.0,0.0,0.0,0.0,0.0,0.0,0.0,0.0,0.0,0.0,0.0,0.0,0.0,0.0,0.0,0.0,0.0,0.0,0.0,0.0,0.0,0.0,0.0,0.0,0.0,0.0,0.0,0.0,0.0,0.0,0.0,0.0,0.0,0.0,0.0,0.0,0.0,0.0,0.0,0.0,0.0,0.0,0.0,0.0,0.0,0.0,0.0,0.0,0.0,0.0,0.0,0.0,0.0,0.0,-0.6338,-0.6338,-0.6338,-0.6338,-0.6338,-0.6338,-0.6338,-0.6338,-0.6338,-0.6338,0.0,0.0,0.0,0.0,0.0,0.0,0.0,0.0,0.0,0.0,0.0,0.0,0.0,0.0,0.0,0.0,0.0,0.0,0.0,0.0,0.0,0.0,0.0,0.0,0.0,0.0,0.0,0.0,0.0,0.0,0.0,0.0,0.0,0.0,0.0,0.0,0.0,0.0,0.0,0.0,0.0,0.0,0.0,0.0,0.0,0.0,0.0,0.0,0.0,0.0,0.0,0.0,0.0,0.0,0.0,0.0,0.0,0.0,0.0,0.0,0.0,0.0,0.0,0.0,0.0,0.0,0.0,0.0,0.0,0.0,0.0,0.0,0.0,0.0,0.0,0.0,0.0,0.0,0.0,0.0,0.0,0.0,0.0,0.0,0.0,0.0,0.0,0.0,0.0,0.0,0.0,0.0,0.0,0.0,0.0,0.0,0.0,0.0,0.0,0.0,0.0,0.0,-0.6338,-0.6338,-0.6338,-0.6338,-0.6338,-0.6338,-0.6338,-0.6338,-0.6338,0.0,0.0,0.0,0.0,0.0,0.0,0.0,0.0,0.0,0.0,0.0,0.0,0.0,0.0,0.0,0.0,0.0,0.0,0.0,0.0,0.0,0.0,0.0,0.0,0.0,0.0,0.0,0.0,0.0,0.0,0.0,0.0,0.0,0.0,0.0,0.0,0.0,0.0,0.0,0.0,0.0,0.0,0.0,0.0,0.0,0.0,0.0,0.0,0.0,0.0,0.0,0.0,0.0,0.0,0.0,0.0,0.0,0.0,0.0,0.0,0.0,0.0,0.0,0.0,0.0,0.0,0.0,0.0,0.0,0.0,0.0,0.0,0.0,0.0,0.0,0.0,0.0,0.0,0.0,0.0,0.0,0.0,0.0,0.0,0.0,0.0,0.0,0.0,0.0,0.0,0.0,0.0,0.0,0.0,0.0,0.0,0.0,0.0,0.0,0.0,0.0,0.0,0.0,-0.6338,-0.6338,-0.6338,-0.6338,-0.6338,-0.6338,-0.6338,-0.6338,-0.6338,-0.6338,0.0,0.0,0.0,0.0,0.0,0.0,0.0,0.0,0.0,0.0,0.0,0.0,0.0,0.0,0.0,0.0,0.0,0.0,0.0,0.0,0.0,0.0,0.0,0.0,0.0,0.0,0.0,0.0,0.0,0.0,0.0,0.0,0.0,0.0,0.0,0.0,0.0,0.0,0.0,0.0,0.0,0.0,0.0,0.0,0.0,0.0,0.0,0.0,0.0,0.0,0.0,0.0,0.0,0.0,0.0,0.0,0.0,0.0,0.0,0.0,0.0,0.0,0.0,0.0,0.0,0.0,0.0,0.0,0.0,0.0,0.0,0.0,0.0,0.0,0.0,0.0,0.0,0.0,0.0,0.0,0.0,0.0,0.0,0.0,0.0,0.0,0.0,0.0,0.0,0.0,0.0,0.0,0.0,0.0,0.0,0.0,0.0,0.0,0.0,0.0,0.0,0.0,-0.6338,-0.6338,-0.6338,-0.6338,-0.6338,-0.6338,-0.6338,-0.6338,-0.6338,-0.6338,0.0,0.0,0.0,0.0,0.0,0.0,0.0,0.0,0.0,0.0,0.0,0.0,0.0,0.0,0.0,0.0,0.0,0.0,0.0,0.0,0.0,0.0,0.0,0.0,0.0,0.0,0.0,0.0,0.0,0.0,0.0,0.0,0.0,0.0,0.0,0.0,0.0,0.0,0.0,0.0,0.0,0.0,0.0,0.0,0.0,0.0,0.0,0.0,0.0,0.0,0.0,0.0,0.0,0.0,0.0,0.0,0.0,0.0,0.0,0.0,0.0,0.0,0.0,0.0,0.0,0.0,0.0,0.0,0.0,0.0,0.0,0.0,0.0,0.0,0.0,0.0,0.0,0.0,0.0,0.0,0.0,0.0,0.0,0.0,0.0,0.0,0.0,0.0,0.0,0.0,0.0,0.0,0.0,0.0,0.0,0.0,0.0,0.0,0.0,0.0,0.0,0.0,-0.6338,-0.6338,-0.6338,-0.6338,-0.6338,-0.6338,-0.6338,-0.6338,-0.6338,-0.6338,0.0,0.0,0.0,0.0,0.0,0.0,0.0,0.0,0.0,0.0,0.0,0.0,0.0,0.0,0.0,0.0,0.0,0.0,0.0,0.0,0.0,0.0,0.0,0.0,0.0,0.0,0.0,0.0,0.0,0.0,0.0,0.0,0.0,0.0,0.0,0.0,0.0,0.0,0.0,0.0,0.0,0.0,0.0,0.0,0.0,0.0,0.0,0.0,0.0,0.0,0.0,0.0,0.0,0.0,0.0,0.0,0.0,0.0,0.0,0.0,-0.8232,-0.748,0.0,0.0,0.0,0.0,0.0,0.0,0.0,0.0,0.0,0.0,0.0,0.0,0.0,0.0,0.0,0.0,0.0,0.0,0.0,0.0,0.0,0.0,0.0,0.0,0.0,0.0,0.0,0.0,0.0,0.0,0.0,0.0,0.0,0.0,0.0,0.0,0.0,0.0,0.0,0.0,-0.6338,-0.6338,-0.6338,-0.6338,-0.6338,-0.6338,-0.6338,-0.6338,-0.6338,-0.6338,-0.6338,0.0,0.0,0.0,0.0,0.0,0.0,0.0,0.0,0.0,0.0,0.0,0.0,0.0,0.0,0.0,0.0,0.0,0.0,0.0,0.0,0.0,0.0,0.0,0.0,0.0,0.0,0.0,0.0,0.0,0.0,0.0,0.0,0.0,0.0,0.0,0.0,0.0,0.0,0.0,0.0,0.0,0.0,0.0,0.0,0.0,0.0,0.0,0.0,0.0,0.0,0.0,0.0,0.0,0.0,0.0,0.0,0.0,0.0,0.0,-0.8232,-0.7783,0.0,0.0,0.0,0.0,0.0,0.0,0.0,0.0,0.0,0.0,0.0,0.0,0.0,0.0,0.0,0.0,0.0,0.0,0.0,0.0,0.0,0.0,0.0,0.0,0.0,0.0,0.0,0.0,0.0,0.0,0.0,0.0,0.0,0.0,0.0,0.0,0.0,0.0,0.0,0.0,-0.6338,-0.6338,-0.6338,-0.6338,-0.6338,-0.6338,-0.6338,-0.6338,-0.6338,-0.6338,-0.6268,0.0,0.0,0.0,0.0,0.0,0.0,0.0,0.0,0.0,0.0,0.0,0.0,0.0,0.0,0.0,0.0,0.0,0.0,0.0,0.0,0.0,0.0,0.0,0.0,0.0,0.0,0.0,0.0,0.0,0.0,0.0,0.0,0.0,0.0,0.0,0.0,0.0,0.0,0.0,0.0,0.0,0.0,0.0,0.0,0.0,0.0,0.0,0.0,0.0,0.0,0.0,0.0,0.0,-1.0196,-0.9825,-0.9825,-0.9825,-0.9296,-0.8309,-0.8161,-0.7859,-0.748,-0.6644,0.0,0.0,0.0,0.0,0.0,0.0,0.0,0.0,0.0,0.0,0.0,0.0,0.0,0.0,0.0,0.0,0.0,0.0,0.0,0.0,0.0,0.0,-0.6338,-0.6338,-0.6338,-0.6338,-0.6338,0.0,0.0,0.0,0.0,0.0,0.0,0.0,0.0,0.0,0.0,0.0,-0.6338,-0.6338,-0.6338,-0.6338,-0.6338,-0.6338,-0.6338,-0.6264,-0.6264,-0.6264,-0.6274,-0.6116,0.0,0.0,0.0,0.0,0.0,0.0,0.0,0.0,0.0,0.0,0.0,0.0,0.0,0.0,0.0,0.0,0.0,0.0,0.0,0.0,0.0,0.0,0.0,0.0,0.0,0.0,0.0,0.0,0.0,0.0,0.0,0.0,-1.2305,-1.2305,0.0,0.0,0.0,0.0,0.0,0.0,0.0,0.0,0.0,0.0,0.0,0.0,0.0,-1.0501,-1.2305,-1.1316,-1.1236,-1.2077,-1.2003,-1.1922,-1.1922,-1.1922,-1.1391,-1.0335,-0.9442,0.0,-0.649,-0.6338,0.0,0.0,0.0,0.0,0.0,0.0,0.0,0.0,0.0,0.0,0.0,0.0,0.0,0.0,0.0,0.0,0.0,0.0,0.0,0.0,0.0,0.0,-0.6338,-0.6338,-0.6338,-0.6338,-0.6338,-0.6338,-0.6338,-0.6338,-0.6338,-0.6338,0.0,0.0,0.0,0.0,0.0,0.0,-0.6338,-0.6338,-0.6338,-0.6338,-0.6338,-0.6338,-0.6338,-0.6271,-0.6278,-0.6278,-0.6288,-0.5491,-0.3593,-0.5332,0.0,0.0,0.0,0.0,0.0,0.0,0.0,0.0,0.0,0.0,0.0,0.0,0.0,0.0,0.0,0.0,0.0,0.0,0.0,0.0,0.0,0.0,0.0,0.0,0.0,0.0,0.0,0.0,0.0,-1.2305,-1.2305,-1.2305,-1.2305,-1.2305,0.0,0.0,0.0,0.0,0.0,0.0,0.0,0.0,0.0,-1.2298,-1.1477,-1.1403,-1.2298,-1.1316,-1.1013,-1.1465,-1.087,-1.0576,-1.0576,-1.0576,-1.0045,-0.9059,-0.8613,-0.7629,-0.6338,-0.6338,-0.6338,-0.6338,0.0,0.0,0.0,0.0,-0.6338,-0.6338,-0.6338,-0.6338,-0.6338,-0.6338,0.0,0.0,0.0,0.0,0.0,0.0,0.0,-0.6338,-0.6338,-0.6338,-0.6338,-0.6338,-0.6338,-0.6338,-0.6338,-0.6338,-0.6338,-0.6338,-0.6338,-0.6338,-0.6338,-0.6338,0.0,0.0,0.0,-0.6338,-0.6338,-0.6338,-0.6338,-0.6338,-0.6338,-0.6338,-0.6338,-0.6271,-0.6278,-0.6278,-0.6302,-0.5347,-0.3202,-0.2896,-0.3452,0.0,0.0,0.0,0.0,0.0,0.0,0.0,0.0,0.0,0.0,0.0,0.0,0.0,0.0,0.0,0.0,0.0,0.0,0.0,0.0,0.0,0.0,0.0,0.0,0.0,0.0,0.0,0.0,-1.2305,-1.2305,-1.2305,-1.2305,-1.2305,0.0,0.0,0.0,0.0,0.0,0.0,-1.2305,-1.2305,-1.2305,-1.2305,-1.2077,-1.1922,-1.1922,-1.0944,-1.0415,-1.0415,-0.9669,-0.9296,-0.9296,-0.9296,-0.877,-0.7783,-0.7783,-0.7249,-0.6338,-0.6338,-0.6338,-0.6338,-0.6338,-0.6338,-0.6338,-0.6338,-0.6338,-0.6338,-0.6338,-0.6338,-0.6338,-0.6338,-0.6338,-0.6338,-0.6338,0.0,0.0,0.0,0.0,-0.6338,-0.6338,-0.6338,-0.6338,-0.6338,-0.6338,-0.6338,-0.6338,-0.6338,-0.6338,-0.6338,-0.6338,-0.6338,-0.6338,-0.6338,0.0,-0.6338,-0.6338,-0.6338,-0.6338,-0.6338,-0.6338,-0.6338,-0.6264,-0.6268,-0.6268,-0.6281,-0.6291,-0.6291,-0.5274,-0.4008,-0.2345,-0.0784,-0.1492,-0.4651,0.0,0.0,0.0,0.0,0.0,0.0,0.0,0.0,0.0,0.0,0.0,0.0,0.0,0.0,0.0,0.0,0.0,0.0,0.0,0.0,0.0,0.0,0.0,0.0,0.0,0.0,0.0,0.0,0.0,-1.2305,-1.2305,0.0,0.0,0.0,0.0,-1.2305,-1.2305,-1.2305,-1.2305,-1.2305,-1.2305,-1.2305,-1.1391,-1.0864,-1.0864,-0.9895,-0.9372,-0.9372,-0.9296,-0.9296,-0.9296,-0.9296,-0.877,-0.7783,-0.7783,-0.7249,-0.6338,-0.6338,-0.6338,-0.6338,-0.6338,-0.6338,-0.6338,-0.6338,-0.6338,-0.6338,-0.6338,-0.6338,-0.6338,-0.6338,-0.6338,-0.6338,-0.6338,-0.6338,0.0,0.0,-0.6338,-0.6338,-0.6338,-0.6338,-0.6338,-0.6338,-0.6338,-0.6338,-0.6338,-0.6338,-0.6338,-0.6338,-0.6338,-0.6338,-0.6338,0.0,-0.6338,-0.6338,-0.6338,-0.6338,-0.6338,-0.6338,-0.6338,-0.6338,-0.6271,-0.6278,-0.6278,-0.6308,-0.6325,-0.6325,-0.2514,-0.0236,-0.0157,-0.0079,-0.0079,-0.0314,-0.0236,0.0,0.0,0.0,0.0,0.0,0.0,0.0,0.0,0.0,0.0,0.0,0.0,0.0,0.0,0.0,0.0,0.0,0.0,0.0,0.0,0.0,0.0,0.0,0.0,0.0,0.0,0.0,0.0,-1.2305,-1.2305,0.0,-1.2305,-1.2305,-1.2305,-1.2305,-1.2305,-1.2305,-1.2305,-1.2305,-1.1996,-1.1391,-1.1013,-1.0484,-0.982,-0.8841,-0.8313,-0.8313,-0.7706,-0.7403,-0.7403,-0.7403,-0.7176,-0.6872,-0.6872,-0.6644,-0.6338,-0.6338,-0.6338,-0.6338,-0.6338,-0.6338,-0.6338,-0.6338,-0.6338,-0.6338,-0.6338,-0.6338,-0.6338,-0.6338,-0.6338,-0.6338,-0.6338,-0.6338,-0.6338,-0.6338,-0.6338,-0.6338,-0.6338,-0.6338,-0.6338,-0.6338,-0.6338,-0.6338,-0.6338,-0.6338,-0.6338,-0.6338,-0.6338,-0.6338,-0.6338,-0.6338,-0.6338,-0.6338,-0.6338,-0.6338,-0.6338,-0.6338,-0.6264,-0.6271,-0.6278,-0.5721,-0.4377,-0.5511,-0.6329,-0.6329,-0.2357,-0.0,-0.0,-0.0,-0.0,-0.0,-0.0,-0.0707,0.0,0.0,0.0,0.0,0.0,0.0,0.0,0.0,0.0,0.0,0.0,0.0,0.0,0.0,0.0,0.0,0.0,0.0,0.0,0.0,0.0,0.0,0.0,0.0,0.0,-1.2305,-1.2305,-1.2305,-1.2305,-1.2305,-1.2305,-1.2305,-1.2305,-1.2305,-1.2305,-1.2305,-1.2305,-1.2305,-1.1996,-1.1316,-1.064,-0.997,-0.9296,-0.7936,-0.7326,-0.7249,-0.6644,-0.6338,-0.6338,-0.6338,-0.6338,-0.6338,-0.6338,-0.6338,-0.6338,-0.6338,-0.6338,-0.6338,-0.6338,-0.6338,-0.6338,-0.6338,-0.6338,-0.6338,-0.6338,-0.6338,-0.6338,-0.6338,-0.6338,-0.6338,-0.6338,-0.6338,-0.6338,-0.6338,-0.6338,-0.6338,-0.6338,-0.6338,-0.6338,-0.6338,-0.6338,-0.6338,-0.6338,-0.6338,-0.6338,-0.6338,-0.6338,-0.6338,-0.6338,-0.6338,-0.6338,-0.6338,-0.6338,-0.6338,-0.6338,-0.6264,-0.6271,-0.6278,-0.6288,-0.5736,-0.4311,-0.4166,-0.4173,-0.4173,-0.1571,-0.0,-0.0,-0.0,-0.0,-0.0,-0.0,-0.0,-0.0,0.0,0.0,0.0,0.0,0.0,0.0,0.0,0.0,0.0,0.0,0.0,0.0,0.0,0.0,0.0,0.0,0.0,0.0,0.0,0.0,0.0,0.0,0.0,-1.2305,-1.2305,-1.2305,-1.2305,-1.2305,-1.2305,-1.2305,-1.2305,-1.2305,-1.2305,-1.2305,-1.2305,-1.2305,-1.2305,-1.2305,-1.2224,-1.0351,-0.9301,-0.9231,-0.7257,-0.6271,-0.6274,-0.6274,-0.6274,-0.6274,-0.6274,-0.6274,-0.6274,-0.6274,-0.6274,-0.6274,-0.6274,-0.6274,-0.6274,-0.6271,-0.6268,-0.6345,-0.6274,-0.6274,-0.6274,-0.6274,-0.6274,-0.6274,-0.6274,-0.6274,-0.6274,-0.6274,-0.6271,-0.6268,-0.6268,-0.6264,-0.6338,-0.6338,-0.6338,-0.6338,-0.6338,-0.6338,-0.6338,-0.6338,-0.6338,-0.6338,-0.6338,-0.6338,-0.6338,-0.6338,-0.6338,-0.6338,-0.6338,-0.6338,0.0,-0.6338,-0.6271,-0.6278,-0.6281,-0.6308,-0.625,-0.609,-0.2357,-0.0,-0.0,-0.0,-0.0,-0.0,-0.0,-0.0,-0.0,-0.0,-0.0,-0.0,0.0,0.0,0.0,0.0,0.0,0.0,0.0,0.0,0.0,0.0,0.0,0.0,0.0,0.0,0.0,0.0,0.0,0.0,0.0,0.0,0.0,-1.2305,-1.2305,-1.2305,-1.2305,-1.2305,-1.2305,-1.2305,-1.2305,-1.2305,-1.2305,-1.2305,-1.2305,-1.2305,-1.2305,-1.2305,-1.2305,-1.1626,-1.0201,-0.9599,-0.8607,-0.7273,-0.6727,-0.6471,-0.658,-0.658,-0.658,-0.658,-0.658,-0.658,-0.658,-0.658,-0.658,-0.658,-0.658,-0.658,-0.6569,-0.6458,-0.6413,-0.6427,-0.6539,-0.658,-0.658,-0.658,-0.658,-0.658,-0.658,-0.658,-0.658,-0.658,-0.6502,-0.6413,-0.6413,-0.6339,-0.6338,-0.6338,-0.6338,-0.6338,-0.6338,-0.6338,-0.6338,-0.6338,-0.6338,-0.6338,-0.6338,-0.6338,-0.6338,-0.6338,-0.6338,-0.6338,-0.6338,-0.6338,-0.6264,-0.6274,-0.6278,-0.6288,-0.6312,-0.6325,-0.5048,-0.1963,-0.0707,-0.0,-0.0,-0.0,-0.0,-0.0,-0.0,-0.0,-0.0,-0.0,-0.0,0.0,0.0,0.0,0.0,0.0,0.0,0.0,0.0,0.0,0.0,0.0,0.0,0.0,0.0,0.0,0.0,0.0,0.0,0.0,0.0,0.0,0.0,-1.2305,-1.2305,-1.2305,-1.2305,-1.2305,-1.2305,-1.2305,-1.2305,-1.2305,-1.2305,-1.2305,-1.2305,-1.2305,-1.2129,-1.179,-1.1797,-1.1082,-0.9491,-0.9027,-0.8295,-0.7207,-0.681,-0.6614,-0.6702,-0.6702,-0.6702,-0.6702,-0.6702,-0.6702,-0.6702,-0.6702,-0.6702,-0.6702,-0.6702,-0.6702,-0.6692,0.0,0.0,0.0,0.0,-0.6702,-0.6702,-0.6702,-0.6702,-0.6702,-0.6702,-0.6702,-0.6702,-0.6702,-0.6637,-0.6566,-0.6566,-0.6508,-0.6444,-0.6444,-0.6444,-0.6444,-0.6444,-0.6444,-0.6444,-0.6444,-0.6444,-0.6444,-0.6444,-0.6444,0.0,-0.6363,-0.6298,-0.6264,-0.6268,-0.6268,-0.6274,-0.6285,-0.6295,-0.6308,-0.6329,-0.4729,-0.2672,-0.0236,-0.0,0.0,0.0,0.0,-0.0,-0.0,-0.0,0.0,0.0,0.0,-0.0,-0.0,-0.3301,0.0,0.0,-0.5329,-0.6278,0.0,0.0,0.0,0.0,0.0,0.0,0.0,0.0,0.0,0.0,0.0,0.0,0.0,0.0,0.0,0.0,-1.2305,-1.2305,-1.2305,-1.2305,-1.2305,-1.2305,-1.2305,-1.2305,-1.2305,-1.2331,-1.2351,-1.2351,-1.2385,-1.2054,-1.1289,-1.1146,0.0,0.0,0.0,-0.8176,-0.8032,-0.7134,-0.6732,-0.6749,-0.6749,-0.6749,-0.6749,-0.6749,-0.6749,-0.6749,-0.6749,-0.6749,-0.6749,-0.6749,-0.6749,-0.6749,-0.6732,-0.6736,-0.6749,-0.6749,-0.6749,-0.6749,-0.6749,0.0,0.0,-0.6749,-0.6749,-0.6749,-0.6749,-0.6739,-0.6725,-0.6725,-0.6715,-0.6702,-0.6702,-0.6702,-0.6702,-0.6702,-0.6702,-0.6702,-0.6702,-0.6702,-0.6702,-0.6702,-0.6702,-0.6658,-0.6522,-0.6383,-0.6362,-0.6281,-0.6119,-0.6045,-0.6295,-0.6318,-0.609,-0.5608,-0.22,0.0,-0.0,-0.0,-0.0,-0.0,-0.0,-0.0,-0.0,-0.0,-0.0,-0.0,-0.0,-0.0,-0.0,-0.2112,-0.3205,-0.3519,-0.5413,-0.6281,0.0,0.0,0.0,0.0,0.0,0.0,0.0,0.0,0.0,0.0,0.0,0.0,0.0,0.0,0.0,-1.2305,-1.2305,-1.2305,-1.2305,-1.2305,-1.2305,-1.2305,-1.2305,-1.2305,-1.2305,-1.2518,-1.2735,-1.2735,-1.2893,-1.2975,-1.2792,-1.1897,-1.0947,-0.9857,-0.881,-0.7828,-0.7133,-0.6967,-0.6943,-0.7054,-0.7054,0.0,-0.7054,-0.7054,-0.7054,-0.7054,-0.7054,-0.7054,-0.7054,-0.7054,-0.7054,-0.7044,-0.6929,-0.6956,-0.7054,-0.7054,-0.7054,-0.7054,-0.7054,-0.7054,-0.7054,-0.7054,-0.7054,-0.7054,-0.7054,-0.6973,0.0,-0.6885,-0.6797,-0.6702,-0.6702,-0.6702,-0.6702,-0.6702,-0.6702,-0.6702,-0.6702,-0.6702,-0.6702,-0.6702,-0.6702,-0.6692,-0.6661,-0.663,-0.65,-0.6295,-0.4851,-0.4307,-0.6081,-0.6325,-0.4969,-0.157,-0.0471,-0.0,-0.0,-0.0,-0.0,-0.0,-0.0,-0.0,-0.0,-0.0,-0.0,-0.0,-0.0,-0.0,-0.0,-0.212,-0.4012,-0.568,-0.6122,-0.6264,0.0,0.0,0.0,0.0,0.0,0.0,0.0,0.0,0.0,0.0,0.0,-1.2305,-1.2305,0.0,-1.2305,-1.2305,-1.2305,-1.2305,-1.2305,-1.2432,-1.2525,-1.2525,-1.2525,-1.2585,-1.2746,-1.2893,-1.2979,-1.2979,-1.312,-1.3021,-1.2581,-1.1432,-1.0414,-0.9438,-0.8268,-0.7465,-0.7034,-0.7034,-0.7068,-0.7139,-0.7139,-0.7139,-0.7139,-0.7139,-0.7139,-0.7139,-0.7139,-0.7139,-0.7139,-0.7139,-0.7139,-0.7132,-0.7061,-0.7078,-0.7139,-0.7139,-0.7139,-0.7139,-0.7139,-0.7139,-0.7139,-0.7139,-0.7139,-0.7139,-0.7139,-0.7092,-0.7034,-0.7034,-0.698,-0.6919,-0.6919,-0.6919,-0.6919,-0.6919,-0.6919,-0.6919,-0.6919,-0.6919,-0.6919,-0.6919,-0.6919,-0.6898,-0.6827,-0.685,-0.6506,-0.5528,-0.4086,-0.3104,-0.3112,-0.3164,-0.2357,-0.0236,-0.0,-0.0,-0.0,-0.0,-0.0,-0.0,-0.0,-0.0,-0.0,-0.0,-0.0,-0.0,-0.0,-0.0,-0.0,-0.102,-0.3222,-0.625,-0.5569,-0.5631,0.0,0.0,0.0,0.0,0.0,0.0,0.0,-1.2305,-1.2305,-1.2305,-1.2305,-1.2305,-1.2305,-1.2305,-1.2305,-1.2305,-1.2351,-1.2385,-1.2385,-1.2645,-1.2936,-1.2913,-1.2872,-1.2933,-1.3186,-1.326,-1.3293,-1.3293,-1.3347,-1.2982,-1.2011,-1.0931,-0.9838,-0.8886,-0.7753,-0.7139,-0.7139,-0.7139,-0.7139,-0.7139,-0.717,-0.7183,-0.7183,-0.7183,-0.7183,-0.7183,-0.7153,-0.7139,-0.7143,-0.7173,-0.7183,-0.7187,-0.7217,-0.7231,-0.7221,-0.716,-0.7139,-0.7139,-0.7139,-0.7139,-0.7139,-0.7139,-0.7139,-0.7139,-0.7139,-0.7139,-0.7139,-0.7139,-0.7139,-0.7139,-0.7139,-0.7139,-0.7139,-0.7139,-0.7139,-0.7139,-0.7139,-0.7139,-0.7139,-0.7139,-0.7139,-0.7102,-0.699,-0.7066,-0.6573,-0.5204,-0.4369,-0.2935,-0.0326,-0.0,-0.0,-0.0,-0.0,-0.0,-0.0,-0.0,-0.0,-0.0,-0.0,-0.0,-0.0,-0.0,-0.0,-0.0,-0.0,-0.0,-0.0,-0.0,-0.1725,-0.5048,-0.4307,-0.4846,-1.2305,-1.2305,-1.2305,-1.2305,-1.2305,-1.2305,0.0,-1.2305,-1.2305,-1.2305,-1.2305,-1.2305,-1.2305,-1.2305,-1.2305,-1.2305,-1.2525,-1.2775,-1.2775,-1.2966,-1.3253,-1.3514,-1.3313,-1.3173,-1.3206,-1.3447,-1.3594,-1.3594,-1.3841,-1.3477,-1.2287,-1.1171,-1.0072,-0.8978,-0.7753,-0.7139,-0.7139,-0.7139,-0.7139,-0.7143,-0.7278,-0.7346,-0.7346,-0.7346,-0.7346,-0.7336,-0.72,-0.7139,-0.7149,-0.7288,-0.7346,-0.736,-0.7495,-0.755,-0.7516,-0.7241,-0.7139,-0.7139,-0.7139,-0.7139,-0.7139,-0.7139,-0.7139,-0.7139,-0.7139,-0.7139,-0.7139,-0.7139,-0.7139,-0.7139,-0.7139,-0.7139,-0.7139,-0.7139,-0.7139,-0.7139,-0.7139,-0.7139,-0.7139,-0.7139,-0.7139,-0.7136,-0.7119,-0.7119,-0.694,-0.6585,-0.6636,-0.5027,-0.0584,-0.0,-0.0,-0.0,-0.0,-0.0,-0.0,-0.0,-0.0,-0.0,-0.0,-0.0,-0.0,-0.0,-0.0,-0.0,-0.0,-0.0,-0.0,-0.0,-0.0236,-0.0707,-0.2423,-0.43,-1.2305,-1.2305,-1.2305,-1.2305,-1.2305,-1.2305,-1.2305,-1.2305,-1.2305,-1.2305,-1.2305,-1.2305,-1.2305,-1.2305,-1.2305,-1.2305,-1.2552,-1.2822,-1.2822,-1.316,-1.3507,-1.3627,-1.3687,-1.3721,-1.3721,-1.3828,-1.3638,-1.2859,-1.2965,-1.251,-1.1381,-1.0269,-0.941,-0.889,-0.7753,-0.7183,-0.7275,-0.7275,-0.7319,-0.7407,-0.7472,-0.7506,-0.7506,-0.7506,-0.7506,-0.7502,-0.7434,-0.7407,-0.7414,-0.7478,-0.7506,-0.7509,-0.7577,-0.76,-0.7584,-0.7455,-0.7407,-0.7407,-0.7407,-0.735,-0.7275,-0.7275,-0.7214,-0.7139,-0.7139,-0.7139,-0.7139,-0.7139,-0.7139,-0.7139,-0.7139,-0.7139,-0.7139,-0.7139,-0.7139,-0.7139,-0.7139,-0.7139,-0.7139,-0.7139,-0.7139,-0.7139,-0.7139,-0.7139,-0.7099,-0.6983,-0.7083,-0.6345,-0.4355,-0.1673,-0.0,-0.0,-0.0,-0.0,-0.0,-0.0,-0.0,-0.0,-0.0,-0.0,-0.0,-0.0,-0.0,-0.0,-0.0,-0.0,-0.0,-0.0,-0.0,-0.0079,-0.2111,-0.4224,-1.2305,-1.2305,-1.2305,-1.2305,-1.2305,-1.2305,-1.2305,-1.2077,-1.1996,-1.2224,-1.1848,-1.1552,-1.1848,-1.1922,-1.1874,-1.1958,-1.252,-1.2906,-1.2986,-1.344,-1.3768,-1.3768,-1.3955,-1.4088,-1.4088,-1.4088,-1.3561,-1.2413,-1.2328,-1.1643,-1.0183,-0.9323,-0.874,-0.8528,-0.7645,-0.7278,-0.7434,-0.7434,-0.7492,-0.76,-0.7638,-0.7658,-0.7658,-0.7658,-0.7638,-0.76,-0.76,-0.76,-0.7604,-0.7641,-0.7658,-0.7662,-0.7706,-0.7723,-0.7723,-0.7723,-0.7672,-0.76,-0.76,-0.7529,-0.7434,-0.7434,-0.7329,-0.7204,-0.7204,-0.7173,-0.7139,-0.7139,-0.7139,-0.7139,-0.7139,-0.7139,-0.7139,-0.7139,-0.7139,-0.7139,-0.7139,-0.7139,-0.7139,-0.7139,-0.7139,-0.7139,-0.7139,-0.7139,-0.7139,-0.7139,-0.7065,-0.7094,-0.7097,-0.3512,-0.0755,-0.0082,-0.0,-0.0,-0.0,-0.0,-0.0,-0.0,-0.0,-0.0,-0.0,-0.0,-0.0,-0.0,-0.0,-0.0,-0.0,-0.0,-0.0,-0.0079,-0.2111,-0.4226,-1.2305,-1.2305,-1.2305,-1.2305,-1.2305,-1.2305,-1.2305,-1.1545,-1.1087,-1.2077,-1.0726,-0.9669,-1.064,-1.0864,-1.0946,-1.1213,-1.2361,-1.3293,-1.3574,-1.3881,-1.4075,-1.4075,-1.4082,-1.4088,-1.4088,-1.4088,-1.3561,-1.2413,-1.2328,-1.1295,-0.9065,-0.889,-0.8448,-0.7451,-0.7366,-0.7438,-0.759,-0.7594,-0.7594,-0.76,-0.774,-0.7804,-0.7804,-0.7804,-0.7729,-0.76,-0.76,-0.76,-0.7611,-0.7746,-0.7804,-0.7821,-0.7967,-0.8024,-0.8024,-0.8024,-0.7845,-0.76,-0.76,-0.7597,-0.7594,-0.7594,-0.7489,-0.7363,-0.7363,-0.7258,-0.7139,-0.7139,-0.7139,-0.7139,-0.7139,-0.7139,-0.7139,-0.7139,-0.7139,-0.7139,-0.7139,-0.7139,-0.7139,-0.7139,-0.7139,-0.7139,-0.7139,-0.7139,-0.7139,-0.7139,-0.7136,-0.7143,-0.7074,-0.5003,-0.2573,-0.0252,-0.0,-0.0,-0.0,-0.0,-0.0,-0.0,-0.0,-0.0,-0.0,-0.0,-0.0,-0.0,-0.0,-0.0,-0.0,-0.0,-0.0,-0.0079,-0.2111,-0.4226,-1.1093,-1.1316,-1.1465,-1.215,-1.2305,-1.2305,-1.2305,-1.207,-1.1694,-1.1391,-1.1323,-1.1025,-0.997,-1.034,-1.0594,-1.0008,-1.1222,-1.2265,-1.2351,-1.3354,-1.4088,-1.4088,-1.4088,-1.4088,-1.4088,-1.3379,-1.2419,-1.13,-1.0438,-0.9401,-0.7753,-0.7665,-0.7656,-0.7366,-0.737,-0.7489,-0.7736,-0.774,-0.779,-0.7892,-0.794,-0.7963,-0.7963,-0.7963,-0.7936,-0.7892,-0.7892,-0.7892,-0.7896,-0.7943,-0.7963,-0.7967,-0.8021,-0.8038,-0.8038,-0.8038,-0.7977,-0.7892,-0.7892,-0.7824,-0.774,-0.774,-0.7641,-0.7522,-0.7522,-0.7414,-0.7292,-0.7292,-0.7221,-0.7139,-0.7139,-0.7139,-0.7139,-0.7139,-0.7139,-0.7139,-0.7139,-0.7139,-0.7139,-0.7139,-0.7139,-0.7139,-0.7139,-0.7139,-0.7139,-0.7139,-0.7139,-0.7061,-0.7081,-0.6421,-0.5626,-0.4815,-0.3276,-0.2402,-0.2404,-0.0893,-0.0,-0.0,-0.0,-0.0,-0.0,-0.0,-0.0,-0.0,-0.0,-0.0,-0.0,-0.0,-0.1414,-0.4173,-0.3444,-0.4339,-1.0115,-1.0265,-1.0415,-1.1099,-1.1471,-1.1694,-1.1323,-1.1248,-1.1025,-1.0415,-1.049,-1.0421,-0.9448,-0.982,-1.0067,-0.9555,-1.0283,-1.1021,-1.1196,-1.2165,-1.2843,-1.2851,-1.3209,-1.3294,-1.2869,-1.2163,-1.1381,-1.0697,-0.9579,-0.8364,-0.7139,-0.7193,-0.7292,-0.7448,-0.7502,-0.7645,-0.7889,-0.7892,-0.7943,-0.8038,-0.8038,-0.8038,-0.8038,-0.8038,-0.8038,-0.8038,-0.8038,-0.8038,-0.8038,-0.8038,-0.8038,-0.8038,-0.8038,-0.8038,-0.8038,-0.8038,-0.8038,-0.8038,-0.8038,-0.7974,-0.7892,-0.7892,-0.7794,-0.7675,-0.7675,-0.7573,-0.7441,-0.7387,-0.7299,-0.721,-0.7153,-0.7139,-0.7139,-0.7139,-0.7139,-0.7139,-0.7139,-0.7139,-0.7139,-0.7139,-0.7139,-0.7139,-0.7139,-0.7139,-0.7139,-0.7139,-0.7139,-0.7058,-0.7071,-0.7078,-0.7114,-0.7138,-0.5772,-0.4838,-0.4845,-0.3409,-0.2213,-0.1311,-0.1295,-0.1286,-0.1286,-0.1286,-0.1286,-0.1286,-0.1286,-0.1286,-0.1286,-0.1286,-0.2654,-0.5328,-0.4738,-0.5259,-0.9221,-0.9221,-0.9221,-0.9296,-1.004,-1.049,-0.9523,-0.9296,-0.9296,-0.9221,-0.8542,-0.8161,-0.8993,-0.9221,-0.9291,-0.9496,-0.9615,-0.9771,-1.0196,-1.0345,-1.0437,-1.0585,-1.1552,-1.1809,-1.0697,-1.0524,-1.0524,-1.0524,-0.9492,-0.8277,-0.7139,-0.7288,-0.7441,-0.7594,-0.7736,-0.7885,-0.8038,-0.8038,-0.8038,-0.8038,-0.8038,-0.8038,-0.8038,-0.8038,-0.8038,-0.8038,-0.8038,-0.8038,-0.8038,-0.8038,-0.8038,-0.8038,-0.8038,-0.8038,-0.8038,-0.8038,-0.8038,-0.8038,-0.8038,-0.8038,-0.8038,-0.8038,-0.794,-0.7824,-0.7824,-0.7723,-0.758,-0.7434,-0.739,-0.735,-0.7204,-0.7163,-0.7163,-0.7163,-0.7163,-0.7163,-0.7163,-0.7163,-0.7163,-0.7163,-0.7156,-0.7149,-0.7143,-0.7139,-0.7139,-0.7139,-0.7139,-0.7139,-0.7139,-0.7139,-0.7061,-0.7081,-0.7131,-0.7056,-0.708,-0.7112,-0.6161,-0.3946,-0.3775,-0.3771,-0.3771,-0.3771,-0.3771,-0.3771,-0.3771,-0.3771,-0.3771,-0.3771,-0.3771,-0.3771,-0.5874,-0.6809,-0.8008,-0.8161,-0.8389,-0.9145,-0.9523,-0.9593,-0.9372,-0.9296,-0.9074,-0.8313,-0.8542,-0.8542,-0.7326,-0.7706,-0.7949,-0.7308,-0.7969,-0.8688,-0.8846,-0.9751,-1.0437,-1.0585,-1.0864,-1.0956,-1.0611,-0.984,-0.9323,-0.9323,-0.8189,-0.7404,-0.7139,-0.7288,-0.7441,-0.7594,-0.7736,-0.7885,-0.8038,-0.8038,-0.8038,-0.8038,-0.8038,-0.8038,-0.8038,-0.8038,-0.8038,-0.8038,-0.8038,-0.8038,-0.8038,-0.8038,-0.8038,-0.8038,-0.8038,-0.8038,-0.8038,-0.8038,-0.8038,-0.8038,-0.8038,-0.8038,-0.8038,-0.8038,-0.8014,-0.798,-0.798,-0.7875,-0.775,-0.7709,-0.7624,-0.7533,-0.7492,-0.7482,-0.7482,-0.7482,-0.7482,-0.7482,-0.7482,-0.7482,-0.7482,-0.7482,-0.739,-0.7275,-0.716,-0.7139,-0.7139,-0.7139,-0.7139,-0.7139,-0.7139,-0.7139,-0.7143,-0.7061,-0.7115,-0.7095,-0.7102,-0.7066,-0.681,-0.6282,-0.6201,-0.6238,-0.6238,-0.6238,-0.6238,-0.6238,-0.6238,-0.6238,-0.6238,-0.6238,-0.6142,-0.5957,-0.6549,-0.686,-0.7629,-0.748,-0.7249,-0.7859,-0.8313,-0.8542,-0.8084,-0.8313,-0.8389,-0.7326,-0.7936,-0.8313,-0.7176,-0.7403,-0.7629,-0.7022,-0.718,-0.745,-0.7535,-0.8279,-0.88,-0.8996,-0.9952,-1.0438,-0.9923,-0.9753,-0.9405,-0.8978,-0.7753,-0.7139,-0.7139,-0.7288,-0.7441,-0.7594,-0.7736,-0.7885,-0.8038,-0.8038,-0.8038,-0.8038,-0.8038,-0.8038,-0.8038,-0.8038,-0.8038,-0.8038,-0.8038,-0.8038,-0.8038,-0.8038,-0.8038,-0.8038,-0.8038,-0.8038,-0.8038,-0.8038,-0.8038,-0.8038,-0.8038,-0.8038,-0.8038,-0.8038,-0.8038,-0.8038,-0.8038,-0.798,-0.7896,-0.7831,-0.7753,-0.7678,-0.7614,-0.76,-0.76,-0.76,-0.76,-0.76,-0.76,-0.7546,-0.7478,-0.7411,-0.7329,-0.7241,-0.7153,-0.7139,-0.7139,-0.7139,-0.7139,-0.7139,-0.7139,-0.7139,-0.7139,-0.7139,-0.7139,-0.7139,-0.7139,-0.7075,-0.7121,-0.7121,-0.7139,-0.71,-0.71,-0.71,-0.71,-0.71,-0.71,-0.71,-0.71,-0.71,-0.7008,-0.6905,-0.6905,-0.6946,-0.7859,-0.7176,-0.649,-0.649,-0.7176,-0.7553,-0.6718,-0.7176,-0.748,-0.649,-0.7022,-0.7629,-0.7629,-0.7706,-0.7783,-0.7633,-0.6945,-0.6464,-0.6531,-0.6603,-0.684,-0.7079,-0.9026,-1.0009,-0.9235,-0.9923,-0.9923,-0.8978,-0.7753,-0.7139,-0.7139,-0.7288,-0.7451,-0.7624,-0.7767,-0.7906,-0.8038,-0.8038,-0.8038,-0.8038,-0.8038,-0.8038,-0.8038,-0.8038,-0.8038,-0.8038,-0.8038,-0.8038,-0.8038,-0.8038,-0.8038,-0.8038,-0.8038,-0.8038,-0.8038,-0.8038,-0.8038,-0.8038,-0.8038,-0.8038,-0.8038,-0.8038,-0.8038,-0.8038,-0.8038,-0.8038,-0.8011,-0.7879,-0.7841,-0.7814,-0.7689,-0.7658,-0.7658,-0.7658,-0.7658,-0.7651,-0.7631,-0.7509,-0.7356,-0.72,-0.717,-0.7166,-0.7143,-0.7139,-0.7139,-0.7139,-0.7139,-0.7139,-0.7139,-0.7139,-0.7139,-0.7139,-0.7139,-0.7139,-0.7139,-0.7139,-0.7139,-0.7139,-0.7139,-0.7139,-0.7139,-0.7139,-0.7139,-0.7139,-0.7139,-0.7139,-0.7139,-0.7139,-0.7139,-0.7139,-0.7139,-0.7139,-0.8012,-0.7706,-0.7557,-0.7557,-0.7706,-0.7783,-0.7557,-0.7706,-0.748,-0.649,-0.6412,-0.6567,-0.6567,-0.7249,-0.7553,-0.6718,-0.7099,-0.7308,-0.661,-0.6603,-0.7087,-0.8251,-0.8858,-0.9492,-1.0269,-0.9666,-0.9148,-0.889,-0.7753,-0.7139,-0.7139,-0.7288,-0.7495,-0.7767,-0.7923,-0.8014,-0.8038,-0.8038,-0.8038,-0.8038,-0.8038,-0.8038,-0.8038,-0.8038,-0.8038,-0.8038,-0.8038,-0.8038,-0.8038,-0.8038,-0.8038,-0.8038,-0.8038,-0.8038,-0.8038,-0.8038,-0.8038,-0.8038,-0.8038,-0.8038,-0.8038,-0.8038,-0.8038,-0.8038,-0.8038,-0.8038,-0.8035,-0.8007,-0.7997,-0.7994,-0.797,-0.7963,-0.7963,-0.7963,-0.7963,-0.7929,-0.7801,-0.7662,-0.7516,-0.736,-0.7329,-0.7292,-0.7163,-0.7139,-0.7139,-0.7139,-0.7139,-0.7139,-0.7139,-0.7139,-0.7139,-0.7139,-0.7139,-0.7139,-0.7139,-0.7139,-0.7139,-0.7139,-0.7139,-0.7139,-0.7139,-0.7139,-0.7139,-0.7139,-0.7139,-0.7139,-0.7139,-0.7139,-0.7139,-0.7139,-0.7139,-0.7139,-0.9482,-0.8988,-0.8618,-0.8618,-0.8618,-0.8618,-0.8618,-0.8618,-0.8466,-0.7936,-0.7859,-0.7859,-0.7859,-0.8237,-0.8389,-0.7936,-0.7859,-0.7658,-0.7203,-0.6805,-0.704,-0.8351,-0.9212,-1.0142,-1.137,-1.0438,-0.9749,-0.9749,-0.8097,-0.7139,-0.7139,-0.7288,-0.7472,-0.7695,-0.7845,-0.796,-0.8038,-0.8038,-0.8038,-0.8038,-0.8038,-0.8038,-0.8038,-0.8038,-0.8038,-0.8038,-0.8038,-0.8038,-0.8038,-0.8038,-0.8038,-0.8038,-0.8038,-0.8038,-0.8038,-0.8038,-0.8038,-0.8038,-0.8038,-0.7987,-0.7919,-0.7919,-0.7974,-0.8038,-0.8038,-0.8038,-0.8038,-0.8038,-0.8038,-0.8038,-0.8038,-0.8038,-0.8021,-0.794,-0.7865,-0.777,-0.7614,-0.7529,-0.7438,-0.7282,-0.7251,-0.7227,-0.7153,-0.7139,-0.7139,-0.7139,-0.7139,-0.7139,-0.7139,-0.7139,-0.7139,-0.7139,-0.7139,-0.7139,-0.7139,-0.7139,-0.7139,-0.7139,-0.7139,-0.7139,-0.7139,-0.7139,-0.7139,-0.7139,-0.7139,-0.7139,-0.7139,-0.7139,-0.7139,-0.7139,-0.7139,-0.7139,-1.0728,-1.0151,-0.9593,-0.9593,-0.9593,-0.9593,-0.9593,-0.9593,-0.9593,-0.9372,-0.9296,-0.9296,-0.9296,-0.9448,-0.9523,-0.9296,-0.8841,-0.8385,-0.8161,-0.7548,-0.7641,-0.8946,-1.0053,-1.1204,-1.2565,-1.1386,-1.0611,-1.0611,-0.8444,-0.7139,-0.7139,-0.7288,-0.7424,-0.7546,-0.7719,-0.7868,-0.7987,-0.8024,-0.8038,-0.8038,-0.8038,-0.8038,-0.8038,-0.8038,-0.8038,-0.8038,-0.8038,-0.8038,-0.8038,-0.8004,-0.7991,-0.7987,-0.7957,-0.7943,-0.7943,-0.7943,-0.7943,-0.7943,-0.7943,-0.7868,-0.7767,-0.7767,-0.7848,-0.7943,-0.7943,-0.7943,-0.7943,-0.7943,-0.7943,-0.7943,-0.7943,-0.7943,-0.7916,-0.7794,-0.7655,-0.7516,-0.7397,-0.7346,-0.7285,-0.7163,-0.7139,-0.7139,-0.7139,-0.7139,-0.7139,-0.7139,-0.7139,-0.7139,-0.7139,-0.7139,-0.7139,-0.7139,-0.7139,-0.7139,-0.7139,-0.7139,-0.7139,-0.7139,-0.7139,-0.7139,-0.7139,-0.7139,-0.7139,-0.7139,-0.7139,-0.7139,-0.7139,-0.7139,-0.7139,-0.7139,-0.7139,-0.7139,-1.0653,-1.0539,-1.064,-1.064,-1.064,-1.064,-1.064,-1.064,-1.0415,-0.9523,-0.9296,-0.9296,-0.9296,-1.004,-1.034,-0.9448,-0.9965,-1.019,-0.9296,-0.9169,-0.9775,-1.1221,-1.163,-1.2308,-1.3795,-1.1912,-1.0611,-1.0611,-0.8444,-0.7139,-0.7139,-0.7288,-0.738,-0.7394,-0.7665,-0.7818,-0.7831,-0.797,-0.8038,-0.8038,-0.8038,-0.8038,-0.8038,-0.8038,-0.8038,-0.8038,-0.8038,-0.8038,-0.8028,-0.7889,-0.7831,-0.7821,-0.7692,-0.7641,-0.7641,-0.7641,-0.7641,-0.7641,-0.7641,-0.7631,-0.7617,-0.7617,-0.7628,-0.7641,-0.7641,-0.7641,-0.7641,-0.7641,-0.7641,-0.7641,-0.7641,-0.7641,-0.7638,-0.7624,-0.7502,-0.739,-0.7373,-0.7261,-0.7156,-0.7143,-0.7139,-0.7139,-0.7139,-0.7139,-0.7139,-0.7139,-0.7139,-0.7139,-0.7139,-0.7139,-0.7139,-0.7139,-0.7139,-0.7139,-0.7139,-0.7139,-0.7139,-0.7139,-0.7139,-0.7139,-0.7139,-0.7139,-0.7139,-0.7139,-0.7139,-0.7139,-0.7139,-0.7139,-0.7139,-0.7139,-0.7139,-0.7139,-1.1385,-1.1484,-1.1694,-1.1694,-1.1694,-1.1694,-1.1694,-1.1694,-1.162,-1.1174,-1.1099,-1.1099,-1.1099,-1.1397,-1.1545,-1.1174,-1.0938,-1.064,-1.0265,-0.9748,-0.9895,-1.1239,-1.165,-1.2325,-1.3705,-1.1821,-1.0005,-0.8615,-0.7661,-0.7139,-0.7139,-0.72,-0.7275,-0.7366,-0.7577,-0.7726,-0.7811,-0.7963,-0.8038,-0.8038,-0.8038,-0.8038,-0.8038,-0.8038,-0.8038,-0.8035,-0.7943,-0.7902,-0.7889,-0.7743,-0.7685,-0.7678,-0.7624,-0.76,-0.76,-0.76,-0.76,-0.76,-0.76,-0.7539,-0.7461,-0.7461,-0.7397,-0.7356,-0.7543,-0.76,-0.76,-0.76,-0.76,-0.76,-0.76,-0.7533,-0.7461,-0.7461,-0.7343,-0.7231,-0.7231,-0.7183,-0.7139,-0.7139,-0.7139,-0.7139,-0.7139,-0.7139,-0.7139,-0.7139,-0.7139,-0.7139,-0.7139,-0.7139,-0.7139,-0.7139,-0.7139,-0.7139,-0.7139,-0.7139,-0.7139,-0.7139,-0.7139,-0.7139,-0.7139,-0.7139,-0.7139,-0.7139,-0.7139,-0.7139,-0.7139,-0.7139,-0.7139,-0.7139,-0.7139,-0.7139,-1.1657,-1.1951,-1.2191,-1.2278,-1.2305,-1.2305,-1.2305,-1.2305,-1.2305,-1.2305,-1.2305,-1.2305,-1.2305,-1.2305,-1.2305,0.0,0.0,-1.1236,-1.1236,-1.0645,-1.0593,-1.155,-1.1981,-1.25,-1.3532,-1.1764,-0.9744,-0.7749,-0.7316,-0.7139,-0.7139,-0.7139,-0.719,-0.7299,-0.7451,-0.76,-0.7746,-0.7896,-0.7994,-0.8038,-0.8038,-0.8038,-0.8038,-0.7991,-0.7974,-0.7963,-0.7814,-0.775,-0.7736,-0.7594,-0.7533,-0.7529,-0.7482,-0.7465,-0.7465,-0.7465,-0.7465,-0.7465,-0.7465,-0.7394,-0.7302,-0.7302,-0.7227,-0.718,-0.7397,-0.7465,-0.7465,-0.7465,-0.7465,-0.7465,-0.7465,-0.7383,-0.7302,-0.7302,-0.7221,-0.7139,-0.7139,-0.7139,-0.7139,-0.7139,-0.7139,-0.7139,-0.7139,-0.7139,-0.7139,-0.7139,-0.7139,-0.7139,-0.7139,-0.7139,-0.7139,-0.7139,-0.7139,-0.7139,-0.7139,-0.7139,-0.7139,-0.7139,-0.7139,-0.7139,-0.7139,-0.7139,-0.7139,-0.7139,-0.7139,-0.7139,-0.7139,-0.7139,-0.7139,-0.7139,-0.7139,-0.7139,-1.1349,-1.165,-1.1944,-1.2231,-1.2305,-1.2305,-1.2305,-1.2305,-1.2305,-1.2305,-1.2305,-1.2305,-1.2305,-1.2305,-1.2305,-1.2305,-1.2298,0.0,-1.2298,-1.2305,-1.2412,-1.2712,-1.3019,-1.3327,-1.3532,-1.1764,-1.0096,-0.8978,-0.7753,-0.7139,-0.7139,-0.7139,-0.7139,-0.7143,-0.7292,-0.7448,-0.76,-0.7743,-0.7889,-0.8038,-0.8038,-0.8038,-0.8035,-0.7882,-0.7814,-0.7804,-0.7662,-0.76,-0.759,-0.7438,-0.7373,-0.736,-0.7204,-0.7146,-0.7146,-0.7146,-0.7146,-0.7146,-0.7146,-0.7143,-0.7143,-0.7143,-0.7143,-0.7139,-0.7143,-0.7146,-0.7146,-0.7146,-0.7146,-0.7146,-0.7146,-0.7143,-0.7143,-0.7143,-0.7143,-0.7139,-0.7139,-0.7139,-0.7139,-0.7139,-0.7139,-0.7139,-0.7139,-0.7139,-0.7139,-0.7139,-0.7139,-0.7139,-0.7139,-0.7139,-0.7139,-0.7139,-0.7139,-0.7139,-0.7139,-0.7139,-0.7139,-0.7139,-0.7139,-0.7139,-0.7139,-0.7139,-0.7139,-0.7139,-0.7139,-0.7139,-0.7139,-0.7139,-0.7139,-0.7139,-0.7139,-0.7139,-1.1102,-1.1343,-1.1637,-1.1931,-1.2004,-1.2058,-1.2258,-1.2305,-1.2305,-1.2305,-1.2305,-1.2305,-1.2305,-1.2305,-1.2305,-1.2305,-1.2305,-1.2305,-1.2305,-1.2305,-1.2338,-1.2432,-1.2899,-1.3065,-1.2763,-1.2111,-1.095,-0.9065,-0.854,-0.7929,-0.7139,-0.7139,-0.7139,-0.7139,-0.7292,-0.7394,-0.7444,-0.759,-0.7692,-0.774,-0.774,-0.774,-0.7736,-0.7689,-0.7665,-0.7658,-0.7509,-0.7444,-0.7431,-0.7278,-0.7214,-0.7207,-0.716,-0.7139,-0.7139,-0.7139,-0.7139,-0.7139,-0.7139,-0.7139,-0.7139,-0.7139,-0.7139,-0.7139,-0.7139,-0.7139,-0.7139,-0.7139,-0.7139,-0.7139,-0.7139,-0.7139,-0.7139,-0.7139,-0.7139,-0.7139,-0.7139,-0.7139,-0.7139,-0.7139,-0.7139,-0.7139,-0.7139,-0.7139,-0.7139,-0.7139,-0.7139,-0.7139,-0.7139,-0.7139,-0.7139,-0.7139,-0.7139,-0.7139,-0.7139,-0.7139,-0.7139,-0.7139,-0.7139,-0.7139,-0.7139,-0.7139,-0.7139,-0.7139,-0.7139,-0.7139,-0.7139,-0.7139,-0.7139,-0.7139,-0.7139,-0.7139,-1.0962,-1.1129,-1.1329,-1.163,-1.179,-1.1917,-1.2098,-1.2225,-1.2305,-1.2305,-1.2305,-1.2305,-1.2305,-1.2305,-1.2305,-1.2305,-1.2305,-1.2305,-1.2305,-1.2305,-1.2385,-1.2619,-1.2979,-1.3104,-1.2977,-1.2589,-1.1552,-0.9666,-0.9148,-0.8364,-0.7139,-0.7139,-0.7139,-0.7139,-0.7234,-0.7312,-0.737,-0.7465,-0.7543,-0.76,-0.76,-0.76,-0.7597,-0.7539,-0.7512,-0.7506,-0.7353,-0.7285,0.0,-0.718,-0.7139,-0.7139,-0.7139,-0.7139,-0.7139,-0.7139,-0.7139,-0.7139,-0.7139,-0.7139,-0.7139,-0.7139,-0.7139,-0.7228,-0.7665,-0.7489,-0.7139,-0.7139,-0.7139,-0.7139,-0.7139,-0.7139,-0.7139,-0.7139,-0.7139,-0.7139,-0.7139,-0.7139,-0.7139,-0.7139,-0.7139,-0.7139,-0.7139,-0.7139,-0.7139,-0.7139,-0.7139,-0.7139,-0.7139,-0.7139,-0.7139,-0.7139,-0.7139,-0.7139,-0.7139,-0.7139,-0.7139,-0.7139,-0.7139,-0.7139,-0.7139,-0.7139,-0.7139,-0.7139,-0.7139,-0.7139,-0.7139,-0.7139,-0.7139,-0.7139,-0.7139,-0.7139,0.0,-1.1028,-1.1035,-1.1323,-1.1603,-1.1817,-1.1857,0.0,0.0,-1.2298,-1.2305,-1.2305,-1.2305,-1.2305,-1.2305,-1.2305,-1.2305,-1.2305,-1.2305,-1.2305,-1.2525,-1.314,-1.3213,-1.344,-1.4028,-1.3118,-1.1986,-1.0783,-0.9662,-0.854,-0.7316,-0.7139,-0.7139,-0.7139,-0.7139,-0.721,-0.7353,-0.7356,-0.7424,-0.7567,-0.7567,-0.7567,-0.7563,-0.7421,-0.7356,-0.7346,-0.7204,-0.7139,-0.7139,-0.7139,-0.7139,-0.7139,-0.7139,-0.7139,-0.7139,-0.7139,-0.7139,-0.7139,-0.7139,-0.7139,-0.7228,-0.7312,-0.7312,-0.7577,-0.8715,-0.8101,-0.7139,-0.7228,-0.7139,-0.7139,-0.7139,-0.7139,-0.7139,-0.7139,-0.7139,-0.7139,-0.7139,-0.7139,-0.7139,-0.7139,-0.7139,-0.7139,-0.7139,-0.7139,-0.7139,-0.7139,-0.7139,-0.7139,-0.7139,-0.7139,-0.7139,-0.7139,-0.7139,-0.7139,-0.7139,-0.7139,-0.7139,-0.7139,-0.7139,-0.7139,-0.7139,-0.7139,-0.7139,-0.7139,-0.7139,-0.7139,-0.7139,-0.7139,-0.7139,-0.7139,-0.7139,-0.7139,-1.1619,0.0,-1.0735,-1.1022,-1.1142,-1.1316,0.0,0.0,0.0,0.0,0.0,0.0,0.0,-1.2305,-1.2305,-1.2305,-1.2305,-1.2305,-1.2305,-1.2305,-1.2525,-1.314,-1.3213,-1.344,-1.4028,-1.3822,-1.3203,-1.1986,-1.0869,-0.9662,-0.854,-0.7577,-0.7139,-0.7139,-0.7139,-0.7156,-0.7193,-0.7193,-0.7214,-0.7248,-0.7248,-0.7248,-0.7248,-0.721,-0.7193,-0.719,-0.7156,-0.7139,-0.7139,-0.7139,-0.7139,-0.7139,-0.7139,-0.7139,-0.7139,-0.7139,-0.7139,-0.7139,-0.7139,-0.7665,-0.8627,-0.9483,-0.9744,-0.9831,-1.0091,-0.879,-0.7316,-0.8189,-0.7841,-0.7139,-0.7139,-0.7139,-0.7139,-0.7139,-0.7139,-0.7139,-0.7139,-0.7139,-0.7139,-0.7139,-0.7139,-0.7139,-0.7139,-0.7139,-0.7139,-0.7139,-0.7139,-0.7139,-0.7139,-0.7139,-0.7139,-0.7139,-0.7139,-0.7139,-0.7139,-0.7139,-0.7139,-0.7139,-0.7139,-0.7139,-0.7139,-0.7139,-0.7139,-0.7139,-0.7139,-0.7139,-0.7139,-0.7139,-0.7139,-0.7139,-0.7139,-0.7139,-1.2328,-1.1476,-1.0658,-1.0755,-1.0895,-1.1109,-1.1563,0.0,0.0,0.0,0.0,0.0,0.0,-1.2305,-1.2305,-1.2305,-1.2305,-1.2305,-1.2305,-1.2305,-1.2525,-1.314,-1.3213,-1.344,-1.4028,-1.4088,-1.3561,-1.2413,-1.1209,-1.0096,-0.8978,-0.7753,-0.7139,-0.7139,-0.7139,-0.7139,-0.7139,-0.7139,-0.7139,-0.7139,-0.7139,-0.7139,-0.7139,-0.7139,-0.7139,-0.7139,-0.7139,-0.7139,-0.7139,-0.7139,-0.7404,-0.7929,-0.7929,-0.8273,-0.8703,-0.8703,-0.8703,-0.8703,-0.8703,-0.9139,-0.9749,-1.0438,-1.0611,-1.0697,-1.1209,-1.0086,-0.8877,-0.9488,-0.9231,-0.8619,-0.8101,-0.8273,-0.8444,-0.7312,-0.7492,-0.7753,-0.7228,-0.7139,-0.7139,-0.7139,-0.7139,-0.7139,-0.7139,-0.7139,-0.7139,-0.7139,-0.7139,-0.7139,-0.7139,-0.7139,-0.7139,-0.7139,-0.7139,-0.7139,-0.7139,-0.7139,-0.7139,-0.7139,-0.7139,-0.7139,-0.7139,-0.7139,-0.7139,-0.7139,-0.7139,-0.7139,-0.7139,-0.7139,-0.7139,-0.7139,-0.7139,-0.7139,-1.3191,-1.2027,-1.0807,-1.0807,-1.087,-1.1002,-1.1289,0.0,0.0,0.0,0.0,0.0,-1.2305,-1.2305,-1.2305,-1.2305,-1.2305,-1.2305,-1.2305,-1.2305,-1.2512,-1.3073,-1.318,-1.342,-1.3968,-1.4062,-1.3646,-1.2674,-1.1386,-1.0178,-0.9235,-0.7841,-0.7139,-0.7139,-0.7139,-0.7139,-0.7139,-0.7139,-0.7139,-0.7139,-0.7139,-0.7139,-0.7139,-0.7139,-0.7139,-0.7139,-0.7139,-0.7228,-0.7404,-0.7404,-0.8086,-0.9104,-0.9104,-0.9707,-1.056,-1.056,-1.058,-1.0611,-1.0783,-1.0864,-1.0869,-1.1042,-1.1128,-1.13,-1.2248,-1.1901,-1.1128,-1.1128,-1.0869,-1.0351,-0.9405,-0.9836,-1.0091,-0.8097,-0.8277,-0.8627,-0.7577,-0.7228,-0.7139,-0.7139,-0.7139,-0.7139,-0.7139,-0.7139,-0.7139,-0.7139,-0.7139,-0.7139,-0.7139,-0.7139,-0.7139,-0.7139,-0.7139,-0.7139,-0.7139,-0.7139,-0.7139,-0.7139,-0.7139,-0.7139,-0.7139,-0.7139,-0.7139,-0.7139,-0.7139,-0.7139,-0.7139,-0.7139,-0.7139,-0.7139,-0.7139,-0.7139,-1.4025,-1.287,-1.1648,-1.1648,-1.1143,-1.0701,-1.0995,0.0,0.0,0.0,0.0,0.0,-1.2305,-1.2305,-1.2305,-1.2305,-1.2305,-1.2305,-1.2305,-1.2305,-1.2432,-1.2856,-1.3053,-1.334,-1.3681,-1.3941,-1.3997,-1.3822,-1.1821,-1.0524,-1.0351,-0.8269,-0.7139,-0.7139,-0.7139,-0.7139,-0.7139,-0.7139,-0.7139,-0.7139,-0.7139,-0.7139,-0.7139,-0.7139,-0.7139,-0.7139,-0.7139,-0.7665,-0.8627,-0.8627,-0.9139,-1.0001,-1.0001,-1.008,-1.0248,-1.0248,-1.0454,-1.0783,-1.1724,-1.2072,-1.2242,-1.3209,-1.3561,-1.3568,-1.3737,-1.3737,-1.3561,-1.3561,-1.2169,-1.0524,-1.0351,-1.0438,-1.0524,-1.0178,-0.9492,-0.889,-0.8627,-0.7841,-0.7139,-0.7139,-0.7139,-0.7139,-0.7139,-0.7139,-0.7139,-0.7139,-0.7139,-0.7139,-0.7139,-0.7139,-0.7139,-0.7139,-0.7139,-0.7139,-0.7139,-0.7139,-0.7139,-0.7139,-0.7139,-0.7139,-0.7139,-0.7139,-0.7139,-0.7139,-0.7139,-0.7139,-0.7139,-0.7139,-0.7139,-0.7139,-0.7139,-0.7139,-1.4874,-1.4016,-1.2992,-1.2573,-1.1538,-1.0698,-1.0929,-1.1216,0.0,0.0,0.0,-1.2305,-1.2305,-1.2305,-1.2305,-1.2305,-1.2305,-1.2305,-1.2305,-1.2305,-1.2412,-1.2788,-1.3019,-1.3327,-1.3532,-1.3915,-1.4088,-1.4088,-1.1912,-1.0611,-1.0611,-0.8356,-0.7139,-0.7139,-0.7139,-0.7139,-0.7139,-0.7139,-0.7139,-0.7139,-0.7139,-0.7139,-0.7139,-0.7139,-0.7139,-0.7139,-0.7753,-0.8313,-0.8656,-0.9334,-1.0139,-1.092,-1.092,-1.1258,-1.1857,-1.1993,-1.2117,-1.2326,-1.3068,-1.3288,-1.3379,-1.3913,-1.4088,-1.4088,-1.4088,-1.4088,-1.4088,-1.4088,-1.33,-1.2345,-1.1729,-1.1992,-1.2174,-1.0869,-1.0697,-1.0611,-0.9923,-0.9401,-0.8794,-0.8189,-0.8101,-0.7841,-0.7228,-0.7139,-0.7139,-0.7139,-0.7139,-0.7139,-0.7139,-0.7139,-0.7139,-0.7139,-0.7139,-0.7139,-0.7139,-0.7139,-0.7139,-0.7139,-0.7139,-0.7139,-0.7139,-0.7139,-0.7139,-0.7139,-0.7139,-0.7139,-0.7139,-0.7139,-0.7139,-0.7139,-0.7139,-0.7139,-1.541,-1.4805,-1.4025,-1.3425,0.0,-1.1115,-1.0972,-1.1303,-1.1696,-1.1787,-1.2051,-1.2305,-1.2305,-1.2305,-1.2305,-1.2305,-1.2305,-1.2305,-1.2305,-1.2305,-1.2385,-1.2619,-1.2979,-1.33,-1.352,-1.3874,-1.4088,-1.4088,-1.2169,-1.0869,-1.0611,-0.8619,-0.7404,-0.7139,-0.7139,-0.7139,-0.7139,-0.7139,-0.7139,-0.7139,-0.7139,-0.7139,-0.7139,-0.7139,-0.7228,-0.7573,-0.8408,-0.8914,-0.9274,-1.0143,-1.1055,-1.1793,-1.1793,-1.2365,-1.3133,-1.3434,-1.3587,-1.3674,-1.3908,-1.4028,-1.4088,-1.4088,-1.4088,-1.4088,-1.4088,-1.4088,-1.4088,-1.4088,-1.4088,-1.3913,-1.2942,-1.3379,-1.3652,-1.1826,-1.1901,-1.2066,-1.1214,-1.0778,-1.0351,-0.9492,-0.9065,-0.8627,-0.7665,-0.7316,-0.7139,-0.7139,-0.7139,-0.7139,-0.7139,-0.7139,-0.7139,-0.7139,-0.7139,-0.7139,-0.7139,-0.7139,-0.7139,-0.7139,-0.7139,-0.7139,-0.7139,-0.7139,-0.7139,-0.7139,-0.7139,-0.7139,-0.7139,-0.7139,-0.7139,-0.7139,-0.7139,-0.7139,-1.541,-1.4805,-1.4213,-1.4154,-1.3485,-1.2466,-1.0954,-1.168,-1.2383,-1.1587,-1.1911,-1.2305,-1.2305,-1.2305,-1.2305,-1.2305,-1.2305,-1.2305,-1.2305,-1.2305,-1.2311,-1.2331,-1.2852,-1.322,-1.324,-1.3754,-1.4088,-1.4088,-1.2942,-1.1724,-1.0697,-0.9405,-0.8277,-0.7139,-0.7139,-0.7139,-0.7139,-0.7139,-0.7139,-0.7139,-0.7139,-0.7139,-0.7139,-0.7139,-0.7753,-0.8794,-0.8537,-0.9625,-1.1675,-1.1445,-1.1921,-1.2696,-1.2696,-1.2779,-1.2896,-1.3126,-1.3414,-1.3566,-1.3667,-1.3854,-1.4088,-1.4088,-1.4088,-1.4088,-1.4088,-1.4088,-1.4088,-1.4088,-1.4088,-1.4088,-1.3997,-1.3997,-1.4088,-1.3913,-1.3033,-1.2242,-1.2242,-1.1381,-1.0611,-1.0524,-0.9666,-0.889,-0.8803,-0.7841,-0.7139,-0.7139,-0.7139,-0.7139,-0.7139,-0.7139,-0.7139,-0.7139,-0.7139,-0.7139,-0.7139,-0.7139,-0.7139,-0.7139,-0.7139,-0.7139,-0.7139,-0.7139,-0.7139,-0.7139,-0.7139,-0.7139,-0.7139,-0.7139,-0.7139,-0.7139,-0.7139,-0.7139,-1.541,-1.5167,-1.4815,-1.4332,-1.4332,0.0,0.0,-1.2258,-1.238,-1.2198,-1.2102,-1.2091,-1.2271,-1.2305,-1.2305,-1.2305,-1.2305,-1.2305,-1.2305,-1.2305,-1.2305,-1.2305,-1.2672,-1.2999,-1.3193,-1.3574,-1.3888,-1.4075,-1.2942,-1.2072,-1.1638,-1.0611,-0.9405,-0.8277,-0.8189,-0.7841,-0.7139,-0.7139,-0.7139,-0.7139,-0.7139,-0.7139,-0.7136,-0.765,-0.8119,-0.8623,-0.9844,-1.0724,-1.1379,-1.2076,-1.2343,-1.2472,-1.2472,-1.2472,-1.2505,-1.2812,-1.3113,-1.34,-1.3499,-1.3841,-1.4088,-1.4088,-1.4088,-1.4088,-1.4088,-1.4088,-1.4088,-1.4088,-1.4088,-1.4088,-1.4088,-1.4088,-1.4088,-1.4088,-1.3737,-1.3379,-1.3379,-1.3124,-1.2516,-1.1815,-1.1295,-1.0524,-0.9148,-0.854,-0.7929,-0.7228,-0.7139,-0.7139,-0.7139,-0.7139,-0.7139,-0.7139,-0.7139,-0.7139,-0.7139,-0.7139,-0.7139,-0.7139,-0.7139,-0.7139,-0.7139,-0.7139,-0.7139,-0.7139,-0.7139,-0.7139,-0.7139,-0.7139,-0.7139,-0.7139,-0.7139,-0.7139,-1.541,-1.541,-1.5294,-1.4746,0.0,0.0,-1.4034,-1.3335,-1.2899,-1.263,-1.2213,-1.1957,-1.2245,-1.2305,-1.2305,-1.2305,-1.2305,-1.2305,-1.2305,-1.2305,-1.2305,-1.2305,-1.2565,-1.2943,-1.318,-1.3474,-1.3768,-1.4062,-1.3294,-1.2674,-1.2328,-1.1552,-1.0611,-0.9492,-0.9061,-0.854,-0.7665,-0.7665,-0.7665,-0.7665,-0.796,-0.796,-0.7661,-0.8606,-0.9194,-0.9597,-1.0783,-1.1419,-1.164,-1.2335,-1.2485,-1.2305,-1.2305,-1.2305,-1.2325,-1.2532,-1.2799,-1.3106,-1.34,-1.3701,-1.3961,-1.4055,-1.4088,-1.4088,-1.4088,-1.4088,-1.4088,-1.4088,-1.4088,-1.4088,-1.4088,-1.4088,-1.4088,-1.4088,-1.4088,-1.4062,-1.3968,-1.3948,-1.3658,-1.2791,-1.2254,-1.1584,-0.9984,-0.9528,-0.8884,-0.7676,-0.7632,-0.7489,-0.7139,-0.7139,-0.7139,-0.7139,-0.7139,-0.7139,-0.7139,-0.7139,-0.7139,-0.7139,-0.7139,-0.7139,-0.7139,-0.7139,-0.7139,-0.7139,-0.7139,-0.7139,-0.7139,-0.7139,-0.7139,-0.7139,-0.7139,-0.7139,-1.541,-1.541,-1.541,-1.541,0.0,0.0,-1.541,-1.5004,-1.423,-1.2572,-1.2051,-1.1957,-1.2245,-1.2298,-1.2305,-1.2305,-1.2305,-1.2305,-1.2305,-1.2305,-1.2305,-1.2305,-1.2559,-1.2866,-1.3173,-1.3467,-1.3761,-1.4062,-1.4088,-1.3561,-1.2413,-1.2328,-1.1809,-1.0611,-0.9492,-0.889,-0.889,-0.889,-0.8886,-0.8886,-0.9795,-0.9719,-0.8969,-0.979,-1.0856,-1.1828,-1.1236,-1.1723,-1.2795,-1.2425,-1.2305,-1.2305,-1.2305,-1.2305,-1.2305,-1.2305,-1.2492,-1.2869,-1.31,-1.34,-1.3687,-1.3988,-1.4082,-1.4088,-1.4088,-1.4088,-1.4088,-1.4088,-1.4082,-1.4082,-1.4082,-1.4082,-1.4082,-1.4082,-1.4082,-1.4001,-1.3701,-1.3641,-1.3554,-1.3267,-1.2301,-1.1484,-1.1484,-1.0794,-0.9779,-0.8607,-0.8681,-0.8452,-0.7316,-0.7139,-0.7139,-0.7139,-0.7139,-0.7139,-0.7139,-0.7139,-0.7139,-0.7139,-0.7139,-0.7139,-0.7139,-0.7139,-0.7139,-0.7139,-0.7139,-0.7139,-0.7139,-0.7139,-0.7139,-0.7139,-0.7139,-0.7139,-1.541,-1.541,-1.541,-1.541,-1.541,-1.541,-1.541,-1.4849,-1.397,-1.2519,-1.2526,-1.2593,-1.2128,-1.2164,-1.2305,-1.2305,-1.2305,-1.2305,-1.2305,-1.2305,-1.2305,-1.2305,-1.2378,-1.2552,-1.2859,-1.316,-1.346,-1.3754,-1.3968,-1.3913,-1.3555,-1.3561,-1.3033,-1.1809,-1.1466,-1.0869,-1.0096,-0.9952,-0.979,-0.979,-1.0733,-1.0661,-0.9865,-1.0476,-1.0931,-1.1309,-1.1746,-1.2127,-1.2425,-1.2338,-1.2305,-1.2305,-1.2305,-1.2305,-1.2305,-1.2305,-1.2492,-1.2835,-1.2852,-1.3213,-1.3661,-1.3748,-1.3915,-1.4088,-1.4088,-1.4088,-1.4088,-1.4088,-1.3935,-1.3774,-1.3774,-1.3627,-1.352,-1.3728,-1.3621,-1.3447,-1.336,-1.334,-1.3313,-1.3227,-1.2962,-1.2466,-1.165,-1.1307,-1.0702,-0.9476,-0.9573,-0.9505,-0.8524,-0.8364,-0.8017,-0.7228,-0.7139,-0.7139,-0.7139,-0.7139,-0.7139,-0.7139,-0.7139,-0.7139,-0.7139,-0.7139,-0.7139,-0.7139,-0.7139,-0.7139,-0.7139,-0.7139,-0.7139,-0.7139,-0.7139,-0.7139,-1.541,-1.541,-1.541,-1.541,-1.541,-1.5294,-1.4991,-1.4332,-1.3405,-1.2439,-1.2349,-1.2354,-1.1986,-1.2104,-1.2305,-1.2305,-1.2305,-1.2305,-1.2305,-1.2305,-1.2305,-1.2305,-1.2305,-1.2418,-1.2795,-1.2919,-1.3153,-1.3447,-1.3634,-1.3741,-1.3741,-1.3741,-1.3398,-1.2705,-1.2195,-1.1689,-1.0936,-1.0797,-1.0728,-1.0723,-1.1615,-1.1732,-1.1226,-1.1558,-1.1723,-1.171,-1.2127,-1.2305,-1.2305,-1.2305,-1.2305,-1.2305,-1.2305,-1.2305,-1.2305,-1.2305,-1.2418,-1.2585,-1.2782,-1.2986,-1.3307,-1.3434,-1.3594,-1.3741,-1.3741,-1.3741,-1.3741,-1.3741,-1.3614,-1.3467,-1.3467,-1.3253,-1.31,-1.34,-1.334,-1.318,-1.3053,-1.3026,-1.2993,-1.2872,-1.2852,-1.2608,-1.197,-1.1901,-1.1575,-1.0375,-1.0244,-0.9996,-0.9447,-0.9529,-0.9144,-0.7929,-0.7841,-0.7665,-0.7139,-0.7139,-0.7139,-0.7139,-0.7139,-0.7139,-0.7139,-0.7139,-0.7139,-0.7139,-0.7139,-0.7139,-0.7139,-0.7139,-0.7139,-0.7139,-0.7139,-0.7139,-1.541,-1.541,-1.541,-1.541,-1.5352,-1.505,-1.4204,-1.3425,-1.2723,-1.2274,-1.1829,-1.1538,-1.1777,-1.2064,-1.2271,-1.2298,-1.2305,-1.2305,-1.2305,-1.2305,-1.2305,-1.2305,-1.2305,-1.2412,-1.2755,-1.2808,-1.2866,-1.3146,-1.32,-1.3213,-1.3213,-1.3213,-1.3213,-1.3213,-1.2221,-1.1644,-1.1644,-1.1621,-1.1615,-1.1609,-1.237,-1.2782,-1.2782,-1.2782,-1.2782,-1.2768,-1.2418,-1.2305,-1.2305,-1.2305,-1.2305,-1.2305,-1.2305,-1.2305,-1.2305,-1.2305,-1.2305,-1.2338,-1.2612,-1.2802,-1.2869,-1.3073,-1.3186,-1.3213,-1.3213,-1.3213,-1.3213,-1.3213,-1.3186,-1.3166,-1.3166,-1.2939,-1.2856,-1.306,-1.3126,-1.3053,-1.2842,-1.2782,-1.2625,-1.2351,-1.2305,-1.2305,-1.2305,-1.2525,-1.24,-1.1331,-1.0772,-1.0398,-1.0335,-1.0529,-1.0322,-0.9122,-0.8952,-0.8428,-0.7379,-0.7105,-0.7099,-0.7099,-0.7112,-0.7122,-0.7122,-0.7132,-0.7139,-0.7139,-0.7139,-0.7139,-0.7139,-0.7139,-0.7139,-0.7139,-0.7126,-0.7119,-1.541,-1.541,-1.541,-1.541,-1.4932,-1.4085,-1.2618,-1.2197,-1.2035,-1.1924,-1.1946,-1.1947,-1.16,-1.1764,-1.2037,-1.2265,-1.2305,-1.2305,-1.2305,-1.2305,-1.2305,-1.2305,-1.2305,-1.2325,-1.2392,-1.2688,-1.2849,-1.2839,-1.3073,-1.3213,-1.3213,-1.3213,-1.3213,-1.3213,-1.2962,-1.2803,-1.2803,-1.2642,-1.2524,-1.2524,-1.2463,-1.2398,-1.2398,-1.2398,-1.2398,-1.2392,-1.2331,-1.2305,-1.2305,-1.2305,-1.2305,-1.2305,-1.2305,-1.2305,-1.2305,-1.2305,-1.2305,-1.2311,-1.2378,-1.2552,-1.2835,-1.2903,-1.3013,-1.3213,-1.3213,-1.3213,-1.3213,-1.3213,-1.3033,-1.2923,-1.2923,-1.2625,-1.2418,-1.2478,-1.2498,-1.2478,-1.2412,-1.2398,-1.2378,-1.2311,-1.2305,-1.2305,-1.2305,-1.2351,-1.2404,-1.2394,-1.2299,-1.1975,-1.1295,-1.1458,-1.1188,-1.002,-0.9172,-0.8666,-0.841,-0.7363,-0.6797,-0.6797,-0.6909,-0.6973,-0.6973,-0.7082,-0.7139,-0.7139,-0.7139,-0.7139,-0.7139,-0.7139,-0.7139,-0.7136,-0.7024,-0.74,-1.541,-1.541,-1.541,-1.541,-1.4805,-1.3906,-1.2634,-1.2081,-1.171,-1.1288,-1.1411,-1.1591,-1.1438,-1.167,-1.1964,-1.2258,-1.2305,-1.2305,-1.2305,-1.2305,-1.2305,-1.2305,-1.2305,-1.2305,-1.2305,-1.2445,-1.2532,-1.2532,-1.2685,-1.2772,-1.2772,-1.2772,-1.2772,-1.2772,-1.2772,-1.2772,-1.2772,-1.2612,-1.2532,-1.2532,-1.2378,-1.2305,-1.2305,-1.2305,-1.2305,-1.2305,-1.2305,-1.2305,-1.2305,-1.2305,-1.2305,-1.2305,-1.2305,-1.2305,-1.2305,-1.2305,-1.2305,-1.2305,-1.2305,-1.2405,-1.2532,-1.2532,-1.2645,-1.2772,-1.2772,-1.2772,-1.2772,-1.2772,-1.2659,-1.2532,-1.2532,-1.2418,-1.2305,-1.2305,-1.2305,-1.2305,-1.2305,-1.2305,-1.2305,-1.2305,-1.2305,-1.2305,-1.2305,-1.2305,-1.2351,-1.2512,-1.2728,-1.2639,-1.2161,-1.2344,-1.2101,-1.0942,-1.0367,-0.9625,-0.8555,-0.8222,-0.7922,-0.7435,-0.7927,-0.8062,-0.7567,-0.8062,-0.7932,-0.7136,-0.7139,-0.7139,-0.7139,-0.7139,-0.7278,-0.7722,-0.764,-0.8147,-1.541,-1.541,-1.5352,-1.5235,-1.4688,-1.3974,-1.3191,-1.2389,-1.1586,-1.0926,-1.0877,-1.1009,-1.1296,-1.1597,-1.1891,-1.2178,-1.2271,-1.2305,-1.2305,-1.2305,-1.2305,-1.2305,-1.2305,-1.2305,-1.2305,-1.2305,-1.2305,-1.2305,-1.2305,-1.2305,-1.2305,-1.2305,-1.2305,-1.2305,-1.2305,-1.2305,-1.2305,-1.2305,-1.2305,-1.2305,-1.2305,-1.2305,-1.2305,-1.2305,-1.2305,-1.2305,-1.2305,-1.2305,-1.2305,-1.2305,-1.2305,-1.2305,-1.2305,-1.2305,-1.2305,-1.2305,-1.2305,-1.2305,-1.2305,-1.2305,-1.2305,-1.2305,-1.2305,-1.2305,-1.2305,-1.2305,-1.2305,-1.2305,-1.2305,-1.2305,-1.2305,-1.2305,-1.2305,-1.2305,-1.2305,-1.2305,-1.2305,-1.2305,-1.2305,-1.2305,-1.2305,-1.2305,-1.2305,-1.2305,-1.2305,-1.2305,-1.2512,-1.2741,-1.2741,-1.2939,-1.2798,-1.1823,-1.1579,-1.0696,-0.8846,-0.9299,-0.9275,-0.8478,-0.9228,-0.9328,-0.844,-0.9285,-0.905,-0.7574,-0.741,-0.7323,-0.7323,-0.7323,-0.7771,-0.8645,-0.861,-0.9087,-1.541,-1.541,-1.5225,-1.451,-1.4273,-1.3974,-1.3191,-1.2389,-1.1772,-1.1648,-1.1136,-1.0708,-1.0995,-1.1289,-1.1583,-1.1877,-1.2138,-1.2305,-1.2305,-1.2305,-1.2305,-1.2305,-1.2305,-1.2305,-1.2305,-1.2305,-1.2305,-1.2305,-1.2305,-1.2305,-1.2305,-1.2305,-1.2305,-1.2305,-1.2305,-1.2305,-1.2305,-1.2305,-1.2305,-1.2305,-1.2305,-1.2305,-1.2305,-1.2305,-1.2305,-1.2305,-1.2305,-1.2305,-1.2305,-1.2305,-1.2305,-1.2305,-1.2305,-1.2305,-1.2305,-1.2305,-1.2305,-1.2305,-1.2305,-1.2305,-1.2305,-1.2305,-1.2305,-1.2305,-1.2305,-1.2305,-1.2305,-1.2305,-1.2305,-1.2305,-1.2305,-1.2305,-1.2305,-1.2305,-1.2305,-1.2305,-1.2305,-1.2305,-1.2305,-1.2305,-1.2305,-1.2305,-1.2305,-1.2305,-1.2305,-1.2305,-1.2338,-1.2365,-1.2365,-1.2625,-1.2806,-1.2645,-1.1791,-1.1086,-1.0846,-0.9879,-0.9311,-0.9153,-0.9398,-0.9498,-0.9345,-0.9606,-0.9572,-0.9379,-0.8482,-0.8073,-0.8073,-0.8073,-0.8552,-0.95,-0.9392,-0.9922,-1.541,-1.541,-1.5294,-1.4932,-1.4864,-1.4688,-1.3846,-1.3425,-1.287,-1.2012,-1.1531,-1.1199,-1.1001,-1.1096,-1.1336,-1.1797,-1.1977,-1.2118,-1.2278,-1.2305,-1.2305,-1.2305,-1.2305,-1.2305,-1.2305,-1.2305,-1.2305,-1.2305,-1.2305,-1.2305,-1.2305,-1.2305,-1.2305,-1.2305,-1.2305,-1.2305,-1.2305,-1.2305,-1.2305,-1.2305,-1.2305,-1.2305,-1.2305,-1.2305,-1.2305,-1.2305,-1.2305,-1.2305,-1.2305,-1.2305,-1.2305,-1.2305,-1.2305,-1.2305,-1.2305,-1.2305,-1.2305,-1.2305,-1.2305,-1.2659,-1.3025,-1.2445,-1.3018,-1.373,-1.2659,-1.2659,-1.2952,-1.2445,-1.2666,-1.2952,-1.2445,-1.2659,-1.2952,-1.2445,-1.2305,-1.2305,-1.2305,-1.2305,-1.2305,-1.2305,-1.2305,-1.2305,-1.2305,-1.2305,-1.2305,-1.2305,-1.2305,-1.2305,-1.2305,-1.2418,-1.2498,-1.2498,-1.2117,-1.1583,-1.1041,-1.1016,-1.072,-1.019,-1.0744,-1.0802,-1.0264,-1.0835,-1.0667,-0.9506,-0.9185,-0.9059,-0.9059,-0.9059,-0.9485,-1.0396,-1.0366,-1.0864,-1.541,-1.541,-1.541,-1.541,-1.541,-1.5235,-1.4628,-1.4332,-1.3846,-1.2687,-1.2074,-1.1667,-1.1281,-1.1066,-1.1136,-1.1577,-1.177,-1.1944,-1.2164,-1.2258,-1.2305,-1.2305,-1.2305,-1.2305,-1.2305,-1.2305,-1.2305,-1.2305,-1.2305,-1.2305,-1.2305,-1.2305,-1.2305,-1.2305,-1.2305,-1.2305,-1.2305,-1.2305,-1.2305,-1.2305,-1.2305,-1.2305,-1.2305,-1.2305,-1.2305,-1.2305,-1.2305,-1.2305,-1.2305,-1.2305,-1.2305,-1.2305,-1.2305,-1.2305,-1.2305,-1.2592,-1.2666,-1.2659,-1.2945,-1.352,-1.3954,-1.323,-1.4019,-1.495,-1.3448,-1.352,-1.3954,-1.3237,-1.3382,-1.3528,-1.2806,-1.3025,-1.3171,-1.2445,-1.2305,-1.2305,-1.2305,-1.2305,-1.2305,-1.2305,-1.2305,-1.2305,-1.2305,-1.2305,-1.2305,-1.2305,-1.2305,-1.2305,-1.2305,-1.2305,-1.2305,-1.2305,-1.2305,-1.1996,-1.1236,-1.1848,-1.1996,-1.1242,-1.1922,-1.1996,-1.1236,-1.1922,-1.1626,-1.0121,-1.0239,-1.0253,-1.0015,-1.0015,-1.0483,-1.1312,-1.1312,-1.1665,-1.541,-1.541,-1.541,-1.541,-1.541,-1.541,-1.5352,-1.4756,-1.4213,-1.4085,-1.2862,-1.1772,-1.1732,-1.1368,-1.1002,-1.1035,-1.1503,-1.187,-1.1891,-1.2131,-1.2305,-1.2305,-1.2305,-1.2305,-1.2305,-1.2305,-1.2305,-1.2305,-1.2305,-1.2305,-1.2305,-1.2305,-1.2305,-1.2305,-1.2305,-1.2305,-1.2305,-1.2305,-1.2305,-1.2305,-1.2305,-1.2305,-1.2305,-1.2305,-1.2305,-1.2305,-1.2305,-1.2305,-1.2305,-1.2305,-1.2305,-1.2305,-1.2305,-1.2305,-1.2445,-1.331,-1.36,-1.3745,-1.4736,-1.5092,-1.5092,-1.5092,-1.5092,-1.5163,-1.5092,-1.5092,-1.5092,-1.5092,-1.4378,-1.3673,-1.3673,-1.3025,-1.2372,-1.2305,-1.2305,-1.2305,-1.2305,-1.2305,-1.2305,-1.2305,-1.2305,-1.2305,-1.2305,-1.2305,-1.2305,-1.2305,-1.2305,-1.2305,-1.2305,-1.2305,-1.2305,-1.2305,-1.2305,-1.2305,-1.2224,-1.2305,-1.2305,-1.2224,-1.2305,-1.2305,-1.2224,-1.2305,-1.2224,-1.215,-1.2177,-1.1738,-1.0749,-1.0749,-1.1273,-1.2251,-1.2251,-1.2244,-1.541,-1.541,-1.541,-1.541,-1.541,-1.541,-1.541,-1.5167,-1.4815,-1.4332,-1.3304,-1.2389,-1.1896,-1.1192,-1.0775,-1.0962,-1.1329,-1.165,-1.1844,-1.2118,-1.2305,-1.2305,-1.2305,-1.2305,-1.2305,-1.2305,-1.2305,-1.2305,-1.2305,-1.2305,-1.2305,-1.2305,-1.2305,-1.2305,-1.2305,-1.2305,-1.2305,-1.2305,-1.2305,-1.2305,-1.2305,-1.2305,-1.2305,-1.2305,-1.2305,-1.2305,-1.2305,-1.2305,-1.2305,-1.2305,-1.2305,-1.2305,-1.2305,-1.2659,-1.3244,-1.36,-1.4099,-1.4736,-1.5092,-1.5579,-1.6,-1.5376,-1.6018,-1.6793,-1.5587,-1.5658,-1.6,-1.5376,-1.5384,-1.5242,-1.4027,-1.3954,-1.3882,-1.2592,-1.2305,-1.2305,-1.2305,-1.2305,-1.2305,-1.2305,-1.2305,-1.2305,-1.2305,-1.2305,-1.2305,-1.2305,-1.2305,-1.2305,-1.2305,-1.2305,-1.2305,-1.2305,-1.2305,-1.2305,-1.2305,-1.2305,-1.2305,-1.2305,-1.2305,-1.2305,-1.2305,-1.2305,-1.2305,-1.2305,-1.2305,-1.215,-1.1768,-1.1768,-1.1922,-1.2305,-1.2305,-1.2305,-1.541,-1.541,-1.541,-1.541,-1.541,-1.541,-1.541,-1.541,-1.5167,-1.4392,-1.3545,-1.2757,-1.1958,-1.117,-1.0685,-1.0815,-1.1089,-1.1383,-1.1677,-1.1971,-1.2191,-1.2291,-1.2305,-1.2305,-1.2305,-1.2305,-1.2305,-1.2305,-1.2305,-1.2305,-1.2305,-1.2305,-1.2305,-1.2305,-1.2305,-1.2305,-1.2305,-1.2305,-1.2305,-1.2305,-1.2305,-1.2305,-1.2305,-1.2305,-1.2305,-1.2305,-1.2305,-1.2305,-1.2305,-1.2305,-1.2305,-1.2305,-1.2305,-1.2879,-1.3745,-1.4099,-1.4807,-1.5728,-1.6018,-1.6576,-1.7001,-1.6367,-1.701,-1.7794,-1.6515,-1.6576,-1.6922,-1.6298,-1.6376,-1.6306,-1.5021,-1.4665,-1.4307,-1.2659,-1.2305,-1.2305,-1.2305,-1.2305,-1.2305,-1.2305,-1.2305,-1.2305,-1.2305,-1.2305,-1.2305,-1.2305,-1.2305,-1.2305,-1.2305,-1.2305,-1.2305,-1.2305,-1.2305,-1.2305,-1.2305,-1.2305,-1.2305,-1.2305,-1.2305,-1.2305,-1.2305,-1.2305,-1.2305,-1.2305,-1.2305,-1.2305,-1.2305,-1.2305,-1.2305,-1.2305,-1.2305,-1.2305,0.0,0.0,0.0,-1.543,-1.543,-1.543,-1.541,-1.541,-1.5167,-1.4392,-1.3606,-1.2757,-1.1958,-1.117,-1.0624,-1.0624,-1.0808,-1.1089,-1.1369,-1.1677,-1.1977,-1.2258,-1.2298,-1.2305,-1.2305,-1.2305,-1.2305,-1.2305,-1.2305,-1.2305,-1.2305,-1.2305,-1.2305,-1.2305,-1.2305,-1.2305,-1.2305,-1.2305,-1.2305,-1.2305,-1.2305,-1.2305,-1.2305,-1.2305,-1.2305,-1.2305,-1.2305,-1.2305,-1.2305,-1.2305,-1.2305,-1.2305,-1.2305,-1.2952,-1.3882,-1.4879,-1.586,-1.6784,-1.7647,-1.8008,-1.8008,-1.8008,-1.8008,-1.8008,-1.8008,-1.8008,-1.8008,-1.8008,-1.7354,-1.6636,-1.6636,-1.5155,-1.3455,-1.2592,-1.2298,-1.2305,-1.2305,-1.2305,-1.2305,-1.2305,-1.2305,-1.2305,-1.2305,-1.2305,-1.2305,-1.2305,-1.2305,-1.2305,-1.2305,-1.2305,-1.2305,-1.2305,-1.2305,-1.2305,-1.2305,-1.2305,-1.2305,-1.2305,-1.2305,-1.2305,-1.2305,-1.2305,-1.2305,-1.2305,-1.2305,-1.2305,-1.2305,-1.2305,-1.2305,-1.2305,-1.2305,-1.2305,-1.6402,0.0,0.0,0.0,0.0,0.0,-1.5488,-1.541,-1.5352,-1.5108,-1.3974,-1.2948,-1.2696,-1.1538,-1.0624,-1.0624,-1.0808,-1.1022,-1.1102,-1.155,-1.1897,-1.1984,-1.2178,-1.2305,-1.2305,-1.2305,-1.2305,-1.2305,-1.2305,-1.2305,-1.2305,-1.2305,-1.2305,-1.2305,-1.2305,-1.2305,-1.2305,-1.2305,-1.2305,-1.2305,-1.2305,-1.2305,-1.2305,-1.2305,-1.2305,-1.2305,-1.2305,-1.2305,-1.2305,-1.2305,-1.2305,-1.2372,-1.3025,-1.3954,-1.4879,-1.586,-1.6784,-1.7647,-1.794,-1.8008,-1.8008,-1.8008,-1.8008,-1.8008,-1.8008,-1.8008,-1.8008,-1.8008,-1.7794,-1.7432,-1.6775,-1.5155,-1.36,-1.3382,-1.2806,-1.2305,-1.2305,-1.2305,-1.2305,-1.2305,-1.2305,-1.2305,-1.2305,-1.2305,-1.2305,-1.2305,-1.2305,-1.2305,-1.2305,-1.2305,-1.2305,-1.2305,-1.2305,-1.2305,-1.2305,-1.2305,-1.2305,-1.2305,-1.2305,-1.2305,-1.2305,-1.2305,-1.2305,-1.2305,-1.2305,-1.2305,-1.2305,-1.2305,-1.2305,-1.2305,-1.2305,-1.2305,-1.7328,-1.7274,-1.7089,-1.652,0.0,0.0,-1.5781,-1.5684,-1.5566,-1.5029,-1.4145,-1.3304,-1.2634,-1.1717,-1.0982,-1.0618,-1.0701,-1.0855,-1.0975,-1.1289,-1.1597,-1.1837,-1.2017,-1.2171,-1.2291,-1.2305,-1.2305,-1.2305,-1.2305,-1.2305,-1.2305,-1.2305,-1.2305,-1.2305,-1.2305,-1.2305,-1.2305,-1.2305,-1.2305,-1.2305,-1.2305,-1.2305,-1.2305,-1.2305,-1.2305,-1.2305,-1.2305,-1.2305,-1.2305,-1.2305,-1.2305,-1.2372,-1.331,-1.4307,-1.5305,-1.628,-1.7217,-1.8008,-1.8008,-1.8008,-1.8008,-1.8008,-1.8008,-1.8008,-1.8008,-1.8008,-1.8008,-1.8008,-1.8008,-1.7794,-1.6853,-1.579,-1.4728,-1.3882,-1.331,-1.2813,-1.2372,-1.2305,-1.2305,-1.2305,-1.2305,-1.2305,-1.2305,-1.2305,-1.2305,-1.2305,-1.2305,-1.2305,-1.2305,-1.2305,-1.2305,-1.2305,-1.2305,-1.2305,-1.2305,-1.2305,-1.2305,-1.2305,-1.2305,-1.2305,-1.2305,-1.2305,-1.2305,-1.2305,-1.2305,-1.2305,-1.2305,-1.2305,-1.2305,-1.2305,-1.2305,-1.2305,-1.8129,-1.8019,-1.7833,-1.6997,-1.6807,0.0,-1.624,-1.6154,-1.5766,-1.4648,-1.43,-1.3777,-1.232,-1.2012,-1.1648,-1.0863,-1.0744,-1.0776,-1.0909,-1.0969,-1.1189,-1.171,-1.1797,-1.1931,-1.2225,-1.2258,-1.2265,-1.2298,-1.2305,-1.2285,-1.2258,-1.2258,-1.2238,-1.2204,-1.2204,-1.2204,-1.2204,-1.2238,-1.2258,-1.2258,-1.2285,-1.2305,-1.2305,-1.2305,-1.2305,-1.2305,-1.2305,-1.2305,-1.2305,-1.2445,-1.2372,-1.2372,-1.3455,-1.4386,-1.5305,-1.6358,-1.7285,-1.8008,-1.8008,-1.8008,-1.8008,-1.8008,-1.8008,-1.8008,-1.8008,-1.8008,-1.8008,-1.8008,-1.8008,-1.7794,-1.6991,-1.6706,-1.614,-1.4307,-1.3818,-1.3455,-1.2519,-1.2305,-1.2305,-1.2305,-1.2305,-1.2305,-1.2305,-1.2305,-1.2305,-1.2305,-1.2305,-1.2305,-1.2305,-1.2305,-1.2305,-1.2305,-1.2305,-1.2305,-1.2305,-1.2305,-1.2305,-1.2305,-1.2305,-1.2305,-1.2305,-1.2305,-1.2305,-1.2305,-1.2305,-1.2305,-1.2305,-1.2305,-1.2305,-1.2305,-1.2305,-1.2305,-1.8177,-1.8022,-1.7866,-1.7399,-1.7256,0.0,-1.6699,-1.6318,-1.6035,-1.5766,-1.492,-1.4085,-1.3786,-1.3183,-1.2512,-1.171,-1.1593,-1.1365,-1.0762,-1.0842,-1.1035,-1.1149,-1.1369,-1.163,-1.1924,-1.1951,-1.2051,-1.2285,-1.2305,-1.2204,-1.1964,-1.1951,-1.1844,-1.1603,-1.1597,-1.1597,-1.1597,-1.183,-1.1951,-1.1957,-1.2191,-1.2305,-1.2305,-1.2305,-1.2305,-1.2305,-1.2305,-1.2305,-1.2372,-1.3098,-1.2952,-1.2445,-1.4235,-1.5021,-1.5376,-1.7079,-1.7862,-1.8008,-1.8008,-1.8008,-1.8008,-1.8008,-1.8008,-1.8008,-1.8008,-1.8008,-1.8008,-1.8008,-1.8008,-1.794,-1.7794,-1.7148,-1.628,-1.5163,-1.4314,-1.3455,-1.2519,-1.2305,-1.2305,-1.2305,-1.2305,-1.2305,-1.2305,-1.2305,-1.2305,-1.2305,-1.2305,-1.2305,-1.2305,-1.2305,-1.2305,-1.2305,-1.2305,-1.2305,-1.2305,-1.2305,-1.2305,-1.2305,-1.2305,-1.2305,-1.2305,-1.2305,-1.2305,-1.2305,-1.2305,-1.2305,-1.2305,-1.2305,-1.2305,-1.2305,-1.2305,-1.2305,-2.0004,-1.9628,-1.9125,-1.8512,-1.8019,0.0,0.0,-1.6885,-1.666,-1.6436,-1.5731,-1.4995,-1.4632,-1.4038,-1.3364,-1.2512,-1.2081,-1.1648,-1.1288,-1.0994,-1.0828,-1.0975,-1.1122,-1.1323,-1.1617,-1.165,-1.171,-1.185,-1.1864,-1.1804,-1.1657,-1.165,-1.1583,-1.143,-1.1423,-1.1423,-1.1423,-1.1577,-1.1724,-1.187,-1.2017,-1.2164,-1.2305,-1.2305,-1.2305,-1.2305,-1.2305,-1.2592,-1.3025,-1.3528,-1.3738,-1.3875,-1.5367,-1.593,-1.6079,-1.751,-1.8008,-1.8008,-1.8008,-1.8008,-1.8008,-1.8008,-1.8008,-1.8008,-1.8008,-1.8008,-1.8008,-1.8008,-1.8008,-1.8008,-1.8008,-1.7647,-1.707,-1.6149,-1.5163,-1.4171,-1.3237,-1.2666,-1.2305,-1.2305,-1.2305,-1.2305,-1.2305,-1.2305,-1.2305,-1.2305,-1.2305,-1.2305,-1.2305,-1.2305,-1.2305,-1.2305,-1.2305,-1.2305,-1.2305,-1.2305,-1.2305,-1.2305,-1.2305,-1.2305,-1.2305,-1.2305,-1.2305,-1.2305,-1.2305,-1.2305,-1.2305,-1.2305,-1.2305,-1.2305,-1.2305,-1.2305,-2.1278,-2.0842,-2.0139,-1.9299,-1.8529,-1.792,0.0,0.0,0.0,-1.6924,-1.6436,-1.5872,-1.5241,-1.4726,-1.4172,-1.3466,-1.2736,-1.222,-1.2166,-1.1563,-1.1106,-1.1028,-1.0942,-1.1049,-1.1396,-1.1423,-1.1423,-1.1423,-1.1423,-1.1403,-1.1349,-1.1343,-1.1316,-1.1263,-1.1263,-1.1263,-1.1263,-1.1316,-1.1463,-1.1703,-1.1817,-1.1991,-1.2218,-1.2278,-1.2305,-1.2305,-1.2305,-1.2806,-1.3745,-1.3882,-1.4593,-1.5517,-1.628,-1.6636,-1.6706,-1.7647,-1.8008,-1.8008,-1.8008,-1.8008,-1.8008,-1.8008,-1.8008,-1.8008,-1.8008,-1.8008,-1.8008,-1.8008,-1.8008,-1.8008,-1.8008,-1.8008,-1.7794,-1.6844,-1.586,-1.495,-1.3882,-1.2952,-1.2305,-1.2305,-1.2305,-1.2305,-1.2305,-1.2305,-1.2305,-1.2305,-1.2305,-1.2305,-1.2305,-1.2305,-1.2305,-1.2305,-1.2305,-1.2305,-1.2305,-1.2305,-1.2305,-1.2305,-1.2305,-1.2305,-1.2305,-1.2305,-1.2305,-1.2305,-1.2305,-1.2305,-1.2305,-1.2305,-1.2305,-1.2305,-1.2305,-1.2305,-1.9174,-1.9178,-1.9233,-1.8405,-1.8076,-1.7998,-1.7949,0.0,-1.7373,-1.7314,0.0,-1.6064,-1.5994,0.0,0.0,-1.4744,-1.4257,-1.3778,-1.343,-1.3353,-1.267,-1.1179,-1.0768,-1.0822,-1.1369,-1.1423,-1.1423,-1.1423,-1.1423,-1.1316,-1.1056,-1.1042,-1.0922,-1.0668,-1.0719,-1.0719,-1.0719,-1.0915,-1.1056,-1.1096,-1.1623,-1.1891,-1.1924,-1.2184,-1.2305,-1.2305,-1.2305,-1.2806,-1.3745,-1.4665,-1.5579,-1.6419,-1.6567,-1.6636,-1.6706,-1.7647,-1.8008,-1.8008,-1.8008,-1.8008,-1.8008,-1.8008,-1.8008,-1.8008,-1.8008,-1.8008,-1.8008,-1.8008,-1.8008,-1.8008,-1.8008,-1.8008,-1.7794,-1.6844,-1.586,-1.495,-1.3882,-1.2952,-1.2305,-1.2305,-1.2305,-1.2305,-1.2305,-1.2305,-1.2305,-1.2305,-1.2305,-1.2305,-1.2305,-1.2305,-1.2305,-1.2305,-1.2305,-1.2305,-1.2305,-1.2305,-1.2305,-1.2305,-1.2305,-1.2305,-1.2305,-1.2305,-1.2305,-1.2305,-1.2305,-1.2305,-1.2305,-1.2305,-1.2305,-1.2305,-1.2305,-1.2305,-2.0133,-1.9809,-1.9533,-1.8916,-1.8215,-1.7705,-1.7959,-1.7871,-1.7744,-1.7744,0.0,0.0,0.0,0.0,0.0,0.0,-1.4621,-1.4228,-1.4364,-1.3916,-1.3156,-1.1877,-1.1811,-1.1751,-1.1236,-1.1022,-1.0922,-1.0922,-1.0922,-1.0868,-1.0748,-1.0742,-1.0752,-1.0624,-1.0624,-1.0624,-1.0624,-1.0681,-1.0828,-1.0995,-1.1416,-1.1703,-1.1877,-1.2171,-1.2305,-1.2305,-1.2879,-1.3665,-1.4665,-1.5579,-1.6576,-1.7432,-1.7432,-1.7432,-1.7432,-1.7862,-1.8008,-1.8008,-1.8008,-1.8008,-1.8008,-1.8008,-1.8008,-1.8008,-1.8008,-1.8008,-1.8008,-1.8008,-1.8008,-1.8008,-1.8008,-1.8008,-1.7862,-1.7501,-1.6715,-1.572,-1.4807,-1.381,-1.2952,-1.2445,-1.2305,-1.2305,-1.2305,-1.2305,-1.2305,-1.2305,-1.2305,-1.2305,-1.2305,-1.2305,-1.2305,-1.2305,-1.2305,-1.2305,-1.2305,-1.2305,-1.2305,-1.2305,-1.2305,-1.2305,-1.2305,-1.2305,-1.2305,-1.2305,-1.2305,-1.2305,-1.2305,-1.2305,-1.2305,-1.2305,-1.2305,-1.2305,-2.0429,-2.0064,-1.968,-1.8971,-1.8141,-1.7637,-1.7939,-1.8008,-1.8008,-1.8008,-1.7422,0.0,0.0,0.0,-1.5586,-1.5586,0.0,-1.4884,-1.53,-1.4935,-1.4221,-1.3045,-1.2869,-1.2476,-1.1351,-1.0873,-1.0624,-1.0624,-1.0624,-1.0624,-1.0624,-1.0807,-1.0807,-1.0624,-1.08,-1.0807,-1.0624,-1.0624,-1.0732,-1.0875,-1.1169,-1.1463,-1.1757,-1.2051,-1.2225,-1.2378,-1.331,-1.4243,-1.5305,-1.621,-1.7139,-1.8008,-1.8008,-1.8008,-1.8008,-1.8008,-1.8008,-1.8008,-1.8008,-1.8008,-1.8008,-1.8008,-1.8008,-1.8008,-1.8008,-1.8008,-1.8008,-1.8008,-1.8008,-1.8008,-1.8008,-1.8008,-1.8008,-1.8008,-1.7285,-1.6419,-1.572,-1.4807,-1.381,-1.2879,-1.2666,-1.2592,-1.2372,-1.2305,-1.2305,-1.2305,-1.2305,-1.2305,-1.2305,-1.2305,-1.2305,-1.2305,-1.2305,-1.2305,-1.2305,-1.2305,-1.2305,-1.2305,-1.2305,-1.2305,-1.2305,-1.2305,-1.2305,-1.2305,-1.2305,-1.2305,-1.2305,-1.2305,-1.2305,-1.2305,-1.2305,-1.2305,-1.8817,-1.9052,-1.9342,-1.783,-1.7695,-1.7988,-1.8008,-1.8008,-1.8008,-1.8008,-1.7666,-1.7236,-1.6807,-1.6357,-1.6105,-1.6105,-1.6045,0.0,0.0,-1.7006,-1.6647,-1.4849,-1.3624,-1.2578,-1.1854,-1.1052,-1.0624,-1.0624,-1.0624,-1.0624,-1.0624,-1.1351,-1.1406,-1.0624,-1.1351,-1.1413,-1.0624,-1.0624,-1.0624,-1.0645,-1.0868,-1.1156,-1.145,-1.175,-1.2037,-1.2378,-1.331,-1.4243,-1.5305,-1.621,-1.7139,-1.8008,-1.8008,-1.8008,-1.8008,-1.8008,-1.8008,-1.8008,-1.8008,-1.8008,-1.8008,-1.8008,-1.8008,-1.8008,-1.8008,-1.8008,-1.8008,-1.8008,-1.8008,-1.8008,-1.8008,-1.8008,-1.8008,-1.8008,-1.7285,-1.6558,-1.6567,-1.579,-1.4879,-1.3818,-1.3673,-1.3382,-1.2445,-1.2305,-1.2305,-1.2305,-1.2305,-1.2305,-1.2305,-1.2305,-1.2305,-1.2305,-1.2305,-1.2305,-1.2305,-1.2305,-1.2305,-1.2305,-1.2305,-1.2305,-1.2305,-1.2305,-1.2305,-1.2305,-1.2305,-1.2305,-1.2305,-1.2305,-1.2305,-1.2305,-1.2305,-1.2305,-1.9344,-1.9308,-1.9308,-1.8019,-1.7563,-1.7417,-1.7219,-1.7158,-1.7158,-1.7158,-1.6816,-1.6465,-1.6318,-1.5928,-1.5635,-1.5635,-1.5635,-1.5889,0.0,-1.7353,-1.7378,-1.6132,-1.4626,-1.3443,-1.2893,-1.1969,-1.1406,-1.1406,-1.1406,-1.1406,-1.1406,-1.2143,-1.2451,-1.2212,-1.2451,-1.2451,-1.2212,-1.1655,-1.1406,-1.1413,-1.1101,-1.1142,-1.1436,-1.173,-1.2377,-1.331,-1.4243,-1.5226,-1.621,-1.7148,-1.7716,-1.8008,-1.8008,-1.8008,-1.8008,-1.8008,-1.8008,-1.8008,-1.8008,-1.8008,-1.8008,-1.8008,-1.8008,-1.8008,-1.8008,-1.8008,-1.8008,-1.8008,-1.8008,-1.8008,-1.8008,-1.8008,-1.8008,-1.8008,-1.7794,-1.7364,-1.6706,-1.6349,-1.586,-1.4879,-1.4665,-1.4378,-1.3382,-1.3237,-1.3025,-1.2372,-1.2305,-1.2305,-1.2305,-1.2305,-1.2305,-1.2305,-1.2305,-1.2305,-1.2305,-1.2305,-1.2305,-1.2305,-1.2305,-1.2305,-1.2305,-1.2305,-1.2305,-1.2305,-1.2305,-1.2305,-1.2305,-1.2305,-1.2305,-1.2305,-1.2305,-1.2305,-1.9389,-1.9313,-1.9202,-1.7888,-1.7517,-1.7265,-1.6786,-1.6665,-1.6665,-1.6665,-1.6504,-1.625,-1.6154,-1.583,-1.5596,-1.5439,-1.5537,-1.5898,0.0,-1.7207,-1.7295,-1.6582,-1.5378,-1.4345,-1.3772,-1.2825,-1.2205,-1.2205,-1.2205,-1.2205,-1.2205,-1.3,-1.3312,-1.3009,-1.3312,-1.3312,-1.3009,-1.2512,-1.2205,-1.2205,-1.187,-1.1819,-1.2136,-1.2521,-1.3182,-1.4064,-1.5176,-1.607,-1.6636,-1.7579,-1.8008,-1.8008,-1.8008,-1.8008,-1.8008,-1.8008,-1.8008,-1.8008,-1.8008,-1.8008,-1.8008,-1.8008,-1.8008,-1.8008,-1.8008,-1.8008,-1.8008,-1.8008,-1.8008,-1.8008,-1.8008,-1.8008,-1.8008,-1.8008,-1.8008,-1.7862,-1.7217,-1.707,-1.6784,-1.586,-1.572,-1.5376,-1.4378,-1.3954,-1.3382,-1.2445,-1.2305,-1.2305,-1.2305,-1.2305,-1.2305,-1.2305,-1.2305,-1.2305,-1.2305,-1.2305,-1.2305,-1.2305,-1.2305,-1.2305,-1.2305,-1.2305,-1.2305,-1.2305,-1.2305,-1.2305,-1.2305,-1.2305,-1.2305,-1.2305,-1.2305,-1.2305]},{"header":{"parameterUnit":"m.s-1","parameterCategory":1,"la1":30.6,"la2":29.2853,"lo1":-89.7004,"lo2":-87.6739,"dy":0.0162,"dx":0.0183,"nx":112,"ny":82,"refTime":"2023-07-11T06:00:00:Z","depth":0,"parameterNumber":3,"parameterNumberName":"V-component_of_WINDS"},"data":[0.0,0.0,0.0,0.0,0.0,0.0,0.0,0.0,0.0,0.0,0.0,0.0,0.0,0.0,0.0,0.0,0.0,0.0,0.0,0.0,0.0,0.0,0.0,0.0,0.0,0.0,0.0,0.0,0.0,0.0,0.0,0.0,0.0,0.0,0.0,0.0,0.0,0.0,0.0,0.0,0.0,0.0,0.0,0.0,0.0,0.0,0.0,0.0,0.0,0.0,0.0,0.0,0.0,0.0,0.0,0.0,0.0,0.0,0.0,0.0,0.0,0.0,0.0,0.0,0.0,0.0,0.0,0.0,0.0,0.0,0.0,0.0,0.0,0.0,0.0,0.0,0.0,0.0,0.0,0.0,0.0,0.0,0.0,0.0,0.0,0.0,0.0,0.0,0.0,0.0,-3.5493,-3.5493,-3.5493,-3.5493,-3.5493,-3.5493,-3.5493,-3.5493,0.0,0.0,0.0,0.0,0.0,0.0,0.0,0.0,0.0,0.0,0.0,0.0,0.0,0.0,0.0,0.0,0.0,0.0,0.0,0.0,0.0,0.0,0.0,0.0,0.0,0.0,0.0,0.0,0.0,0.0,0.0,0.0,0.0,0.0,0.0,0.0,0.0,0.0,0.0,0.0,0.0,0.0,0.0,0.0,0.0,0.0,0.0,0.0,0.0,0.0,0.0,0.0,0.0,0.0,0.0,0.0,0.0,0.0,0.0,0.0,0.0,0.0,0.0,0.0,0.0,0.0,0.0,0.0,0.0,0.0,0.0,0.0,0.0,0.0,0.0,0.0,0.0,0.0,0.0,0.0,0.0,0.0,0.0,0.0,0.0,0.0,0.0,0.0,0.0,0.0,0.0,0.0,0.0,0.0,0.0,0.0,0.0,0.0,0.0,0.0,0.0,0.0,0.0,0.0,-3.5493,-3.5493,-3.5493,-3.5493,-3.5493,-3.5493,-3.5493,-3.5493,0.0,0.0,0.0,0.0,0.0,0.0,0.0,0.0,0.0,0.0,0.0,0.0,0.0,0.0,0.0,0.0,0.0,0.0,0.0,0.0,0.0,0.0,0.0,0.0,0.0,0.0,0.0,0.0,0.0,0.0,0.0,0.0,0.0,0.0,0.0,0.0,0.0,0.0,0.0,0.0,0.0,0.0,0.0,0.0,0.0,0.0,0.0,0.0,0.0,0.0,0.0,0.0,0.0,0.0,0.0,0.0,0.0,0.0,0.0,0.0,0.0,0.0,0.0,0.0,0.0,0.0,0.0,0.0,0.0,0.0,0.0,0.0,0.0,0.0,0.0,0.0,0.0,0.0,0.0,0.0,0.0,0.0,0.0,0.0,0.0,0.0,0.0,0.0,0.0,0.0,0.0,0.0,0.0,0.0,0.0,0.0,0.0,0.0,0.0,0.0,0.0,0.0,0.0,-3.5493,-3.5493,-3.5493,-3.5493,-3.5493,-3.5493,-3.5493,-3.5493,-3.5493,-3.5493,0.0,0.0,0.0,0.0,0.0,0.0,0.0,0.0,0.0,0.0,0.0,0.0,0.0,0.0,0.0,0.0,0.0,0.0,0.0,0.0,0.0,0.0,0.0,0.0,0.0,0.0,0.0,0.0,0.0,0.0,0.0,0.0,0.0,0.0,0.0,0.0,0.0,0.0,0.0,0.0,0.0,0.0,0.0,0.0,0.0,0.0,0.0,0.0,0.0,0.0,0.0,0.0,0.0,0.0,0.0,0.0,0.0,0.0,0.0,0.0,0.0,0.0,0.0,0.0,0.0,0.0,0.0,0.0,0.0,0.0,0.0,0.0,0.0,0.0,0.0,0.0,0.0,0.0,0.0,0.0,0.0,0.0,0.0,0.0,0.0,0.0,0.0,0.0,0.0,0.0,0.0,0.0,0.0,0.0,0.0,0.0,0.0,0.0,0.0,0.0,0.0,0.0,-3.5493,-3.5493,-3.5493,-3.5493,-3.5493,-3.5493,-3.5493,-3.5493,-3.5493,-3.5493,0.0,0.0,0.0,0.0,0.0,0.0,0.0,0.0,0.0,0.0,0.0,0.0,0.0,0.0,0.0,0.0,0.0,0.0,0.0,0.0,0.0,0.0,0.0,0.0,0.0,0.0,0.0,0.0,0.0,0.0,0.0,0.0,0.0,0.0,0.0,0.0,0.0,0.0,0.0,0.0,0.0,0.0,0.0,0.0,0.0,0.0,0.0,0.0,0.0,0.0,0.0,0.0,0.0,0.0,0.0,0.0,0.0,0.0,0.0,0.0,0.0,0.0,0.0,0.0,0.0,0.0,0.0,0.0,0.0,0.0,0.0,0.0,0.0,0.0,0.0,0.0,0.0,0.0,0.0,0.0,0.0,0.0,0.0,0.0,0.0,0.0,0.0,0.0,0.0,0.0,0.0,0.0,0.0,0.0,0.0,0.0,0.0,0.0,0.0,0.0,0.0,0.0,-3.5493,-3.5493,-3.5493,-3.5493,-3.5493,-3.5493,-3.5493,-3.5493,-3.5493,-3.5493,0.0,0.0,0.0,0.0,0.0,0.0,0.0,0.0,0.0,0.0,0.0,0.0,0.0,0.0,0.0,0.0,0.0,0.0,0.0,0.0,0.0,0.0,0.0,0.0,0.0,0.0,0.0,0.0,0.0,0.0,0.0,0.0,0.0,0.0,0.0,0.0,0.0,0.0,0.0,0.0,0.0,0.0,0.0,0.0,0.0,0.0,0.0,0.0,0.0,0.0,0.0,0.0,0.0,0.0,0.0,0.0,0.0,0.0,0.0,0.0,0.0,0.0,0.0,0.0,0.0,0.0,0.0,0.0,0.0,0.0,0.0,0.0,0.0,0.0,0.0,0.0,0.0,0.0,0.0,0.0,0.0,0.0,0.0,0.0,0.0,0.0,0.0,0.0,0.0,0.0,0.0,0.0,0.0,0.0,0.0,0.0,0.0,0.0,0.0,0.0,0.0,0.0,-3.5493,-3.5493,-3.5493,-3.5493,-3.5493,-3.5493,-3.5493,-3.5493,-3.5493,0.0,0.0,0.0,0.0,0.0,0.0,0.0,0.0,0.0,0.0,0.0,0.0,0.0,0.0,0.0,0.0,0.0,0.0,0.0,0.0,0.0,0.0,0.0,0.0,0.0,0.0,0.0,0.0,0.0,0.0,0.0,0.0,0.0,0.0,0.0,0.0,0.0,0.0,0.0,0.0,0.0,0.0,0.0,0.0,0.0,0.0,0.0,0.0,0.0,0.0,0.0,0.0,0.0,0.0,0.0,0.0,0.0,0.0,0.0,0.0,0.0,0.0,0.0,0.0,0.0,0.0,0.0,0.0,0.0,0.0,0.0,0.0,0.0,0.0,0.0,0.0,0.0,0.0,0.0,0.0,0.0,0.0,0.0,0.0,0.0,0.0,0.0,0.0,0.0,0.0,0.0,0.0,0.0,0.0,0.0,0.0,0.0,0.0,0.0,0.0,0.0,0.0,-3.5493,-3.5493,-3.5493,-3.5493,-3.5493,-3.5493,-3.5493,-3.5493,-3.5493,-3.5493,0.0,0.0,0.0,0.0,0.0,0.0,0.0,0.0,0.0,0.0,0.0,0.0,0.0,0.0,0.0,0.0,0.0,0.0,0.0,0.0,0.0,0.0,0.0,0.0,0.0,0.0,0.0,0.0,0.0,0.0,0.0,0.0,0.0,0.0,0.0,0.0,0.0,0.0,0.0,0.0,0.0,0.0,0.0,0.0,0.0,0.0,0.0,0.0,0.0,0.0,0.0,0.0,0.0,0.0,0.0,0.0,0.0,0.0,0.0,0.0,0.0,0.0,0.0,0.0,0.0,0.0,0.0,0.0,0.0,0.0,0.0,0.0,0.0,0.0,0.0,0.0,0.0,0.0,0.0,0.0,0.0,0.0,0.0,0.0,0.0,0.0,0.0,0.0,0.0,0.0,0.0,0.0,0.0,0.0,0.0,0.0,0.0,0.0,0.0,0.0,0.0,0.0,-3.5493,-3.5493,-3.5493,-3.5493,-3.5493,-3.5493,-3.5493,-3.5493,-3.5493,0.0,0.0,0.0,0.0,0.0,0.0,0.0,0.0,0.0,0.0,0.0,0.0,0.0,0.0,0.0,0.0,0.0,0.0,0.0,0.0,0.0,0.0,0.0,0.0,0.0,0.0,0.0,0.0,0.0,0.0,0.0,0.0,0.0,0.0,0.0,0.0,0.0,0.0,0.0,0.0,0.0,0.0,0.0,0.0,0.0,0.0,0.0,0.0,0.0,0.0,0.0,0.0,0.0,0.0,0.0,0.0,0.0,0.0,0.0,0.0,0.0,0.0,0.0,0.0,0.0,0.0,0.0,0.0,0.0,0.0,0.0,0.0,0.0,0.0,0.0,0.0,0.0,0.0,0.0,0.0,0.0,0.0,0.0,0.0,0.0,0.0,0.0,0.0,0.0,0.0,0.0,0.0,0.0,0.0,0.0,0.0,0.0,0.0,0.0,0.0,0.0,0.0,0.0,-3.5493,-3.5493,-3.5493,-3.5493,-3.5493,-3.5493,-3.5493,-3.5493,-3.5493,-3.5493,0.0,0.0,0.0,0.0,0.0,0.0,0.0,0.0,0.0,0.0,0.0,0.0,0.0,0.0,0.0,0.0,0.0,0.0,0.0,0.0,0.0,0.0,0.0,0.0,0.0,0.0,0.0,0.0,0.0,0.0,0.0,0.0,0.0,0.0,0.0,0.0,0.0,0.0,0.0,0.0,0.0,0.0,0.0,0.0,0.0,0.0,0.0,0.0,0.0,0.0,0.0,0.0,0.0,0.0,0.0,0.0,0.0,0.0,0.0,0.0,0.0,0.0,0.0,0.0,0.0,0.0,0.0,0.0,0.0,0.0,0.0,0.0,0.0,0.0,0.0,0.0,0.0,0.0,0.0,0.0,0.0,0.0,0.0,0.0,0.0,0.0,0.0,0.0,0.0,0.0,0.0,0.0,0.0,0.0,0.0,0.0,0.0,0.0,0.0,0.0,0.0,0.0,-3.5493,-3.5493,-3.5493,-3.5493,-3.5493,-3.5493,-3.5493,-3.5493,-3.5493,-3.5493,0.0,0.0,0.0,0.0,0.0,0.0,0.0,0.0,0.0,0.0,0.0,0.0,0.0,0.0,0.0,0.0,0.0,0.0,0.0,0.0,0.0,0.0,0.0,0.0,0.0,0.0,0.0,0.0,0.0,0.0,0.0,0.0,0.0,0.0,0.0,0.0,0.0,0.0,0.0,0.0,0.0,0.0,0.0,0.0,0.0,0.0,0.0,0.0,0.0,0.0,0.0,0.0,0.0,0.0,0.0,0.0,0.0,0.0,0.0,0.0,0.0,0.0,0.0,0.0,0.0,0.0,0.0,0.0,0.0,0.0,0.0,0.0,0.0,0.0,0.0,0.0,0.0,0.0,0.0,0.0,0.0,0.0,0.0,0.0,0.0,0.0,0.0,0.0,0.0,0.0,0.0,0.0,0.0,0.0,0.0,0.0,0.0,0.0,0.0,0.0,0.0,0.0,-3.5493,-3.5493,-3.5493,-3.5493,-3.5493,-3.5493,-3.5493,-3.5493,-3.5493,-3.5493,0.0,0.0,0.0,0.0,0.0,0.0,0.0,0.0,0.0,0.0,0.0,0.0,0.0,0.0,0.0,0.0,0.0,0.0,0.0,0.0,0.0,0.0,0.0,0.0,0.0,0.0,0.0,0.0,0.0,0.0,0.0,0.0,0.0,0.0,0.0,0.0,0.0,0.0,0.0,0.0,0.0,0.0,0.0,0.0,0.0,0.0,0.0,0.0,0.0,0.0,0.0,0.0,0.0,0.0,0.0,0.0,0.0,0.0,0.0,0.0,-3.4962,-3.519,0.0,0.0,0.0,0.0,0.0,0.0,0.0,0.0,0.0,0.0,0.0,0.0,0.0,0.0,0.0,0.0,0.0,0.0,0.0,0.0,0.0,0.0,0.0,0.0,0.0,0.0,0.0,0.0,0.0,0.0,0.0,0.0,0.0,0.0,0.0,0.0,0.0,0.0,0.0,0.0,-3.5493,-3.5493,-3.5493,-3.5493,-3.5493,-3.5493,-3.5493,-3.5493,-3.5493,-3.5493,-3.5493,0.0,0.0,0.0,0.0,0.0,0.0,0.0,0.0,0.0,0.0,0.0,0.0,0.0,0.0,0.0,0.0,0.0,0.0,0.0,0.0,0.0,0.0,0.0,0.0,0.0,0.0,0.0,0.0,0.0,0.0,0.0,0.0,0.0,0.0,0.0,0.0,0.0,0.0,0.0,0.0,0.0,0.0,0.0,0.0,0.0,0.0,0.0,0.0,0.0,0.0,0.0,0.0,0.0,0.0,0.0,0.0,0.0,0.0,0.0,-3.4962,-3.5105,0.0,0.0,0.0,0.0,0.0,0.0,0.0,0.0,0.0,0.0,0.0,0.0,0.0,0.0,0.0,0.0,0.0,0.0,0.0,0.0,0.0,0.0,0.0,0.0,0.0,0.0,0.0,0.0,0.0,0.0,0.0,0.0,0.0,0.0,0.0,0.0,0.0,0.0,0.0,0.0,-3.5493,-3.5493,-3.5493,-3.5493,-3.5493,-3.5493,-3.5493,-3.5493,-3.5493,-3.5493,-3.5545,0.0,0.0,0.0,0.0,0.0,0.0,0.0,0.0,0.0,0.0,0.0,0.0,0.0,0.0,0.0,0.0,0.0,0.0,0.0,0.0,0.0,0.0,0.0,0.0,0.0,0.0,0.0,0.0,0.0,0.0,0.0,0.0,0.0,0.0,0.0,0.0,0.0,0.0,0.0,0.0,0.0,0.0,0.0,0.0,0.0,0.0,0.0,0.0,0.0,0.0,0.0,0.0,0.0,-3.442,-3.4548,-3.4548,-3.4548,-3.4694,-3.4944,-3.4999,-3.5088,-3.519,-3.5417,0.0,0.0,0.0,0.0,0.0,0.0,0.0,0.0,0.0,0.0,0.0,0.0,0.0,0.0,0.0,0.0,0.0,0.0,0.0,0.0,0.0,0.0,-3.5493,-3.5493,-3.5493,-3.5493,-3.5493,0.0,0.0,0.0,0.0,0.0,0.0,0.0,0.0,0.0,0.0,0.0,-3.5493,-3.5493,-3.5493,-3.5493,-3.5493,-3.5493,-3.5493,-3.5526,-3.5526,-3.5526,-3.5584,-3.5592,0.0,0.0,0.0,0.0,0.0,0.0,0.0,0.0,0.0,0.0,0.0,0.0,0.0,0.0,0.0,0.0,0.0,0.0,0.0,0.0,0.0,0.0,0.0,0.0,0.0,0.0,0.0,0.0,0.0,0.0,0.0,0.0,-3.3807,-3.3807,0.0,0.0,0.0,0.0,0.0,0.0,0.0,0.0,0.0,0.0,0.0,0.0,0.0,-3.4348,-3.3807,-3.4068,-3.4074,-3.3868,-3.3895,-3.3902,-3.3902,-3.3902,-3.4043,-3.4338,-3.4634,0.0,-3.5446,-3.5493,0.0,0.0,0.0,0.0,0.0,0.0,0.0,0.0,0.0,0.0,0.0,0.0,0.0,0.0,0.0,0.0,0.0,0.0,0.0,0.0,0.0,0.0,-3.5493,-3.5493,-3.5493,-3.5493,-3.5493,-3.5493,-3.5493,-3.5493,-3.5493,-3.5493,0.0,0.0,0.0,0.0,0.0,0.0,-3.5493,-3.5493,-3.5493,-3.5493,-3.5493,-3.5493,-3.5493,-3.5565,-3.5603,-3.5603,-3.5661,-3.5674,-3.5679,-3.5678,0.0,0.0,0.0,0.0,0.0,0.0,0.0,0.0,0.0,0.0,0.0,0.0,0.0,0.0,0.0,0.0,0.0,0.0,0.0,0.0,0.0,0.0,0.0,0.0,0.0,0.0,0.0,0.0,0.0,-3.3807,-3.3807,-3.3807,-3.3807,-3.3807,0.0,0.0,0.0,0.0,0.0,0.0,0.0,0.0,0.0,-3.3788,-3.4055,-3.408,-3.3788,-3.4068,-3.4147,-3.4018,-3.4213,-3.4325,-3.4325,-3.4325,-3.4464,-3.4716,-3.487,-3.5138,-3.5493,-3.5493,-3.5493,-3.5493,0.0,0.0,0.0,0.0,-3.5493,-3.5493,-3.5493,-3.5493,-3.5493,-3.5493,0.0,0.0,0.0,0.0,0.0,0.0,0.0,-3.5493,-3.5493,-3.5493,-3.5493,-3.5493,-3.5493,-3.5493,-3.5493,-3.5493,-3.5493,-3.5493,-3.5493,-3.5493,-3.5493,-3.5493,0.0,0.0,0.0,-3.5493,-3.5493,-3.5493,-3.5493,-3.5493,-3.5493,-3.5493,-3.5493,-3.5565,-3.5603,-3.5603,-3.5738,-3.5774,-3.5696,-3.5801,-3.585,0.0,0.0,0.0,0.0,0.0,0.0,0.0,0.0,0.0,0.0,0.0,0.0,0.0,0.0,0.0,0.0,0.0,0.0,0.0,0.0,0.0,0.0,0.0,0.0,0.0,0.0,0.0,0.0,-3.3807,-3.3807,-3.3807,-3.3807,-3.3807,0.0,0.0,0.0,0.0,0.0,0.0,-3.3807,-3.3807,-3.3807,-3.3807,-3.3868,-3.3902,-3.3902,-3.4189,-3.4334,-3.4334,-3.4572,-3.4694,-3.4694,-3.4694,-3.4851,-3.5105,-3.5105,-3.5239,-3.5493,-3.5493,-3.5493,-3.5493,-3.5493,-3.5493,-3.5493,-3.5493,-3.5493,-3.5493,-3.5493,-3.5493,-3.5493,-3.5493,-3.5493,-3.5493,-3.5493,0.0,0.0,0.0,0.0,-3.5493,-3.5493,-3.5493,-3.5493,-3.5493,-3.5493,-3.5493,-3.5493,-3.5493,-3.5493,-3.5493,-3.5493,-3.5493,-3.5493,-3.5493,0.0,-3.5493,-3.5493,-3.5493,-3.5493,-3.5493,-3.5493,-3.5493,-3.5526,-3.5545,-3.5545,-3.5622,-3.568,-3.568,-3.5825,-3.587,-3.5783,-3.5929,-3.5985,-3.5931,0.0,0.0,0.0,0.0,0.0,0.0,0.0,0.0,0.0,0.0,0.0,0.0,0.0,0.0,0.0,0.0,0.0,0.0,0.0,0.0,0.0,0.0,0.0,0.0,0.0,0.0,0.0,0.0,0.0,-3.3807,-3.3807,0.0,0.0,0.0,0.0,-3.3807,-3.3807,-3.3807,-3.3807,-3.3807,-3.3807,-3.3807,-3.4043,-3.4195,-3.4195,-3.4508,-3.4674,-3.4674,-3.4694,-3.4694,-3.4694,-3.4694,-3.4851,-3.5105,-3.5105,-3.5239,-3.5493,-3.5493,-3.5493,-3.5493,-3.5493,-3.5493,-3.5493,-3.5493,-3.5493,-3.5493,-3.5493,-3.5493,-3.5493,-3.5493,-3.5493,-3.5493,-3.5493,-3.5493,0.0,0.0,-3.5493,-3.5493,-3.5493,-3.5493,-3.5493,-3.5493,-3.5493,-3.5493,-3.5493,-3.5493,-3.5493,-3.5493,-3.5493,-3.5493,-3.5493,0.0,-3.5493,-3.5493,-3.5493,-3.5493,-3.5493,-3.5493,-3.5493,-3.5493,-3.5565,-3.5603,-3.5603,-3.5776,-3.5872,-3.5872,-3.5947,-3.5995,-3.5996,-3.5996,-3.5996,-3.5995,-3.5995,0.0,0.0,0.0,0.0,0.0,0.0,0.0,0.0,0.0,0.0,0.0,0.0,0.0,0.0,0.0,0.0,0.0,0.0,0.0,0.0,0.0,0.0,0.0,0.0,0.0,0.0,0.0,0.0,-3.3807,-3.3807,0.0,-3.3807,-3.3807,-3.3807,-3.3807,-3.3807,-3.3807,-3.3807,-3.3807,-3.3876,-3.4043,-3.4147,-3.4292,-3.4529,-3.4813,-3.4963,-3.4963,-3.5122,-3.5207,-3.5207,-3.5207,-3.5273,-3.5354,-3.5354,-3.5417,-3.5493,-3.5493,-3.5493,-3.5493,-3.5493,-3.5493,-3.5493,-3.5493,-3.5493,-3.5493,-3.5493,-3.5493,-3.5493,-3.5493,-3.5493,-3.5493,-3.5493,-3.5493,-3.5493,-3.5493,-3.5493,-3.5493,-3.5493,-3.5493,-3.5493,-3.5493,-3.5493,-3.5493,-3.5493,-3.5493,-3.5493,-3.5493,-3.5493,-3.5493,-3.5493,-3.5493,-3.5493,-3.5493,-3.5493,-3.5493,-3.5493,-3.5493,-3.5526,-3.5565,-3.5603,-3.5618,-3.565,-3.5809,-3.5892,-3.5892,-3.5958,-3.5996,-3.5996,-3.5996,-3.5996,-3.5996,-3.5996,-3.6009,0.0,0.0,0.0,0.0,0.0,0.0,0.0,0.0,0.0,0.0,0.0,0.0,0.0,0.0,0.0,0.0,0.0,0.0,0.0,0.0,0.0,0.0,0.0,0.0,0.0,-3.3807,-3.3807,-3.3807,-3.3807,-3.3807,-3.3807,-3.3807,-3.3807,-3.3807,-3.3807,-3.3807,-3.3807,-3.3807,-3.3876,-3.4068,-3.4265,-3.4486,-3.4694,-3.507,-3.5223,-3.5239,-3.5417,-3.5493,-3.5493,-3.5493,-3.5493,-3.5493,-3.5493,-3.5493,-3.5493,-3.5493,-3.5493,-3.5493,-3.5493,-3.5493,-3.5493,-3.5493,-3.5493,-3.5493,-3.5493,-3.5493,-3.5493,-3.5493,-3.5493,-3.5493,-3.5493,-3.5493,-3.5493,-3.5493,-3.5493,-3.5493,-3.5493,-3.5493,-3.5493,-3.5493,-3.5493,-3.5493,-3.5493,-3.5493,-3.5493,-3.5493,-3.5493,-3.5493,-3.5493,-3.5493,-3.5493,-3.5493,-3.5493,-3.5493,-3.5493,-3.5526,-3.5565,-3.5603,-3.5661,-3.5714,-3.5757,-3.5872,-3.593,-3.593,-3.5981,-3.5996,-3.5996,-3.5996,-3.5996,-3.5996,-3.5996,-3.5996,-3.5996,0.0,0.0,0.0,0.0,0.0,0.0,0.0,0.0,0.0,0.0,0.0,0.0,0.0,0.0,0.0,0.0,0.0,0.0,0.0,0.0,0.0,0.0,0.0,-3.3807,-3.3807,-3.3807,-3.3807,-3.3807,-3.3807,-3.3807,-3.3807,-3.3807,-3.3807,-3.3807,-3.3807,-3.3807,-3.3807,-3.3807,-3.3815,-3.4394,-3.4713,-3.4752,-3.5277,-3.5565,-3.5584,-3.5584,-3.5584,-3.5584,-3.5584,-3.5584,-3.5584,-3.5584,-3.5584,-3.5584,-3.5584,-3.5584,-3.5584,-3.5565,-3.5545,-3.5532,-3.5584,-3.5584,-3.5584,-3.5584,-3.5584,-3.5584,-3.5584,-3.5584,-3.5584,-3.5584,-3.5565,-3.5545,-3.5545,-3.5526,-3.5493,-3.5493,-3.5493,-3.5493,-3.5493,-3.5493,-3.5493,-3.5493,-3.5493,-3.5493,-3.5493,-3.5493,-3.5493,-3.5493,-3.5493,-3.5493,-3.5493,-3.5493,0.0,-3.5493,-3.5565,-3.5603,-3.5622,-3.5776,-3.5905,-3.5913,-3.5958,-3.5996,-3.5996,-3.5996,-3.5996,-3.5996,-3.5996,-3.5996,-3.5996,-3.5996,-3.5996,-3.5996,0.0,0.0,0.0,0.0,0.0,0.0,0.0,0.0,0.0,0.0,0.0,0.0,0.0,0.0,0.0,0.0,0.0,0.0,0.0,0.0,0.0,-3.3807,-3.3807,-3.3807,-3.3807,-3.3807,-3.3807,-3.3807,-3.3807,-3.3807,-3.3807,-3.3807,-3.3807,-3.3807,-3.3807,-3.3807,-3.3807,-3.4005,-3.4439,-3.4612,-3.5173,-3.6151,-3.6296,-3.6699,-3.7315,-3.7315,-3.7315,-3.7315,-3.7315,-3.7315,-3.7315,-3.7315,-3.7315,-3.7315,-3.7315,-3.7315,-3.7257,-3.6622,-3.6372,-3.6449,-3.7084,-3.7315,-3.7315,-3.7315,-3.7315,-3.7315,-3.7315,-3.7315,-3.7315,-3.7315,-3.6873,-3.6372,-3.6372,-3.5949,-3.5493,-3.5493,-3.5493,-3.5493,-3.5493,-3.5493,-3.5493,-3.5493,-3.5493,-3.5493,-3.5493,-3.5493,-3.5493,-3.5493,-3.5493,-3.5493,-3.5493,-3.5493,-3.5526,-3.5584,-3.5603,-3.5661,-3.5795,-3.5872,-3.5916,-3.5962,-3.5989,-3.5996,-3.5996,-3.5996,-3.5996,-3.5996,-3.5996,-3.5996,-3.5996,-3.5996,-3.5996,0.0,0.0,0.0,0.0,0.0,0.0,0.0,0.0,0.0,0.0,0.0,0.0,0.0,0.0,0.0,0.0,0.0,0.0,0.0,0.0,0.0,0.0,-3.3807,-3.3807,-3.3807,-3.3807,-3.3807,-3.3807,-3.3807,-3.3807,-3.3807,-3.3807,-3.3807,-3.3807,-3.3807,-3.4015,-3.4485,-3.4504,-3.4883,-3.5734,-3.5874,-3.6291,-3.7079,-3.7194,-3.7507,-3.8007,-3.8007,-3.8007,-3.8007,-3.8007,-3.8007,-3.8007,-3.8007,-3.8007,-3.8007,-3.8007,-3.8007,-3.795,0.0,0.0,0.0,0.0,-3.8007,-3.8007,-3.8007,-3.8007,-3.8007,-3.8007,-3.8007,-3.8007,-3.8007,-3.7642,-3.7238,-3.7238,-3.6911,-3.6546,-3.6546,-3.6546,-3.6546,-3.6546,-3.6546,-3.6546,-3.6546,-3.6546,-3.6546,-3.6546,-3.6546,0.0,-3.6084,-3.5718,-3.5526,-3.5545,-3.5545,-3.5584,-3.5641,-3.5699,-3.5776,-3.5892,-3.592,-3.5955,-3.5995,-3.5996,0.0,0.0,0.0,-3.5996,-3.5996,-3.5996,0.0,0.0,0.0,-3.5996,-3.5996,-3.5923,0.0,0.0,-3.5659,-3.5603,0.0,0.0,0.0,0.0,0.0,0.0,0.0,0.0,0.0,0.0,0.0,0.0,0.0,0.0,0.0,0.0,-3.3807,-3.3807,-3.3807,-3.3807,-3.3807,-3.3807,-3.3807,-3.3807,-3.3807,-3.388,-3.3935,-3.3935,-3.4027,-3.4518,-3.5535,-3.5621,0.0,0.0,0.0,-3.7658,-3.7789,-3.8028,-3.818,-3.8277,-3.8277,-3.8277,-3.8277,-3.8277,-3.8277,-3.8277,-3.8277,-3.8277,-3.8277,-3.8277,-3.8277,-3.8277,-3.818,-3.82,-3.8277,-3.8277,-3.8277,-3.8277,-3.8277,0.0,0.0,-3.8277,-3.8277,-3.8277,-3.8277,-3.8219,-3.8142,-3.8142,-3.8084,-3.8007,-3.8007,-3.8007,-3.8007,-3.8007,-3.8007,-3.8007,-3.8007,-3.8007,-3.8007,-3.8007,-3.8007,-3.7757,-3.6988,-3.6199,-3.5628,-3.5622,-3.5611,-3.5643,-3.5699,-3.5834,-3.5913,-3.5912,-3.5968,0.0,-3.5996,-3.5996,-3.5996,-3.5996,-3.5996,-3.5996,-3.5996,-3.5996,-3.5996,-3.5996,-3.5996,-3.5996,-3.5996,-3.5817,-3.5735,-3.5725,-3.5685,-3.5622,0.0,0.0,0.0,0.0,0.0,0.0,0.0,0.0,0.0,0.0,0.0,0.0,0.0,0.0,0.0,-3.3807,-3.3807,-3.3807,-3.3807,-3.3807,-3.3807,-3.3807,-3.3807,-3.3807,-3.3807,-3.4394,-3.4752,-3.4752,-3.5422,-3.5891,-3.6122,-3.6345,-3.6662,-3.7112,-3.7414,-3.8051,-3.8962,-3.9012,-3.9373,-4.0008,-4.0008,0.0,-4.0008,-4.0008,-4.0008,-4.0008,-4.0008,-4.0008,-4.0008,-4.0008,-4.0008,-3.995,-3.9296,-3.945,-4.0008,-4.0008,-4.0008,-4.0008,-4.0008,-4.0008,-4.0008,-4.0008,-4.0008,-4.0008,-4.0008,-3.9546,0.0,-3.9046,-3.8546,-3.8007,-3.8007,-3.8007,-3.8007,-3.8007,-3.8007,-3.8007,-3.8007,-3.8007,-3.8007,-3.8007,-3.8007,-3.795,-3.7777,-3.7127,-3.6397,-3.5699,-3.5648,-3.5718,-3.5855,-3.5872,-3.5927,-3.5962,-3.5993,-3.5996,-3.5996,-3.5996,-3.5996,-3.5996,-3.5996,-3.5996,-3.5996,-3.5996,-3.5996,-3.5996,-3.5996,-3.5996,-3.5996,-3.5953,-3.5909,-3.5861,-3.563,-3.5526,0.0,0.0,0.0,0.0,0.0,0.0,0.0,0.0,0.0,0.0,0.0,-3.3807,-3.3807,0.0,-3.3807,-3.3807,-3.3807,-3.3807,-3.3807,-3.4156,-3.4412,-3.4412,-3.4412,-3.4578,-3.5018,-3.5422,-3.5661,-3.5661,-3.6046,-3.6517,-3.7063,-3.7393,-3.7872,-3.8569,-3.8897,-3.9317,-3.9892,-3.9892,-4.0085,-4.0489,-4.0489,-4.0489,-4.0489,-4.0489,-4.0489,-4.0489,-4.0489,-4.0489,-4.0489,-4.0489,-4.0489,-4.045,-4.0046,-4.0142,-4.0489,-4.0489,-4.0489,-4.0489,-4.0489,-4.0489,-4.0489,-4.0489,-4.0489,-4.0489,-4.0489,-4.0219,-3.9892,-3.9892,-3.9585,-3.9238,-3.9238,-3.9238,-3.9238,-3.9238,-3.9238,-3.9238,-3.9238,-3.9238,-3.9238,-3.9238,-3.9238,-3.9123,-3.8719,-3.8358,-3.7863,-3.6991,-3.6569,-3.6391,-3.6489,-3.617,-3.5958,-3.5995,-3.5996,-3.5996,-3.5996,-3.5996,-3.5996,-3.5996,-3.5996,-3.5996,-3.5996,-3.5996,-3.5996,-3.5996,-3.5996,-3.5996,-3.5996,-3.5962,-3.593,-3.5905,-3.5662,-3.5553,0.0,0.0,0.0,0.0,0.0,0.0,0.0,-3.3807,-3.3807,-3.3807,-3.3807,-3.3807,-3.3807,-3.3807,-3.3807,-3.3807,-3.3935,-3.4027,-3.4027,-3.4743,-3.5302,-3.5477,-3.5367,-3.5532,-3.6229,-3.6431,-3.6523,-3.6523,-3.667,-3.7173,-3.8093,-3.8437,-3.9094,-4.0081,-4.0356,-4.0489,-4.0489,-4.0489,-4.0489,-4.0489,-4.0662,-4.0739,-4.0739,-4.0739,-4.0739,-4.0739,-4.0566,-4.0489,-4.0508,-4.0681,-4.0739,-4.0758,-4.0931,-4.1008,-4.095,-4.0604,-4.0489,-4.0489,-4.0489,-4.0489,-4.0489,-4.0489,-4.0489,-4.0489,-4.0489,-4.0489,-4.0489,-4.0489,-4.0489,-4.0489,-4.0489,-4.0489,-4.0489,-4.0489,-4.0489,-4.0489,-4.0489,-4.0489,-4.0489,-4.0489,-4.0489,-4.0277,-3.9642,-3.9569,-3.9278,-3.8241,-3.7618,-3.7287,-3.7342,-3.6699,-3.6211,-3.625,-3.6094,-3.5996,-3.5996,-3.5996,-3.5996,-3.5996,-3.5996,-3.5996,-3.5996,-3.5996,-3.5996,-3.5996,-3.5996,-3.5996,-3.5996,-3.5957,-3.5916,-3.5916,-3.5718,-3.5609,-3.3807,-3.3807,-3.3807,-3.3807,-3.3807,-3.3807,0.0,-3.3807,-3.3807,-3.3807,-3.3807,-3.3807,-3.3807,-3.3807,-3.3807,-3.3807,-3.4412,-3.4862,-3.4862,-3.5624,-3.6413,-3.7129,-3.6578,-3.6193,-3.6285,-3.6945,-3.7349,-3.7349,-3.8028,-3.8593,-3.8968,-3.9282,-3.9659,-4.0081,-4.0356,-4.0489,-4.0489,-4.0489,-4.0489,-4.0508,-4.1277,-4.1662,-4.1662,-4.1662,-4.1662,-4.1604,-4.0835,-4.0489,-4.0546,-4.1335,-4.1662,-4.1739,-4.2508,-4.2816,-4.2624,-4.1066,-4.0489,-4.0489,-4.0489,-4.0489,-4.0489,-4.0489,-4.0489,-4.0489,-4.0489,-4.0489,-4.0489,-4.0489,-4.0489,-4.0489,-4.0489,-4.0489,-4.0489,-4.0489,-4.0489,-4.0489,-4.0489,-4.0489,-4.0489,-4.0489,-4.0489,-4.0469,-4.0373,-4.0373,-3.9869,-3.8325,-3.8118,-3.8186,-3.8257,-3.7519,-3.7012,-3.7148,-3.6465,-3.5996,-3.5996,-3.5996,-3.5996,-3.5996,-3.5996,-3.5996,-3.5996,-3.5996,-3.5996,-3.5996,-3.5996,-3.5996,-3.5996,-3.5996,-3.5995,-3.5989,-3.5777,-3.566,-3.3807,-3.3807,-3.3807,-3.3807,-3.3807,-3.3807,-3.3807,-3.3807,-3.3807,-3.3807,-3.3807,-3.3807,-3.3807,-3.3807,-3.3807,-3.3807,-3.4486,-3.499,-3.499,-3.6156,-3.711,-3.7441,-3.7606,-3.7698,-3.7698,-3.7991,-3.8247,-3.8433,-3.8748,-3.9082,-3.9364,-3.9709,-3.9962,-4.0101,-4.0356,-4.0739,-4.1258,-4.1258,-4.1508,-4.2008,-4.2374,-4.2566,-4.2566,-4.2566,-4.2566,-4.2547,-4.2162,-4.2008,-4.2047,-4.2412,-4.2566,-4.2585,-4.297,-4.3104,-4.3008,-4.2277,-4.2008,-4.2008,-4.2008,-4.1681,-4.1258,-4.1258,-4.0912,-4.0489,-4.0489,-4.0489,-4.0489,-4.0489,-4.0489,-4.0489,-4.0489,-4.0489,-4.0489,-4.0489,-4.0489,-4.0489,-4.0489,-4.0489,-4.0489,-4.0489,-4.0489,-4.0489,-4.0489,-4.0489,-4.0258,-3.9604,-3.9169,-3.8959,-3.8976,-3.8323,-3.7715,-3.7344,-3.6523,-3.5996,-3.5996,-3.5996,-3.5996,-3.5996,-3.5996,-3.5996,-3.5996,-3.5996,-3.5996,-3.5996,-3.5996,-3.5996,-3.5996,-3.5996,-3.5996,-3.5996,-3.5797,-3.5688,-3.3807,-3.3807,-3.3807,-3.3807,-3.3807,-3.3807,-3.3807,-3.3868,-3.3876,-3.3815,-3.3928,-3.403,-3.3928,-3.3902,-3.4002,-3.4242,-3.4871,-3.5459,-3.5679,-3.6927,-3.7826,-3.7826,-3.834,-3.8707,-3.8707,-3.8707,-3.8833,-3.9072,-3.9099,-3.9308,-3.9731,-3.9982,-4.0253,-4.0558,-4.0754,-4.1277,-4.2162,-4.2162,-4.2489,-4.3104,-4.3316,-4.3431,-4.3431,-4.3431,-4.3316,-4.3104,-4.3104,-4.3104,-4.3124,-4.3335,-4.3431,-4.3451,-4.3701,-4.3797,-4.3797,-4.3797,-4.3508,-4.3104,-4.3104,-4.2701,-4.2162,-4.2162,-4.1566,-4.0854,-4.0854,-4.0681,-4.0489,-4.0489,-4.0489,-4.0489,-4.0489,-4.0489,-4.0489,-4.0489,-4.0489,-4.0489,-4.0489,-4.0489,-4.0489,-4.0489,-4.0489,-4.0489,-4.0489,-4.0489,-4.0489,-4.0489,-4.0065,-3.9723,-3.9742,-3.9159,-3.843,-3.7676,-3.6816,-3.6328,-3.6367,-3.6133,-3.5996,-3.5996,-3.5996,-3.5996,-3.5996,-3.5996,-3.5996,-3.5996,-3.5996,-3.5996,-3.5996,-3.5996,-3.5996,-3.5996,-3.5797,-3.5708,-3.3807,-3.3807,-3.3807,-3.3807,-3.3807,-3.3807,-3.3807,-3.4012,-3.4123,-3.3868,-3.4279,-3.4572,-3.4265,-3.4195,-3.4455,-3.5293,-3.59,-3.6523,-3.7294,-3.8138,-3.867,-3.867,-3.8689,-3.8707,-3.8707,-3.8707,-3.8833,-3.9072,-3.9099,-3.9389,-4.0061,-4.0101,-4.0615,-4.1723,-4.1777,-4.2181,-4.3047,-4.3066,-4.3066,-4.3104,-4.3893,-4.4259,-4.4259,-4.4259,-4.3835,-4.3104,-4.3104,-4.3104,-4.3162,-4.3932,-4.4259,-4.4355,-4.5182,-4.5509,-4.5509,-4.5509,-4.4489,-4.3104,-4.3104,-4.3085,-4.3066,-4.3066,-4.247,-4.1758,-4.1758,-4.1162,-4.0489,-4.0489,-4.0489,-4.0489,-4.0489,-4.0489,-4.0489,-4.0489,-4.0489,-4.0489,-4.0489,-4.0489,-4.0489,-4.0489,-4.0489,-4.0489,-4.0489,-4.0489,-4.0489,-4.0489,-4.0469,-4.0508,-4.0639,-4.002,-3.9252,-3.8456,-3.7598,-3.7129,-3.7246,-3.6484,-3.5996,-3.5996,-3.5996,-3.5996,-3.5996,-3.5996,-3.5996,-3.5996,-3.5996,-3.5996,-3.5996,-3.5996,-3.5996,-3.5996,-3.5797,-3.5708,-3.4141,-3.4068,-3.4018,-3.3842,-3.3807,-3.3807,-3.3807,-3.385,-3.3961,-3.4043,-3.4087,-3.4184,-3.4486,-3.4357,-3.4381,-3.4902,-3.5863,-3.6655,-3.6914,-3.7974,-3.8707,-3.8707,-3.8707,-3.8707,-3.8707,-3.8855,-3.909,-3.9408,-3.9645,-3.9924,-4.0356,-4.0372,-4.0811,-4.1777,-4.1797,-4.247,-4.3874,-4.3893,-4.4182,-4.4759,-4.5028,-4.5163,-4.5163,-4.5163,-4.5009,-4.4759,-4.4759,-4.4759,-4.4778,-4.5047,-4.5163,-4.5182,-4.549,-4.5586,-4.5586,-4.5586,-4.524,-4.4759,-4.4759,-4.4374,-4.3893,-4.3893,-4.3335,-4.2662,-4.2662,-4.2047,-4.1354,-4.1354,-4.095,-4.0489,-4.0489,-4.0489,-4.0489,-4.0489,-4.0489,-4.0489,-4.0489,-4.0489,-4.0489,-4.0489,-4.0489,-4.0489,-4.0489,-4.0489,-4.0489,-4.0489,-4.0489,-4.0562,-4.0677,-3.9976,-3.9405,-3.9217,-3.8415,-3.7912,-3.7951,-3.7216,-3.6738,-3.6738,-3.6269,-3.5996,-3.5996,-3.5996,-3.5996,-3.5996,-3.5996,-3.5996,-3.5996,-3.5996,-3.5988,-3.593,-3.5772,-3.5989,-3.4423,-3.4379,-3.4334,-3.416,-3.4037,-3.3961,-3.4087,-3.4111,-3.4184,-3.4334,-3.4311,-3.4353,-3.4653,-3.4529,-3.4539,-3.5049,-3.5859,-3.662,-3.7199,-3.8003,-3.8665,-3.8971,-3.8913,-3.8884,-3.9027,-3.9171,-3.9364,-3.9576,-3.9901,-4.0213,-4.0489,-4.0796,-4.1354,-4.2239,-4.2547,-4.3355,-4.4739,-4.4759,-4.5047,-4.5586,-4.5586,-4.5586,-4.5586,-4.5586,-4.5586,-4.5586,-4.5586,-4.5586,-4.5586,-4.5586,-4.5586,-4.5586,-4.5586,-4.5586,-4.5586,-4.5586,-4.5586,-4.5586,-4.5586,-4.522,-4.4759,-4.4759,-4.4201,-4.3528,-4.3528,-4.2951,-4.22,-4.1893,-4.1393,-4.0893,-4.0566,-4.0489,-4.0489,-4.0489,-4.0489,-4.0489,-4.0489,-4.0489,-4.0489,-4.0489,-4.0489,-4.0489,-4.0489,-4.0489,-4.0489,-4.0489,-4.0489,-4.0543,-4.062,-4.0142,-3.9838,-3.9973,-3.9206,-3.8703,-3.8761,-3.8011,-3.7532,-3.7536,-3.7087,-3.6813,-3.6813,-3.6813,-3.6813,-3.6813,-3.6813,-3.6813,-3.6813,-3.6813,-3.6799,-3.6745,-3.6609,-3.6833,-3.4714,-3.4714,-3.4714,-3.4694,-3.4445,-3.4311,-3.4632,-3.4694,-3.4694,-3.4714,-3.4908,-3.4999,-3.4774,-3.4714,-3.4978,-3.5752,-3.5883,-3.6467,-3.8052,-3.8275,-3.8614,-3.9505,-3.9314,-3.9238,-3.9576,-3.9622,-3.9622,-3.9622,-3.9922,-4.0232,-4.0489,-4.1335,-4.22,-4.3066,-4.3874,-4.472,-4.5586,-4.5586,-4.5586,-4.5586,-4.5586,-4.5586,-4.5586,-4.5586,-4.5586,-4.5586,-4.5586,-4.5586,-4.5586,-4.5586,-4.5586,-4.5586,-4.5586,-4.5586,-4.5586,-4.5586,-4.5586,-4.5586,-4.5586,-4.5586,-4.5586,-4.5586,-4.5028,-4.4374,-4.4374,-4.3797,-4.2989,-4.2162,-4.1912,-4.1681,-4.0854,-4.0623,-4.0623,-4.0623,-4.0623,-4.0623,-4.0623,-4.0623,-4.0623,-4.0623,-4.0585,-4.0546,-4.0508,-4.0489,-4.0489,-4.0489,-4.0489,-4.0489,-4.0489,-4.0489,-4.0562,-4.0677,-3.9935,-3.9512,-3.9646,-3.8846,-3.8356,-3.8352,-3.833,-3.8291,-3.8291,-3.8291,-3.8291,-3.8291,-3.8291,-3.8291,-3.8291,-3.8291,-3.8291,-3.8291,-3.8164,-3.8127,-3.5034,-3.4999,-3.4944,-3.4734,-3.4632,-3.4593,-3.4674,-3.4694,-3.4773,-3.4963,-3.4908,-3.4908,-3.5223,-3.5122,-3.5127,-3.5525,-3.5944,-3.654,-3.7566,-3.8048,-3.8614,-3.9505,-3.951,-3.9505,-3.9599,-3.9838,-3.9982,-3.9982,-4.025,-4.0441,-4.0489,-4.1335,-4.22,-4.3066,-4.3874,-4.472,-4.5586,-4.5586,-4.5586,-4.5586,-4.5586,-4.5586,-4.5586,-4.5586,-4.5586,-4.5586,-4.5586,-4.5586,-4.5586,-4.5586,-4.5586,-4.5586,-4.5586,-4.5586,-4.5586,-4.5586,-4.5586,-4.5586,-4.5586,-4.5586,-4.5586,-4.5586,-4.5451,-4.5259,-4.5259,-4.4662,-4.3951,-4.372,-4.3239,-4.272,-4.2489,-4.2431,-4.2431,-4.2431,-4.2431,-4.2431,-4.2431,-4.2431,-4.2431,-4.2431,-4.1912,-4.1258,-4.0604,-4.0489,-4.0489,-4.0489,-4.0489,-4.0489,-4.0489,-4.0489,-4.0508,-4.0562,-4.0354,-4.0239,-4.0277,-3.9569,-3.9119,-3.9108,-3.8607,-3.8304,-3.8304,-3.8304,-3.8304,-3.8304,-3.8304,-3.8304,-3.8304,-3.8304,-3.824,-3.8151,-3.8113,-3.8416,-3.5138,-3.519,-3.5239,-3.5088,-3.4963,-3.4908,-3.5016,-3.4963,-3.4944,-3.5223,-3.507,-3.4963,-3.5273,-3.5207,-3.5138,-3.5304,-3.5691,-3.6214,-3.7034,-3.7735,-3.8499,-3.9356,-3.9548,-3.9645,-3.9797,-3.9859,-3.9943,-4.0081,-4.0356,-4.0489,-4.0489,-4.1335,-4.22,-4.3066,-4.3874,-4.472,-4.5586,-4.5586,-4.5586,-4.5586,-4.5586,-4.5586,-4.5586,-4.5586,-4.5586,-4.5586,-4.5586,-4.5586,-4.5586,-4.5586,-4.5586,-4.5586,-4.5586,-4.5586,-4.5586,-4.5586,-4.5586,-4.5586,-4.5586,-4.5586,-4.5586,-4.5586,-4.5586,-4.5586,-4.5586,-4.5259,-4.4778,-4.4412,-4.397,-4.3547,-4.3181,-4.3104,-4.3104,-4.3104,-4.3104,-4.3104,-4.3104,-4.2797,-4.2412,-4.2027,-4.1566,-4.1066,-4.0566,-4.0489,-4.0489,-4.0489,-4.0489,-4.0489,-4.0489,-4.0489,-4.0489,-4.0489,-4.0489,-4.0489,-4.0489,-4.0123,-3.9877,-3.9877,-3.9477,-3.9265,-3.9265,-3.9265,-3.9265,-3.9265,-3.9265,-3.9265,-3.9265,-3.9265,-3.9242,-3.9161,-3.9161,-3.9392,-3.5088,-3.5273,-3.5446,-3.5446,-3.5273,-3.5155,-3.5383,-3.5273,-3.519,-3.5446,-3.5304,-3.5138,-3.5138,-3.5122,-3.5105,-3.5157,-3.532,-3.5748,-3.657,-3.745,-3.83,-3.915,-3.9489,-3.9775,-4.0002,-3.9797,-3.9797,-4.0081,-4.0356,-4.0489,-4.0489,-4.1335,-4.2258,-4.3239,-4.4047,-4.4836,-4.5586,-4.5586,-4.5586,-4.5586,-4.5586,-4.5586,-4.5586,-4.5586,-4.5586,-4.5586,-4.5586,-4.5586,-4.5586,-4.5586,-4.5586,-4.5586,-4.5586,-4.5586,-4.5586,-4.5586,-4.5586,-4.5586,-4.5586,-4.5586,-4.5586,-4.5586,-4.5586,-4.5586,-4.5586,-4.5586,-4.5432,-4.4682,-4.447,-4.4316,-4.3605,-4.3431,-4.3431,-4.3431,-4.3431,-4.3393,-4.3278,-4.2585,-4.172,-4.0835,-4.0662,-4.0642,-4.0508,-4.0489,-4.0489,-4.0489,-4.0489,-4.0489,-4.0489,-4.0489,-4.0489,-4.0489,-4.0489,-4.0489,-4.0489,-4.0489,-4.0489,-4.0489,-4.0489,-4.0489,-4.0489,-4.0489,-4.0489,-4.0489,-4.0489,-4.0489,-4.0489,-4.0489,-4.0489,-4.0489,-4.0489,-4.0489,-3.5053,-3.5122,-3.5174,-3.5174,-3.5122,-3.5105,-3.5174,-3.5122,-3.519,-3.5446,-3.546,-3.5432,-3.5432,-3.5239,-3.5155,-3.5383,-3.5289,-3.5525,-3.6555,-3.745,-3.8235,-3.882,-3.9547,-3.9922,-3.9709,-3.988,-4.0022,-4.0101,-4.0356,-4.0489,-4.0489,-4.1335,-4.2508,-4.4047,-4.4932,-4.5451,-4.5586,-4.5586,-4.5586,-4.5586,-4.5586,-4.5586,-4.5586,-4.5586,-4.5586,-4.5586,-4.5586,-4.5586,-4.5586,-4.5586,-4.5586,-4.5586,-4.5586,-4.5586,-4.5586,-4.5586,-4.5586,-4.5586,-4.5586,-4.5586,-4.5586,-4.5586,-4.5586,-4.5586,-4.5586,-4.5586,-4.5566,-4.5413,-4.5355,-4.5336,-4.5201,-4.5163,-4.5163,-4.5163,-4.5163,-4.497,-4.4239,-4.3451,-4.2624,-4.1739,-4.1566,-4.1354,-4.0623,-4.0489,-4.0489,-4.0489,-4.0489,-4.0489,-4.0489,-4.0489,-4.0489,-4.0489,-4.0489,-4.0489,-4.0489,-4.0489,-4.0489,-4.0489,-4.0489,-4.0489,-4.0489,-4.0489,-4.0489,-4.0489,-4.0489,-4.0489,-4.0489,-4.0489,-4.0489,-4.0489,-4.0489,-4.0489,-3.4482,-3.4755,-3.4889,-3.4889,-3.4889,-3.4889,-3.4889,-3.4889,-3.4926,-3.507,-3.5088,-3.5088,-3.5088,-3.4981,-3.4944,-3.507,-3.5088,-3.5272,-3.5806,-3.6718,-3.7529,-3.8059,-3.8744,-3.9217,-3.9327,-3.9645,-3.984,-3.984,-4.0248,-4.0489,-4.0489,-4.1335,-4.2374,-4.3643,-4.4489,-4.5143,-4.5586,-4.5586,-4.5586,-4.5586,-4.5586,-4.5586,-4.5586,-4.5586,-4.5586,-4.5586,-4.5586,-4.5586,-4.5586,-4.5586,-4.5586,-4.5586,-4.5586,-4.5586,-4.5586,-4.5586,-4.5586,-4.5586,-4.5586,-4.5297,-4.4913,-4.4913,-4.522,-4.5586,-4.5586,-4.5586,-4.5586,-4.5586,-4.5586,-4.5586,-4.5586,-4.5586,-4.549,-4.5028,-4.4605,-4.4066,-4.3181,-4.2701,-4.2181,-4.1296,-4.1123,-4.0989,-4.0566,-4.0489,-4.0489,-4.0489,-4.0489,-4.0489,-4.0489,-4.0489,-4.0489,-4.0489,-4.0489,-4.0489,-4.0489,-4.0489,-4.0489,-4.0489,-4.0489,-4.0489,-4.0489,-4.0489,-4.0489,-4.0489,-4.0489,-4.0489,-4.0489,-4.0489,-4.0489,-4.0489,-4.0489,-4.0489,-3.3766,-3.427,-3.4593,-3.4593,-3.4593,-3.4593,-3.4593,-3.4593,-3.4593,-3.4674,-3.4694,-3.4694,-3.4694,-3.4653,-3.4632,-3.4694,-3.4813,-3.4925,-3.4999,-3.5895,-3.6733,-3.7261,-3.7848,-3.8439,-3.8961,-3.9383,-3.9599,-3.9599,-4.0157,-4.0489,-4.0489,-4.1335,-4.2104,-4.2797,-4.3778,-4.4624,-4.5297,-4.5509,-4.5586,-4.5586,-4.5586,-4.5586,-4.5586,-4.5586,-4.5586,-4.5586,-4.5586,-4.5586,-4.5586,-4.5393,-4.5316,-4.5297,-4.5124,-4.5047,-4.5047,-4.5047,-4.5047,-4.5047,-4.5047,-4.4624,-4.4047,-4.4047,-4.4509,-4.5047,-4.5047,-4.5047,-4.5047,-4.5047,-4.5047,-4.5047,-4.5047,-4.5047,-4.4893,-4.4201,-4.3412,-4.2624,-4.195,-4.1662,-4.1316,-4.0623,-4.0489,-4.0489,-4.0489,-4.0489,-4.0489,-4.0489,-4.0489,-4.0489,-4.0489,-4.0489,-4.0489,-4.0489,-4.0489,-4.0489,-4.0489,-4.0489,-4.0489,-4.0489,-4.0489,-4.0489,-4.0489,-4.0489,-4.0489,-4.0489,-4.0489,-4.0489,-4.0489,-4.0489,-4.0489,-4.0489,-4.0489,-4.0489,-3.3032,-3.3682,-3.4265,-3.4265,-3.4265,-3.4265,-3.4265,-3.4265,-3.4334,-3.4632,-3.4694,-3.4694,-3.4694,-3.4445,-3.4357,-3.4653,-3.4467,-3.4401,-3.4694,-3.5455,-3.6163,-3.6702,-3.7455,-3.8162,-3.8688,-3.9268,-3.9599,-3.9599,-4.0157,-4.0489,-4.0489,-4.1335,-4.1854,-4.1931,-4.347,-4.4335,-4.4412,-4.5201,-4.5586,-4.5586,-4.5586,-4.5586,-4.5586,-4.5586,-4.5586,-4.5586,-4.5586,-4.5586,-4.5528,-4.4739,-4.4412,-4.4355,-4.3624,-4.3335,-4.3335,-4.3335,-4.3335,-4.3335,-4.3335,-4.3278,-4.3201,-4.3201,-4.3258,-4.3335,-4.3335,-4.3335,-4.3335,-4.3335,-4.3335,-4.3335,-4.3335,-4.3335,-4.3316,-4.3239,-4.2547,-4.1912,-4.1816,-4.1181,-4.0585,-4.0508,-4.0489,-4.0489,-4.0489,-4.0489,-4.0489,-4.0489,-4.0489,-4.0489,-4.0489,-4.0489,-4.0489,-4.0489,-4.0489,-4.0489,-4.0489,-4.0489,-4.0489,-4.0489,-4.0489,-4.0489,-4.0489,-4.0489,-4.0489,-4.0489,-4.0489,-4.0489,-4.0489,-4.0489,-4.0489,-4.0489,-4.0489,-4.0489,-3.26,-3.3352,-3.3961,-3.3961,-3.3961,-3.3961,-3.3961,-3.3961,-3.3986,-3.4136,-3.416,-3.416,-3.416,-3.4062,-3.4012,-3.4136,-3.4171,-3.4265,-3.4379,-3.4854,-3.5381,-3.5919,-3.667,-3.7376,-3.7911,-3.8969,-3.9757,-4.0101,-4.0353,-4.0489,-4.0489,-4.0835,-4.1258,-4.1777,-4.297,-4.3816,-4.4297,-4.5163,-4.5586,-4.5586,-4.5586,-4.5586,-4.5586,-4.5586,-4.5586,-4.5566,-4.5047,-4.4816,-4.4739,-4.3912,-4.3585,-4.3547,-4.3239,-4.3104,-4.3104,-4.3104,-4.3104,-4.3104,-4.3104,-4.2758,-4.2316,-4.2316,-4.195,-4.172,-4.2777,-4.3104,-4.3104,-4.3104,-4.3104,-4.3104,-4.3104,-4.272,-4.2316,-4.2316,-4.1643,-4.1008,-4.1008,-4.0739,-4.0489,-4.0489,-4.0489,-4.0489,-4.0489,-4.0489,-4.0489,-4.0489,-4.0489,-4.0489,-4.0489,-4.0489,-4.0489,-4.0489,-4.0489,-4.0489,-4.0489,-4.0489,-4.0489,-4.0489,-4.0489,-4.0489,-4.0489,-4.0489,-4.0489,-4.0489,-4.0489,-4.0489,-4.0489,-4.0489,-4.0489,-4.0489,-4.0489,-4.0489,-3.2027,-3.2834,-3.3495,-3.3733,-3.3807,-3.3807,-3.3807,-3.3807,-3.3807,-3.3807,-3.3807,-3.3807,-3.3807,-3.3807,-3.3807,0.0,0.0,-3.4074,-3.4074,-3.4284,-3.4647,-3.5286,-3.607,-3.6823,-3.7434,-3.8782,-3.9821,-4.0336,-4.0457,-4.0489,-4.0489,-4.0489,-4.0777,-4.1393,-4.2258,-4.3104,-4.3932,-4.4778,-4.5336,-4.5586,-4.5586,-4.5586,-4.5586,-4.5316,-4.522,-4.5163,-4.4316,-4.3951,-4.3874,-4.3066,-4.272,-4.2701,-4.2431,-4.2335,-4.2335,-4.2335,-4.2335,-4.2335,-4.2335,-4.1931,-4.1412,-4.1412,-4.0989,-4.0719,-4.195,-4.2335,-4.2335,-4.2335,-4.2335,-4.2335,-4.2335,-4.1873,-4.1412,-4.1412,-4.095,-4.0489,-4.0489,-4.0489,-4.0489,-4.0489,-4.0489,-4.0489,-4.0489,-4.0489,-4.0489,-4.0489,-4.0489,-4.0489,-4.0489,-4.0489,-4.0489,-4.0489,-4.0489,-4.0489,-4.0489,-4.0489,-4.0489,-4.0489,-4.0489,-4.0489,-4.0489,-4.0489,-4.0489,-4.0489,-4.0489,-4.0489,-4.0489,-4.0489,-4.0489,-4.0489,-4.0489,-4.0489,-3.1182,-3.2008,-3.2816,-3.3605,-3.3807,-3.3807,-3.3807,-3.3807,-3.3807,-3.3807,-3.3807,-3.3807,-3.3807,-3.3807,-3.3807,-3.3807,-3.3788,0.0,-3.3788,-3.3807,-3.41,-3.4926,-3.5771,-3.6615,-3.7434,-3.8782,-3.9754,-4.0081,-4.0356,-4.0489,-4.0489,-4.0489,-4.0489,-4.0508,-4.1354,-4.2239,-4.3104,-4.3912,-4.4739,-4.5586,-4.5586,-4.5586,-4.5566,-4.4701,-4.4316,-4.4259,-4.3451,-4.3104,-4.3047,-4.2181,-4.1816,-4.1739,-4.0854,-4.0527,-4.0527,-4.0527,-4.0527,-4.0527,-4.0527,-4.0508,-4.0508,-4.0508,-4.0508,-4.0489,-4.0508,-4.0527,-4.0527,-4.0527,-4.0527,-4.0527,-4.0527,-4.0508,-4.0508,-4.0508,-4.0508,-4.0489,-4.0489,-4.0489,-4.0489,-4.0489,-4.0489,-4.0489,-4.0489,-4.0489,-4.0489,-4.0489,-4.0489,-4.0489,-4.0489,-4.0489,-4.0489,-4.0489,-4.0489,-4.0489,-4.0489,-4.0489,-4.0489,-4.0489,-4.0489,-4.0489,-4.0489,-4.0489,-4.0489,-4.0489,-4.0489,-4.0489,-4.0489,-4.0489,-4.0489,-4.0489,-4.0489,-4.0489,-3.0503,-3.1164,-3.1971,-3.2779,-3.2981,-3.3128,-3.3678,-3.3807,-3.3807,-3.3807,-3.3807,-3.3807,-3.3807,-3.3807,-3.3807,-3.3807,-3.3807,-3.3807,-3.3807,-3.3807,-3.3899,-3.4156,-3.544,-3.6895,-3.8424,-3.9003,-3.9486,-4.0061,-4.0177,-4.0321,-4.0489,-4.0489,-4.0489,-4.0489,-4.1354,-4.1931,-4.222,-4.3047,-4.3624,-4.3893,-4.3893,-4.3893,-4.3874,-4.3605,-4.347,-4.3431,-4.2585,-4.222,-4.2143,-4.1277,-4.0912,-4.0873,-4.0604,-4.0489,-4.0489,-4.0489,-4.0489,-4.0489,-4.0489,-4.0489,-4.0489,-4.0489,-4.0489,-4.0489,-4.0489,-4.0489,-4.0489,-4.0489,-4.0489,-4.0489,-4.0489,-4.0489,-4.0489,-4.0489,-4.0489,-4.0489,-4.0489,-4.0489,-4.0489,-4.0489,-4.0489,-4.0489,-4.0489,-4.0489,-4.0489,-4.0489,-4.0489,-4.0489,-4.0489,-4.0489,-4.0489,-4.0489,-4.0489,-4.0489,-4.0489,-4.0489,-4.0489,-4.0489,-4.0489,-4.0489,-4.0489,-4.0489,-4.0489,-4.0489,-4.0489,-4.0489,-4.0489,-4.0489,-4.0489,-4.0489,-4.0489,-4.0489,-3.0118,-3.0577,-3.1127,-3.1953,-3.2394,-3.2742,-3.3238,-3.3587,-3.3807,-3.3807,-3.3807,-3.3807,-3.3807,-3.3807,-3.3807,-3.3807,-3.3807,-3.3807,-3.3807,-3.3807,-3.4027,-3.4669,-3.5661,-3.7006,-3.8785,-3.9036,-3.9314,-3.988,-4.0022,-4.0213,-4.0489,-4.0489,-4.0489,-4.0489,-4.1027,-4.147,-4.1797,-4.2335,-4.2777,-4.3104,-4.3104,-4.3104,-4.3085,-4.2758,-4.2604,-4.2566,-4.17,-4.1316,0.0,-4.0719,-4.0489,-4.0489,-4.0489,-4.0489,-4.0489,-4.0489,-4.0489,-4.0489,-4.0489,-4.0489,-4.0489,-4.0489,-4.0489,-4.0473,-4.0372,-4.0406,-4.0489,-4.0489,-4.0489,-4.0489,-4.0489,-4.0489,-4.0489,-4.0489,-4.0489,-4.0489,-4.0489,-4.0489,-4.0489,-4.0489,-4.0489,-4.0489,-4.0489,-4.0489,-4.0489,-4.0489,-4.0489,-4.0489,-4.0489,-4.0489,-4.0489,-4.0489,-4.0489,-4.0489,-4.0489,-4.0489,-4.0489,-4.0489,-4.0489,-4.0489,-4.0489,-4.0489,-4.0489,-4.0489,-4.0489,-4.0489,-4.0489,-4.0489,-4.0489,-4.0489,-4.0489,-4.0489,0.0,-3.0094,-3.032,-3.1109,-3.188,-3.2467,-3.2577,0.0,0.0,-3.3788,-3.3807,-3.3807,-3.3807,-3.3807,-3.3807,-3.3807,-3.3807,-3.3807,-3.3807,-3.3807,-3.4412,-3.6101,-3.6303,-3.6927,-3.8542,-3.8923,-3.9205,-3.9552,-3.9861,-4.0177,-4.0457,-4.0489,-4.0489,-4.0489,-4.0489,-4.0893,-4.17,-4.172,-4.2104,-4.2912,-4.2912,-4.2912,-4.2893,-4.2085,-4.172,-4.1662,-4.0854,-4.0489,-4.0489,-4.0489,-4.0489,-4.0489,-4.0489,-4.0489,-4.0489,-4.0489,-4.0489,-4.0489,-4.0489,-4.0489,-4.0473,-4.0438,-4.0438,-4.0389,-4.0139,-4.0267,-4.0489,-4.0473,-4.0489,-4.0489,-4.0489,-4.0489,-4.0489,-4.0489,-4.0489,-4.0489,-4.0489,-4.0489,-4.0489,-4.0489,-4.0489,-4.0489,-4.0489,-4.0489,-4.0489,-4.0489,-4.0489,-4.0489,-4.0489,-4.0489,-4.0489,-4.0489,-4.0489,-4.0489,-4.0489,-4.0489,-4.0489,-4.0489,-4.0489,-4.0489,-4.0489,-4.0489,-4.0489,-4.0489,-4.0489,-4.0489,-4.0489,-4.0489,-4.0489,-4.0489,-4.0489,-4.0489,-2.8757,0.0,-2.9494,-3.0283,-3.0613,-3.1091,0.0,0.0,0.0,0.0,0.0,0.0,0.0,-3.3807,-3.3807,-3.3807,-3.3807,-3.3807,-3.3807,-3.3807,-3.4412,-3.6101,-3.6303,-3.6927,-3.8542,-3.8762,-3.8894,-3.9205,-3.9529,-3.9861,-4.0177,-4.0389,-4.0489,-4.0489,-4.0489,-4.0585,-4.0796,-4.0796,-4.0912,-4.1104,-4.1104,-4.1104,-4.1104,-4.0893,-4.0796,-4.0777,-4.0585,-4.0489,-4.0489,-4.0489,-4.0489,-4.0489,-4.0489,-4.0489,-4.0489,-4.0489,-4.0489,-4.0489,-4.0489,-4.0372,-4.0158,-3.9884,-3.9821,-3.98,-3.9735,-4.0063,-4.0457,-4.025,-4.0339,-4.0489,-4.0489,-4.0489,-4.0489,-4.0489,-4.0489,-4.0489,-4.0489,-4.0489,-4.0489,-4.0489,-4.0489,-4.0489,-4.0489,-4.0489,-4.0489,-4.0489,-4.0489,-4.0489,-4.0489,-4.0489,-4.0489,-4.0489,-4.0489,-4.0489,-4.0489,-4.0489,-4.0489,-4.0489,-4.0489,-4.0489,-4.0489,-4.0489,-4.0489,-4.0489,-4.0489,-4.0489,-4.0489,-4.0489,-4.0489,-4.0489,-4.0489,-4.0489,-2.8183,-2.8583,-2.9085,-2.9549,-2.9934,-3.0522,-3.177,0.0,0.0,0.0,0.0,0.0,0.0,-3.3807,-3.3807,-3.3807,-3.3807,-3.3807,-3.3807,-3.3807,-3.4412,-3.6101,-3.6303,-3.6927,-3.8542,-3.8707,-3.8833,-3.9072,-3.9414,-3.9754,-4.0081,-4.0356,-4.0489,-4.0489,-4.0489,-4.0489,-4.0489,-4.0489,-4.0489,-4.0489,-4.0489,-4.0489,-4.0489,-4.0489,-4.0489,-4.0489,-4.0489,-4.0489,-4.0489,-4.0489,-4.0441,-4.0321,-4.0321,-4.0212,-4.0082,-4.0082,-4.0082,-4.0082,-4.0082,-3.9984,-3.984,-3.9645,-3.9599,-3.9576,-3.9414,-3.9716,-4.0043,-3.9903,-3.9983,-4.012,-4.0267,-4.0212,-4.0157,-4.0438,-4.0425,-4.0356,-4.0473,-4.0489,-4.0489,-4.0489,-4.0489,-4.0489,-4.0489,-4.0489,-4.0489,-4.0489,-4.0489,-4.0489,-4.0489,-4.0489,-4.0489,-4.0489,-4.0489,-4.0489,-4.0489,-4.0489,-4.0489,-4.0489,-4.0489,-4.0489,-4.0489,-4.0489,-4.0489,-4.0489,-4.0489,-4.0489,-4.0489,-4.0489,-4.0489,-4.0489,-4.0489,-4.0489,-2.7811,-2.8334,-2.8905,-2.8905,-2.9465,-3.0228,-3.1017,0.0,0.0,0.0,0.0,0.0,-3.3807,-3.3807,-3.3807,-3.3807,-3.3807,-3.3807,-3.3807,-3.3807,-3.4376,-3.5917,-3.6211,-3.6872,-3.8377,-3.8634,-3.8803,-3.9008,-3.9383,-3.9712,-4.0002,-4.0339,-4.0489,-4.0489,-4.0489,-4.0489,-4.0489,-4.0489,-4.0489,-4.0489,-4.0489,-4.0489,-4.0489,-4.0489,-4.0489,-4.0489,-4.0489,-4.0473,-4.0441,-4.0441,-4.0191,-3.9832,-3.9832,-3.9669,-3.941,-3.941,-3.9486,-3.9599,-3.9552,-3.951,-3.9529,-3.9481,-3.9457,-3.9408,-3.9144,-3.9231,-3.9457,-3.9457,-3.9529,-3.9668,-3.9943,-3.9819,-3.9735,-4.0248,-4.0232,-4.0158,-4.0389,-4.0473,-4.0489,-4.0489,-4.0489,-4.0489,-4.0489,-4.0489,-4.0489,-4.0489,-4.0489,-4.0489,-4.0489,-4.0489,-4.0489,-4.0489,-4.0489,-4.0489,-4.0489,-4.0489,-4.0489,-4.0489,-4.0489,-4.0489,-4.0489,-4.0489,-4.0489,-4.0489,-4.0489,-4.0489,-4.0489,-4.0489,-4.0489,-4.0489,-4.0489,-4.0489,-2.7378,-2.7918,-2.8471,-2.8471,-2.884,-2.9402,-3.021,0.0,0.0,0.0,0.0,0.0,-3.3807,-3.3807,-3.3807,-3.3807,-3.3807,-3.3807,-3.3807,-3.3807,-3.4156,-3.5082,-3.5862,-3.6652,-3.7588,-3.8303,-3.8719,-3.8762,-3.9275,-3.9622,-3.9668,-4.0193,-4.0489,-4.0489,-4.0489,-4.0489,-4.0489,-4.0489,-4.0489,-4.0489,-4.0489,-4.0489,-4.0489,-4.0489,-4.0489,-4.0489,-4.0489,-4.0372,-4.0158,-4.0158,-3.9584,-3.8669,-3.8669,-3.8628,-3.8584,-3.8584,-3.9014,-3.9552,-3.9264,-3.9178,-3.9125,-3.8913,-3.8833,-3.8851,-3.8792,-3.8792,-3.8833,-3.8833,-3.9189,-3.9622,-3.9668,-3.9645,-3.9622,-3.9712,-3.9922,-4.0101,-4.0158,-4.0339,-4.0489,-4.0489,-4.0489,-4.0489,-4.0489,-4.0489,-4.0489,-4.0489,-4.0489,-4.0489,-4.0489,-4.0489,-4.0489,-4.0489,-4.0489,-4.0489,-4.0489,-4.0489,-4.0489,-4.0489,-4.0489,-4.0489,-4.0489,-4.0489,-4.0489,-4.0489,-4.0489,-4.0489,-4.0489,-4.0489,-4.0489,-4.0489,-4.0489,-4.0489,-2.6971,-2.7361,-2.7862,-2.8075,-2.8558,-2.9195,-3.0026,-3.0815,0.0,0.0,0.0,-3.3807,-3.3807,-3.3807,-3.3807,-3.3807,-3.3807,-3.3807,-3.3807,-3.3807,-3.41,-3.4899,-3.5771,-3.6615,-3.7434,-3.823,-3.8707,-3.8707,-3.9268,-3.9599,-3.9599,-4.0175,-4.0489,-4.0489,-4.0489,-4.0489,-4.0489,-4.0489,-4.0489,-4.0489,-4.0489,-4.0489,-4.0489,-4.0489,-4.0489,-4.0489,-4.0356,-3.9965,-3.9452,-3.9257,-3.8512,-3.7464,-3.7464,-3.7405,-3.7322,-3.775,-3.8141,-3.8505,-3.8775,-3.8865,-3.8855,-3.875,-3.8707,-3.8707,-3.8707,-3.8707,-3.8707,-3.8707,-3.8902,-3.9154,-3.9282,-3.9223,-3.9208,-3.9529,-3.9576,-3.9599,-3.9797,-3.9924,-4.0082,-4.025,-4.0267,-4.0339,-4.0473,-4.0489,-4.0489,-4.0489,-4.0489,-4.0489,-4.0489,-4.0489,-4.0489,-4.0489,-4.0489,-4.0489,-4.0489,-4.0489,-4.0489,-4.0489,-4.0489,-4.0489,-4.0489,-4.0489,-4.0489,-4.0489,-4.0489,-4.0489,-4.0489,-4.0489,-4.0489,-4.0489,-4.0489,-4.0489,-2.6691,-2.6987,-2.7378,-2.7678,0.0,-2.8956,-2.974,-3.0638,-3.1492,-3.2166,-3.3109,-3.3807,-3.3807,-3.3807,-3.3807,-3.3807,-3.3807,-3.3807,-3.3807,-3.3807,-3.4027,-3.4669,-3.5661,-3.6541,-3.7147,-3.812,-3.8707,-3.8707,-3.9189,-3.9529,-3.9599,-4.012,-4.0441,-4.0489,-4.0489,-4.0489,-4.0489,-4.0489,-4.0489,-4.0489,-4.0489,-4.0489,-4.0489,-4.0489,-4.0473,-4.037,-3.9985,-3.9395,-3.8629,-3.8188,-3.7323,-3.6296,-3.6296,-3.6167,-3.6083,-3.6909,-3.7331,-3.7569,-3.8212,-3.8542,-3.8707,-3.8707,-3.8707,-3.8707,-3.8707,-3.8707,-3.8707,-3.8707,-3.8707,-3.875,-3.8961,-3.8855,-3.8822,-3.9294,-3.9231,-3.916,-3.9432,-3.9534,-3.9668,-3.9922,-4.0061,-4.0158,-4.0372,-4.0457,-4.0489,-4.0489,-4.0489,-4.0489,-4.0489,-4.0489,-4.0489,-4.0489,-4.0489,-4.0489,-4.0489,-4.0489,-4.0489,-4.0489,-4.0489,-4.0489,-4.0489,-4.0489,-4.0489,-4.0489,-4.0489,-4.0489,-4.0489,-4.0489,-4.0489,-4.0489,-4.0489,-4.0489,-2.6691,-2.6987,-2.7303,-2.7334,-2.7648,-2.8165,-2.8912,-3.0035,-3.1039,-3.1407,-3.2724,-3.3807,-3.3807,-3.3807,-3.3807,-3.3807,-3.3807,-3.3807,-3.3807,-3.3807,-3.3825,-3.388,-3.5312,-3.6321,-3.6376,-3.779,-3.8707,-3.8707,-3.8961,-3.9264,-3.9576,-3.9943,-4.0232,-4.0489,-4.0489,-4.0489,-4.0489,-4.0489,-4.0489,-4.0489,-4.0489,-4.0489,-4.0489,-4.0489,-4.0356,-4.0082,-3.9318,-3.8603,-3.7891,-3.7144,-3.6152,-3.5119,-3.5119,-3.511,-3.5192,-3.6064,-3.6853,-3.7526,-3.7551,-3.8065,-3.8707,-3.8707,-3.8707,-3.8707,-3.8707,-3.8707,-3.8707,-3.8707,-3.8707,-3.8707,-3.8719,-3.8719,-3.8707,-3.875,-3.8952,-3.9125,-3.9125,-3.9364,-3.9599,-3.9622,-3.988,-4.0101,-4.012,-4.0339,-4.0489,-4.0489,-4.0489,-4.0489,-4.0489,-4.0489,-4.0489,-4.0489,-4.0489,-4.0489,-4.0489,-4.0489,-4.0489,-4.0489,-4.0489,-4.0489,-4.0489,-4.0489,-4.0489,-4.0489,-4.0489,-4.0489,-4.0489,-4.0489,-4.0489,-4.0489,-4.0489,-4.0489,-2.6691,-2.6808,-2.7004,-2.7241,-2.7241,0.0,0.0,-2.9233,-3.0261,-3.0965,-3.2153,-3.322,-3.3715,-3.3807,-3.3807,-3.3807,-3.3807,-3.3807,-3.3807,-3.3807,-3.3807,-3.3807,-3.4816,-3.5716,-3.6248,-3.7294,-3.8157,-3.867,-3.8961,-3.9178,-3.9289,-3.9599,-3.9943,-4.0232,-4.025,-4.0339,-4.0489,-4.0489,-4.0489,-4.0489,-4.0489,-4.0489,-4.0469,-3.9819,-3.9466,-3.9299,-3.8064,-3.7094,-3.6367,-3.5832,-3.51,-3.4266,-3.4266,-3.4266,-3.4357,-3.5202,-3.6028,-3.6817,-3.7342,-3.8028,-3.8707,-3.8707,-3.8707,-3.8707,-3.8707,-3.8707,-3.8707,-3.8707,-3.8707,-3.8707,-3.8707,-3.8707,-3.8707,-3.8707,-3.8792,-3.8855,-3.8855,-3.8942,-3.91,-3.9257,-3.9389,-3.9622,-4.0022,-4.0177,-4.0321,-4.0473,-4.0489,-4.0489,-4.0489,-4.0489,-4.0489,-4.0489,-4.0489,-4.0489,-4.0489,-4.0489,-4.0489,-4.0489,-4.0489,-4.0489,-4.0489,-4.0489,-4.0489,-4.0489,-4.0489,-4.0489,-4.0489,-4.0489,-4.0489,-4.0489,-4.0489,-4.0489,-2.6691,-2.6691,-2.6758,-2.7019,0.0,0.0,-2.7396,-2.8435,-2.949,-3.0305,-3.1609,-3.2852,-3.3642,-3.3807,-3.3807,-3.3807,-3.3807,-3.3807,-3.3807,-3.3807,-3.3807,-3.3807,-3.4523,-3.532,-3.6211,-3.7019,-3.7826,-3.8634,-3.8884,-3.9008,-3.9099,-3.9314,-3.9599,-3.9922,-4.0042,-4.0177,-4.0372,-4.0372,-4.0372,-4.0372,-4.0017,-4.0017,-4.0353,-3.9223,-3.8668,-3.849,-3.6996,-3.5944,-3.5298,-3.4833,-3.4302,-3.3807,-3.3807,-3.3807,-3.3862,-3.4431,-3.5165,-3.6009,-3.6817,-3.7643,-3.8358,-3.8615,-3.8707,-3.8707,-3.8707,-3.8707,-3.8707,-3.8707,-3.8707,-3.8707,-3.8707,-3.8707,-3.8707,-3.8707,-3.8707,-3.8634,-3.8377,-3.8322,-3.8302,-3.8229,-3.8282,-3.849,-3.8956,-3.9311,-3.9662,-3.9953,-4.02,-4.0406,-4.0489,-4.0489,-4.0489,-4.0489,-4.0489,-4.0489,-4.0489,-4.0489,-4.0489,-4.0489,-4.0489,-4.0489,-4.0489,-4.0489,-4.0489,-4.0489,-4.0489,-4.0489,-4.0489,-4.0489,-4.0489,-4.0489,-4.0489,-4.0489,-2.6691,-2.6691,-2.6691,-2.6691,0.0,0.0,-2.6691,-2.7635,-2.8697,-2.944,-3.119,-3.2852,-3.3642,-3.3788,-3.3807,-3.3807,-3.3807,-3.3807,-3.3807,-3.3807,-3.3807,-3.3807,-3.4504,-3.5349,-3.6193,-3.7,-3.7808,-3.8634,-3.8707,-3.8833,-3.9072,-3.9099,-3.9238,-3.9599,-3.9922,-4.0101,-4.0101,-4.0101,-4.0081,-4.0081,-3.8923,-3.8982,-4.0043,-3.8904,-3.8174,-3.7802,-3.6186,-3.5291,-3.4917,-3.4137,-3.3807,-3.3807,-3.3807,-3.3807,-3.3807,-3.3807,-3.4321,-3.5119,-3.5991,-3.6817,-3.7606,-3.8432,-3.8689,-3.8707,-3.8707,-3.8707,-3.8707,-3.8707,-3.8689,-3.8689,-3.8689,-3.8689,-3.8689,-3.8689,-3.8689,-3.8469,-3.7643,-3.7477,-3.7239,-3.645,-3.6498,-3.6702,-3.6702,-3.7643,-3.8504,-3.8823,-3.9567,-4.0195,-4.0457,-4.0489,-4.0489,-4.0489,-4.0489,-4.0489,-4.0489,-4.0489,-4.0489,-4.0489,-4.0489,-4.0489,-4.0489,-4.0489,-4.0489,-4.0489,-4.0489,-4.0489,-4.0489,-4.0489,-4.0489,-4.0489,-4.0489,-4.0489,-2.6691,-2.6691,-2.6691,-2.6691,-2.6691,-2.6691,-2.6691,-2.7208,-2.8019,-2.9314,-3.1003,-3.2384,-3.2873,-3.3421,-3.3807,-3.3807,-3.3807,-3.3807,-3.3807,-3.3807,-3.3807,-3.3807,-3.4009,-3.4486,-3.533,-3.6156,-3.6982,-3.779,-3.8377,-3.875,-3.8815,-3.8833,-3.8952,-3.9238,-3.9339,-3.9529,-3.9754,-3.9186,-3.8904,-3.8904,-3.7742,-3.7803,-3.8845,-3.7145,-3.632,-3.6143,-3.4851,-3.4244,-3.4137,-3.3899,-3.3807,-3.3807,-3.3807,-3.3807,-3.3807,-3.3807,-3.4321,-3.5027,-3.5312,-3.6303,-3.7533,-3.7771,-3.823,-3.8707,-3.8707,-3.8707,-3.8707,-3.8707,-3.8285,-3.7845,-3.7845,-3.7441,-3.7147,-3.7716,-3.7422,-3.6945,-3.6707,-3.6652,-3.6578,-3.634,-3.6352,-3.6463,-3.667,-3.6982,-3.7324,-3.7654,-3.8395,-3.9216,-4.01,-4.0213,-4.0304,-4.0473,-4.0489,-4.0489,-4.0489,-4.0489,-4.0489,-4.0489,-4.0489,-4.0489,-4.0489,-4.0489,-4.0489,-4.0489,-4.0489,-4.0489,-4.0489,-4.0489,-4.0489,-4.0489,-4.0489,-4.0489,-2.6691,-2.6691,-2.6691,-2.6691,-2.6691,-2.6758,-2.6906,-2.7241,-2.7947,-2.9305,-3.0758,-3.1974,-3.2488,-3.3256,-3.3807,-3.3807,-3.3807,-3.3807,-3.3807,-3.3807,-3.3807,-3.3807,-3.3807,-3.4119,-3.4917,-3.5495,-3.6138,-3.6945,-3.7459,-3.7753,-3.7753,-3.7753,-3.7834,-3.797,-3.8096,-3.8233,-3.8456,-3.7967,-3.7723,-3.7704,-3.6559,-3.6378,-3.7007,-3.5838,-3.5291,-3.5254,-3.4244,-3.3807,-3.3807,-3.3807,-3.3807,-3.3807,-3.3807,-3.3807,-3.3807,-3.3807,-3.4119,-3.4578,-3.488,-3.5679,-3.656,-3.6909,-3.7349,-3.7753,-3.7753,-3.7753,-3.7753,-3.7753,-3.7404,-3.7,-3.7,-3.6413,-3.5991,-3.6817,-3.6652,-3.6211,-3.5862,-3.5789,-3.5697,-3.5367,-3.5312,-3.5358,-3.5518,-3.5829,-3.6161,-3.6483,-3.7574,-3.865,-3.9351,-3.9692,-4.0003,-4.0321,-4.0339,-4.0372,-4.0489,-4.0489,-4.0489,-4.0489,-4.0489,-4.0489,-4.0489,-4.0489,-4.0489,-4.0489,-4.0489,-4.0489,-4.0489,-4.0489,-4.0489,-4.0489,-4.0489,-4.0489,-2.6691,-2.6691,-2.6691,-2.6691,-2.6725,-2.6873,-2.7286,-2.7678,-2.8243,-2.9269,-3.0418,-3.1488,-3.2357,-3.3146,-3.3715,-3.3788,-3.3807,-3.3807,-3.3807,-3.3807,-3.3807,-3.3807,-3.3807,-3.41,-3.4807,-3.4954,-3.5349,-3.6119,-3.6266,-3.6303,-3.6303,-3.6303,-3.6303,-3.6303,-3.6525,-3.6652,-3.6652,-3.6577,-3.6559,-3.654,-3.5422,-3.488,-3.488,-3.488,-3.488,-3.4844,-3.4119,-3.3807,-3.3807,-3.3807,-3.3807,-3.3807,-3.3807,-3.3807,-3.3807,-3.3807,-3.3807,-3.3899,-3.4651,-3.4935,-3.5119,-3.5917,-3.6229,-3.6303,-3.6303,-3.6303,-3.6303,-3.6303,-3.6229,-3.6174,-3.6174,-3.555,-3.5082,-3.5881,-3.6064,-3.5862,-3.5045,-3.488,-3.4688,-3.3935,-3.3807,-3.3807,-3.3807,-3.4412,-3.5018,-3.5399,-3.6958,-3.8139,-3.8237,-3.8954,-3.9554,-3.9908,-3.9967,-4.008,-4.0307,-4.0296,-4.0258,-4.0258,-4.0335,-4.0392,-4.0392,-4.045,-4.0489,-4.0489,-4.0489,-4.0489,-4.0489,-4.0489,-4.0489,-4.0489,-4.0412,-4.0373,-2.6691,-2.6691,-2.6691,-2.6691,-2.6939,-2.7348,-2.8012,-2.8219,-2.8352,-2.8611,-2.9383,-3.0329,-3.1444,-3.232,-3.3073,-3.3697,-3.3807,-3.3807,-3.3807,-3.3807,-3.3807,-3.3807,-3.3807,-3.3862,-3.4045,-3.4623,-3.5064,-3.5275,-3.5917,-3.6303,-3.6303,-3.6303,-3.6303,-3.6303,-3.6352,-3.6408,-3.6408,-3.5699,-3.5367,-3.5367,-3.4476,-3.4064,-3.4064,-3.4064,-3.4064,-3.4045,-3.388,-3.3807,-3.3807,-3.3807,-3.3807,-3.3807,-3.3807,-3.3807,-3.3807,-3.3807,-3.3807,-3.3825,-3.4009,-3.4486,-3.5027,-3.521,-3.5752,-3.6303,-3.6303,-3.6303,-3.6303,-3.6303,-3.5807,-3.5265,-3.5265,-3.4688,-3.4119,-3.4284,-3.4339,-3.4284,-3.41,-3.4064,-3.4009,-3.3825,-3.3807,-3.3807,-3.3807,-3.3935,-3.4311,-3.4999,-3.5467,-3.6051,-3.6945,-3.7773,-3.8383,-3.8745,-3.8954,-3.909,-3.9146,-3.878,-3.8546,-3.8546,-3.9181,-3.9546,-3.9546,-4.0162,-4.0489,-4.0489,-4.0489,-4.0489,-4.0489,-4.0489,-4.0489,-4.0469,-3.9835,-3.9448,-2.6691,-2.6691,-2.6691,-2.6691,-2.6987,-2.7439,-2.8047,-2.829,-2.8446,-2.8658,-2.9344,-3.0195,-3.1212,-3.2063,-3.2871,-3.3678,-3.3807,-3.3807,-3.3807,-3.3807,-3.3807,-3.3807,-3.3807,-3.3807,-3.3807,-3.4192,-3.4431,-3.4431,-3.4853,-3.5092,-3.5092,-3.5092,-3.5092,-3.5092,-3.5092,-3.5092,-3.5092,-3.4651,-3.4431,-3.4431,-3.4009,-3.3807,-3.3807,-3.3807,-3.3807,-3.3807,-3.3807,-3.3807,-3.3807,-3.3807,-3.3807,-3.3807,-3.3807,-3.3807,-3.3807,-3.3807,-3.3807,-3.3807,-3.3807,-3.4082,-3.4431,-3.4431,-3.4743,-3.5092,-3.5092,-3.5092,-3.5092,-3.5092,-3.478,-3.4431,-3.4431,-3.4119,-3.3807,-3.3807,-3.3807,-3.3807,-3.3807,-3.3807,-3.3807,-3.3807,-3.3807,-3.3807,-3.3807,-3.3807,-3.3935,-3.4376,-3.4734,-3.5202,-3.5824,-3.6628,-3.7243,-3.7539,-3.7702,-3.7898,-3.8194,-3.7868,-3.7672,-3.7811,-3.811,-3.8341,-3.8482,-3.876,-3.9425,-4.0469,-4.0489,-4.0489,-4.0489,-4.0489,-4.0246,-3.9725,-3.9303,-3.8742,-2.6691,-2.6691,-2.6725,-2.6791,-2.7051,-2.7426,-2.7811,-2.8156,-2.8496,-2.8839,-2.9483,-3.0246,-3.1035,-3.1861,-3.2669,-3.3458,-3.3715,-3.3807,-3.3807,-3.3807,-3.3807,-3.3807,-3.3807,-3.3807,-3.3807,-3.3807,-3.3807,-3.3807,-3.3807,-3.3807,-3.3807,-3.3807,-3.3807,-3.3807,-3.3807,-3.3807,-3.3807,-3.3807,-3.3807,-3.3807,-3.3807,-3.3807,-3.3807,-3.3807,-3.3807,-3.3807,-3.3807,-3.3807,-3.3807,-3.3807,-3.3807,-3.3807,-3.3807,-3.3807,-3.3807,-3.3807,-3.3807,-3.3807,-3.3807,-3.3807,-3.3807,-3.3807,-3.3807,-3.3807,-3.3807,-3.3807,-3.3807,-3.3807,-3.3807,-3.3807,-3.3807,-3.3807,-3.3807,-3.3807,-3.3807,-3.3807,-3.3807,-3.3807,-3.3807,-3.3807,-3.3807,-3.3807,-3.3807,-3.3807,-3.3807,-3.3807,-3.4376,-3.477,-3.477,-3.555,-3.6141,-3.6389,-3.6447,-3.6696,-3.7205,-3.6953,-3.6859,-3.709,-3.7011,-3.7067,-3.7299,-3.7239,-3.806,-3.9893,-3.9983,-3.9999,-3.9999,-3.9999,-3.9517,-3.8594,-3.8442,-3.785,-2.6691,-2.6691,-2.6774,-2.7147,-2.7272,-2.7426,-2.7811,-2.8156,-2.842,-2.8471,-2.8822,-2.942,-3.021,-3.1017,-3.1825,-3.2632,-3.3348,-3.3807,-3.3807,-3.3807,-3.3807,-3.3807,-3.3807,-3.3807,-3.3807,-3.3807,-3.3807,-3.3807,-3.3807,-3.3807,-3.3807,-3.3807,-3.3807,-3.3807,-3.3807,-3.3807,-3.3807,-3.3807,-3.3807,-3.3807,-3.3807,-3.3807,-3.3807,-3.3807,-3.3807,-3.3807,-3.3807,-3.3807,-3.3807,-3.3807,-3.3807,-3.3807,-3.3807,-3.3807,-3.3807,-3.3807,-3.3807,-3.3807,-3.3807,-3.3807,-3.3807,-3.3807,-3.3807,-3.3807,-3.3807,-3.3807,-3.3807,-3.3807,-3.3807,-3.3807,-3.3807,-3.3807,-3.3807,-3.3807,-3.3807,-3.3807,-3.3807,-3.3807,-3.3807,-3.3807,-3.3807,-3.3807,-3.3807,-3.3807,-3.3807,-3.3807,-3.3899,-3.3972,-3.3972,-3.4688,-3.5183,-3.522,-3.5495,-3.5701,-3.5754,-3.5324,-3.5054,-3.5075,-3.5698,-3.6075,-3.6135,-3.6814,-3.7348,-3.7618,-3.787,-3.798,-3.798,-3.798,-3.7794,-3.7406,-3.6647,-3.6083,-2.6691,-2.6691,-2.6758,-2.6939,-2.6954,-2.7051,-2.747,-2.7678,-2.7918,-2.8298,-2.854,-2.8986,-3.002,-3.0485,-3.1146,-3.2412,-3.2908,-3.3293,-3.3733,-3.3807,-3.3807,-3.3807,-3.3807,-3.3807,-3.3807,-3.3807,-3.3807,-3.3807,-3.3807,-3.3807,-3.3807,-3.3807,-3.3807,-3.3807,-3.3807,-3.3807,-3.3807,-3.3807,-3.3807,-3.3807,-3.3807,-3.3807,-3.3807,-3.3807,-3.3807,-3.3807,-3.3807,-3.3807,-3.3807,-3.3807,-3.3807,-3.3807,-3.3807,-3.3807,-3.3807,-3.3807,-3.3807,-3.3807,-3.3807,-3.3634,-3.3494,-3.3734,-3.3476,-3.3148,-3.3634,-3.3634,-3.3522,-3.3734,-3.3652,-3.3522,-3.3734,-3.3634,-3.3522,-3.3734,-3.3807,-3.3807,-3.3807,-3.3807,-3.3807,-3.3807,-3.3807,-3.3807,-3.3807,-3.3807,-3.3807,-3.3807,-3.3807,-3.3807,-3.3807,-3.4119,-3.4339,-3.4339,-3.4455,-3.4617,-3.4753,-3.4413,-3.426,-3.4401,-3.4601,-3.4787,-3.4929,-3.5165,-3.5441,-3.579,-3.6841,-3.7375,-3.7375,-3.7375,-3.7007,-3.6254,-3.5856,-3.5259,-2.6691,-2.6691,-2.6691,-2.6691,-2.6691,-2.6791,-2.7083,-2.7241,-2.747,-2.8002,-2.8272,-2.8696,-2.9582,-2.9996,-3.0595,-3.1806,-3.2339,-3.2816,-3.3421,-3.3678,-3.3807,-3.3807,-3.3807,-3.3807,-3.3807,-3.3807,-3.3807,-3.3807,-3.3807,-3.3807,-3.3807,-3.3807,-3.3807,-3.3807,-3.3807,-3.3807,-3.3807,-3.3807,-3.3807,-3.3807,-3.3807,-3.3807,-3.3807,-3.3807,-3.3807,-3.3807,-3.3807,-3.3807,-3.3807,-3.3807,-3.3807,-3.3807,-3.3807,-3.3807,-3.3807,-3.368,-3.3652,-3.3634,-3.3504,-3.3255,-3.3075,-3.3372,-3.3027,-3.2616,-3.3284,-3.3255,-3.3075,-3.339,-3.3332,-3.3273,-3.3578,-3.3494,-3.3437,-3.3734,-3.3807,-3.3807,-3.3807,-3.3807,-3.3807,-3.3807,-3.3807,-3.3807,-3.3807,-3.3807,-3.3807,-3.3807,-3.3807,-3.3807,-3.3807,-3.3807,-3.3807,-3.3807,-3.3807,-3.3876,-3.4074,-3.3928,-3.3876,-3.4093,-3.3902,-3.3876,-3.4074,-3.3902,-3.4005,-3.4442,-3.5709,-3.6355,-3.6421,-3.6421,-3.5964,-3.5076,-3.5076,-3.4611,-2.6691,-2.6691,-2.6691,-2.6691,-2.6691,-2.6691,-2.6725,-2.7036,-2.7303,-2.7348,-2.7901,-2.842,-2.85,-2.9423,-3.0228,-3.032,-3.1604,-3.2614,-3.2669,-3.333,-3.3807,-3.3807,-3.3807,-3.3807,-3.3807,-3.3807,-3.3807,-3.3807,-3.3807,-3.3807,-3.3807,-3.3807,-3.3807,-3.3807,-3.3807,-3.3807,-3.3807,-3.3807,-3.3807,-3.3807,-3.3807,-3.3807,-3.3807,-3.3807,-3.3807,-3.3807,-3.3807,-3.3807,-3.3807,-3.3807,-3.3807,-3.3807,-3.3807,-3.3807,-3.3734,-3.3361,-3.3243,-3.3184,-3.2713,-3.255,-3.255,-3.255,-3.255,-3.2517,-3.255,-3.255,-3.255,-3.255,-3.2872,-3.3214,-3.3214,-3.3494,-3.3762,-3.3807,-3.3807,-3.3807,-3.3807,-3.3807,-3.3807,-3.3807,-3.3807,-3.3807,-3.3807,-3.3807,-3.3807,-3.3807,-3.3807,-3.3807,-3.3807,-3.3807,-3.3807,-3.3807,-3.3807,-3.3807,-3.3815,-3.3807,-3.3807,-3.3815,-3.3807,-3.3807,-3.3815,-3.3807,-3.3815,-3.3842,-3.3915,-3.409,-3.4354,-3.4354,-3.4185,-3.3889,-3.3889,-3.387,-2.6691,-2.6691,-2.6691,-2.6691,-2.6691,-2.6691,-2.6691,-2.6808,-2.7004,-2.7241,-2.7736,-2.8156,-2.8368,-2.8968,-2.9604,-3.0118,-3.1127,-3.2008,-3.254,-3.3293,-3.3807,-3.3807,-3.3807,-3.3807,-3.3807,-3.3807,-3.3807,-3.3807,-3.3807,-3.3807,-3.3807,-3.3807,-3.3807,-3.3807,-3.3807,-3.3807,-3.3807,-3.3807,-3.3807,-3.3807,-3.3807,-3.3807,-3.3807,-3.3807,-3.3807,-3.3807,-3.3807,-3.3807,-3.3807,-3.3807,-3.3807,-3.3807,-3.3807,-3.3634,-3.3408,-3.3243,-3.3014,-3.2713,-3.255,-3.2298,-3.2092,-3.2417,-3.2127,-3.175,-3.2316,-3.2282,-3.2092,-3.2417,-3.2435,-3.2502,-3.3045,-3.3075,-3.3105,-3.368,-3.3807,-3.3807,-3.3807,-3.3807,-3.3807,-3.3807,-3.3807,-3.3807,-3.3807,-3.3807,-3.3807,-3.3807,-3.3807,-3.3807,-3.3807,-3.3807,-3.3807,-3.3807,-3.3807,-3.3807,-3.3807,-3.3807,-3.3807,-3.3807,-3.3807,-3.3807,-3.3807,-3.3807,-3.3807,-3.3807,-3.3807,-3.3842,-3.3935,-3.3935,-3.3902,-3.3807,-3.3807,-3.3807,-2.6691,-2.6691,-2.6691,-2.6691,-2.6691,-2.6691,-2.6691,-2.6691,-2.6808,-2.721,-2.7619,-2.7992,-2.8342,-2.8725,-2.9159,-2.9714,-3.0467,-3.1274,-3.2082,-3.2889,-3.3495,-3.377,-3.3807,-3.3807,-3.3807,-3.3807,-3.3807,-3.3807,-3.3807,-3.3807,-3.3807,-3.3807,-3.3807,-3.3807,-3.3807,-3.3807,-3.3807,-3.3807,-3.3807,-3.3807,-3.3807,-3.3807,-3.3807,-3.3807,-3.3807,-3.3807,-3.3807,-3.3807,-3.3807,-3.3807,-3.3807,-3.3807,-3.3807,-3.355,-3.3184,-3.3014,-3.2681,-3.2248,-3.2127,-3.1842,-3.164,-3.195,-3.1657,-3.1291,-3.1896,-3.1842,-3.166,-3.1986,-3.1967,-3.2003,-3.2583,-3.2745,-3.2903,-3.3634,-3.3807,-3.3807,-3.3807,-3.3807,-3.3807,-3.3807,-3.3807,-3.3807,-3.3807,-3.3807,-3.3807,-3.3807,-3.3807,-3.3807,-3.3807,-3.3807,-3.3807,-3.3807,-3.3807,-3.3807,-3.3807,-3.3807,-3.3807,-3.3807,-3.3807,-3.3807,-3.3807,-3.3807,-3.3807,-3.3807,-3.3807,-3.3807,-3.3807,-3.3807,-3.3807,-3.3807,-3.3807,-3.3807,0.0,0.0,0.0,-2.6725,-2.6725,-2.6725,-2.6691,-2.6691,-2.6808,-2.721,-2.7589,-2.7992,-2.8342,-2.8725,-2.8994,-2.8994,-2.9696,-3.0467,-3.1237,-3.2082,-3.2908,-3.3678,-3.3788,-3.3807,-3.3807,-3.3807,-3.3807,-3.3807,-3.3807,-3.3807,-3.3807,-3.3807,-3.3807,-3.3807,-3.3807,-3.3807,-3.3807,-3.3807,-3.3807,-3.3807,-3.3807,-3.3807,-3.3807,-3.3807,-3.3807,-3.3807,-3.3807,-3.3807,-3.3807,-3.3807,-3.3807,-3.3807,-3.3807,-3.3522,-3.3105,-3.2648,-3.2161,-3.1733,-3.1351,-3.119,-3.119,-3.119,-3.119,-3.119,-3.119,-3.119,-3.119,-3.119,-3.147,-3.1789,-3.1789,-3.25,-3.3302,-3.368,-3.3788,-3.3807,-3.3807,-3.3807,-3.3807,-3.3807,-3.3807,-3.3807,-3.3807,-3.3807,-3.3807,-3.3807,-3.3807,-3.3807,-3.3807,-3.3807,-3.3807,-3.3807,-3.3807,-3.3807,-3.3807,-3.3807,-3.3807,-3.3807,-3.3807,-3.3807,-3.3807,-3.3807,-3.3807,-3.3807,-3.3807,-3.3807,-3.3807,-3.3807,-3.3807,-3.3807,-3.3807,-3.3807,-2.8125,0.0,0.0,0.0,0.0,0.0,-2.6826,-2.6691,-2.6725,-2.6841,-2.7426,-2.7926,-2.802,-2.8558,-2.8994,-2.8994,-2.9696,-3.0283,-3.0503,-3.1733,-3.2687,-3.2926,-3.3458,-3.3807,-3.3807,-3.3807,-3.3807,-3.3807,-3.3807,-3.3807,-3.3807,-3.3807,-3.3807,-3.3807,-3.3807,-3.3807,-3.3807,-3.3807,-3.3807,-3.3807,-3.3807,-3.3807,-3.3807,-3.3807,-3.3807,-3.3807,-3.3807,-3.3807,-3.3807,-3.3807,-3.3807,-3.3762,-3.3494,-3.3075,-3.2648,-3.2161,-3.1733,-3.1351,-3.123,-3.119,-3.119,-3.119,-3.119,-3.119,-3.119,-3.119,-3.119,-3.119,-3.1291,-3.1449,-3.1716,-3.25,-3.3243,-3.3332,-3.3578,-3.3807,-3.3807,-3.3807,-3.3807,-3.3807,-3.3807,-3.3807,-3.3807,-3.3807,-3.3807,-3.3807,-3.3807,-3.3807,-3.3807,-3.3807,-3.3807,-3.3807,-3.3807,-3.3807,-3.3807,-3.3807,-3.3807,-3.3807,-3.3807,-3.3807,-3.3807,-3.3807,-3.3807,-3.3807,-3.3807,-3.3807,-3.3807,-3.3807,-3.3807,-3.3807,-3.3807,-3.3807,-2.8277,-2.8607,-2.8582,-2.8328,0.0,0.0,-2.7334,-2.7165,-2.7097,-2.6975,-2.7317,-2.7736,-2.8047,-2.8464,-2.8797,-2.8975,-2.9402,-2.9824,-3.0155,-3.1017,-3.1861,-3.2522,-3.3018,-3.344,-3.377,-3.3807,-3.3807,-3.3807,-3.3807,-3.3807,-3.3807,-3.3807,-3.3807,-3.3807,-3.3807,-3.3807,-3.3807,-3.3807,-3.3807,-3.3807,-3.3807,-3.3807,-3.3807,-3.3807,-3.3807,-3.3807,-3.3807,-3.3807,-3.3807,-3.3807,-3.3807,-3.3762,-3.3361,-3.2903,-3.2451,-3.1951,-3.1545,-3.119,-3.119,-3.119,-3.119,-3.119,-3.119,-3.119,-3.119,-3.119,-3.119,-3.119,-3.119,-3.1291,-3.1696,-3.2196,-3.2695,-3.3105,-3.3361,-3.3597,-3.3762,-3.3807,-3.3807,-3.3807,-3.3807,-3.3807,-3.3807,-3.3807,-3.3807,-3.3807,-3.3807,-3.3807,-3.3807,-3.3807,-3.3807,-3.3807,-3.3807,-3.3807,-3.3807,-3.3807,-3.3807,-3.3807,-3.3807,-3.3807,-3.3807,-3.3807,-3.3807,-3.3807,-3.3807,-3.3807,-3.3807,-3.3807,-3.3807,-3.3807,-3.3807,-3.3807,-2.805,-2.8421,-2.8539,-2.8999,-2.911,0.0,-2.8129,-2.784,-2.7725,-2.7405,-2.7324,-2.7482,-2.8166,-2.8298,-2.8471,-2.8863,-2.8929,-2.9208,-2.9971,-3.0136,-3.0742,-3.2173,-3.2412,-3.2779,-3.3587,-3.3678,-3.3697,-3.3788,-3.3807,-3.3752,-3.3678,-3.3678,-3.3623,-3.3532,-3.3532,-3.3532,-3.3532,-3.3623,-3.3678,-3.3678,-3.3752,-3.3807,-3.3807,-3.3807,-3.3807,-3.3807,-3.3807,-3.3807,-3.3807,-3.3734,-3.3762,-3.3762,-3.3302,-3.289,-3.2451,-3.1933,-3.1507,-3.119,-3.119,-3.119,-3.119,-3.119,-3.119,-3.119,-3.119,-3.119,-3.119,-3.119,-3.119,-3.1291,-3.1623,-3.1752,-3.2022,-3.2903,-3.3154,-3.3302,-3.3707,-3.3807,-3.3807,-3.3807,-3.3807,-3.3807,-3.3807,-3.3807,-3.3807,-3.3807,-3.3807,-3.3807,-3.3807,-3.3807,-3.3807,-3.3807,-3.3807,-3.3807,-3.3807,-3.3807,-3.3807,-3.3807,-3.3807,-3.3807,-3.3807,-3.3807,-3.3807,-3.3807,-3.3807,-3.3807,-3.3807,-3.3807,-3.3807,-3.3807,-3.3807,-3.3807,-2.9955,-3.0594,-3.0482,-2.9985,-2.9888,0.0,-2.8924,-2.8264,-2.7774,-2.7725,-2.748,-2.7348,-2.75,-2.7794,-2.8102,-2.8446,-2.8515,-2.8669,-2.9172,-2.9787,-3.032,-3.0632,-3.1237,-3.1953,-3.2761,-3.2834,-3.3109,-3.3752,-3.3807,-3.3532,-3.2871,-3.2834,-3.254,-3.188,-3.1861,-3.1861,-3.1861,-3.2504,-3.2834,-3.2852,-3.3495,-3.3807,-3.3807,-3.3807,-3.3807,-3.3807,-3.3807,-3.3807,-3.3762,-3.3465,-3.3522,-3.3734,-3.2934,-3.2583,-3.2417,-3.162,-3.1252,-3.119,-3.119,-3.119,-3.119,-3.119,-3.119,-3.119,-3.119,-3.119,-3.119,-3.119,-3.119,-3.123,-3.1291,-3.1582,-3.1951,-3.2517,-3.2921,-3.3302,-3.3707,-3.3807,-3.3807,-3.3807,-3.3807,-3.3807,-3.3807,-3.3807,-3.3807,-3.3807,-3.3807,-3.3807,-3.3807,-3.3807,-3.3807,-3.3807,-3.3807,-3.3807,-3.3807,-3.3807,-3.3807,-3.3807,-3.3807,-3.3807,-3.3807,-3.3807,-3.3807,-3.3807,-3.3807,-3.3807,-3.3807,-3.3807,-3.3807,-3.3807,-3.3807,-3.3807,-2.9242,-3.0081,-3.0311,-3.0209,-3.0437,0.0,0.0,-2.9245,-2.8856,-2.8467,-2.7947,-2.7617,-2.7811,-2.7701,-2.7707,-2.8102,-2.829,-2.8471,-2.8658,-2.921,-2.9751,-3.0155,-3.0558,-3.1109,-3.1916,-3.2008,-3.2173,-3.2559,-3.2596,-3.243,-3.2027,-3.2008,-3.1825,-3.1403,-3.1384,-3.1384,-3.1384,-3.1806,-3.221,-3.2614,-3.3018,-3.3421,-3.3807,-3.3807,-3.3807,-3.3807,-3.3807,-3.368,-3.3494,-3.3273,-3.3166,-3.3087,-3.24,-3.2127,-3.2074,-3.1428,-3.119,-3.119,-3.119,-3.119,-3.119,-3.119,-3.119,-3.119,-3.119,-3.119,-3.119,-3.119,-3.119,-3.119,-3.119,-3.1351,-3.1603,-3.2039,-3.2517,-3.2983,-3.339,-3.3652,-3.3807,-3.3807,-3.3807,-3.3807,-3.3807,-3.3807,-3.3807,-3.3807,-3.3807,-3.3807,-3.3807,-3.3807,-3.3807,-3.3807,-3.3807,-3.3807,-3.3807,-3.3807,-3.3807,-3.3807,-3.3807,-3.3807,-3.3807,-3.3807,-3.3807,-3.3807,-3.3807,-3.3807,-3.3807,-3.3807,-3.3807,-3.3807,-3.3807,-3.3807,-2.8109,-2.9085,-2.9717,-3.0293,-3.0838,-3.1038,0.0,0.0,0.0,-2.9313,-2.8467,-2.7912,-2.8217,-2.7696,-2.7369,-2.7918,-2.8109,-2.8273,-2.8488,-2.8801,-2.9314,-3.0094,-3.0063,-3.0356,-3.1311,-3.1384,-3.1384,-3.1384,-3.1384,-3.1329,-3.1182,-3.1164,-3.1091,-3.0944,-3.0944,-3.0944,-3.0944,-3.1091,-3.1494,-3.2155,-3.2467,-3.2944,-3.3568,-3.3733,-3.3807,-3.3807,-3.3807,-3.3578,-3.3184,-3.3105,-3.2777,-3.235,-3.1951,-3.1789,-3.1752,-3.1351,-3.119,-3.119,-3.119,-3.119,-3.119,-3.119,-3.119,-3.119,-3.119,-3.119,-3.119,-3.119,-3.119,-3.119,-3.119,-3.119,-3.1291,-3.1679,-3.2161,-3.2616,-3.3105,-3.3522,-3.3807,-3.3807,-3.3807,-3.3807,-3.3807,-3.3807,-3.3807,-3.3807,-3.3807,-3.3807,-3.3807,-3.3807,-3.3807,-3.3807,-3.3807,-3.3807,-3.3807,-3.3807,-3.3807,-3.3807,-3.3807,-3.3807,-3.3807,-3.3807,-3.3807,-3.3807,-3.3807,-3.3807,-3.3807,-3.3807,-3.3807,-3.3807,-3.3807,-3.3807,-2.8695,-2.9674,-3.0335,-3.0935,-3.1151,-3.1173,-3.1089,0.0,-3.0091,-2.9989,0.0,-2.7824,-2.7842,0.0,0.0,-2.8172,-2.783,-2.7787,-2.88,-2.8965,-2.9313,-3.01,-2.9586,-2.9732,-3.1237,-3.1384,-3.1384,-3.1384,-3.1384,-3.1091,-3.0375,-3.0338,-3.0008,-2.931,-2.925,-2.925,-2.925,-2.9989,-3.0375,-3.0485,-3.1935,-3.2669,-3.2761,-3.3476,-3.3807,-3.3807,-3.3807,-3.3578,-3.3184,-3.2745,-3.2298,-3.188,-3.1825,-3.1789,-3.1752,-3.1351,-3.119,-3.119,-3.119,-3.119,-3.119,-3.119,-3.119,-3.119,-3.119,-3.119,-3.119,-3.119,-3.119,-3.119,-3.119,-3.119,-3.1291,-3.1679,-3.2161,-3.2616,-3.3105,-3.3522,-3.3807,-3.3807,-3.3807,-3.3807,-3.3807,-3.3807,-3.3807,-3.3807,-3.3807,-3.3807,-3.3807,-3.3807,-3.3807,-3.3807,-3.3807,-3.3807,-3.3807,-3.3807,-3.3807,-3.3807,-3.3807,-3.3807,-3.3807,-3.3807,-3.3807,-3.3807,-3.3807,-3.3807,-3.3807,-3.3807,-3.3807,-3.3807,-3.3807,-3.3807,-2.7838,-2.8689,-2.9371,-3.0419,-3.0616,-3.0666,-3.1106,-3.0954,-3.0734,-3.0734,0.0,0.0,0.0,0.0,0.0,0.0,-2.7353,-2.7625,-2.8499,-2.885,-2.9205,-2.9769,-2.9984,-3.0217,-3.0662,-3.0283,-3.0008,-3.0008,-3.0008,-2.9861,-2.9531,-2.9512,-2.9342,-2.8994,-2.8994,-2.8994,-2.8994,-2.9347,-2.9751,-3.021,-3.1366,-3.2155,-3.2632,-3.344,-3.3807,-3.3807,-3.355,-3.3196,-3.2745,-3.2298,-3.1842,-3.1449,-3.1449,-3.1449,-3.1449,-3.1252,-3.119,-3.119,-3.119,-3.119,-3.119,-3.119,-3.119,-3.119,-3.119,-3.119,-3.119,-3.119,-3.119,-3.119,-3.119,-3.119,-3.1252,-3.1411,-3.177,-3.223,-3.2681,-3.3136,-3.3522,-3.3734,-3.3807,-3.3807,-3.3807,-3.3807,-3.3807,-3.3807,-3.3807,-3.3807,-3.3807,-3.3807,-3.3807,-3.3807,-3.3807,-3.3807,-3.3807,-3.3807,-3.3807,-3.3807,-3.3807,-3.3807,-3.3807,-3.3807,-3.3807,-3.3807,-3.3807,-3.3807,-3.3807,-3.3807,-3.3807,-3.3807,-3.3807,-3.3807,-2.6865,-2.7743,-2.8635,-2.9922,-3.0342,-3.0548,-3.1072,-3.119,-3.119,-3.119,-3.0176,0.0,0.0,0.0,-2.6996,-2.6996,0.0,-2.77,-2.8474,-2.8997,-2.9484,-3.0001,-3.0502,-3.0496,-2.9764,-2.9276,-2.8994,-2.8994,-2.8994,-2.8994,-2.8994,-2.8905,-2.8905,-2.8994,-2.8887,-2.8905,-2.8994,-2.8994,-2.9287,-2.9879,-3.0687,-3.1494,-3.2302,-3.3109,-3.3587,-3.378,-3.3361,-3.2952,-3.2451,-3.1986,-3.1565,-3.119,-3.119,-3.119,-3.119,-3.119,-3.119,-3.119,-3.119,-3.119,-3.119,-3.119,-3.119,-3.119,-3.119,-3.119,-3.119,-3.119,-3.119,-3.119,-3.119,-3.119,-3.119,-3.119,-3.1507,-3.188,-3.223,-3.2681,-3.3136,-3.355,-3.3652,-3.368,-3.3762,-3.3807,-3.3807,-3.3807,-3.3807,-3.3807,-3.3807,-3.3807,-3.3807,-3.3807,-3.3807,-3.3807,-3.3807,-3.3807,-3.3807,-3.3807,-3.3807,-3.3807,-3.3807,-3.3807,-3.3807,-3.3807,-3.3807,-3.3807,-3.3807,-3.3807,-3.3807,-3.3807,-3.3807,-3.3807,-2.6018,-2.7336,-2.8676,-2.9822,-3.0649,-3.1157,-3.119,-3.119,-3.119,-3.119,-3.0598,-2.9854,-2.911,-2.8332,-2.7755,-2.7755,-2.7791,0.0,0.0,-2.9604,-3.0343,-3.1132,-3.0963,-3.0179,-2.8619,-2.8791,-2.8994,-2.8994,-2.8994,-2.8994,-2.8994,-2.8633,-2.859,-2.8994,-2.8633,-2.8608,-2.8994,-2.8994,-2.8994,-2.9049,-2.9861,-3.065,-3.1458,-3.2284,-3.3073,-3.378,-3.3361,-3.2952,-3.2451,-3.1986,-3.1565,-3.119,-3.119,-3.119,-3.119,-3.119,-3.119,-3.119,-3.119,-3.119,-3.119,-3.119,-3.119,-3.119,-3.119,-3.119,-3.119,-3.119,-3.119,-3.119,-3.119,-3.119,-3.119,-3.119,-3.1507,-3.1808,-3.1825,-3.2196,-3.2648,-3.3154,-3.3214,-3.3332,-3.3734,-3.3807,-3.3807,-3.3807,-3.3807,-3.3807,-3.3807,-3.3807,-3.3807,-3.3807,-3.3807,-3.3807,-3.3807,-3.3807,-3.3807,-3.3807,-3.3807,-3.3807,-3.3807,-3.3807,-3.3807,-3.3807,-3.3807,-3.3807,-3.3807,-3.3807,-3.3807,-3.3807,-3.3807,-3.3807,-2.5555,-2.6094,-2.682,-2.8421,-2.866,-2.8703,-2.9526,-2.9719,-2.9719,-2.9719,-2.9127,-2.8518,-2.8264,-2.7588,-2.708,-2.708,-2.708,-2.752,0.0,-3.0057,-3.0561,-2.9867,-3.0156,-3.0018,-2.8959,-2.8719,-2.859,-2.859,-2.859,-2.859,-2.859,-2.8264,-2.8129,-2.8255,-2.8129,-2.8129,-2.8255,-2.8489,-2.859,-2.8608,-2.9692,-3.0613,-3.1421,-3.2228,-3.2885,-3.3361,-3.2952,-3.2466,-3.1986,-3.1582,-3.1312,-3.119,-3.119,-3.119,-3.119,-3.119,-3.119,-3.119,-3.119,-3.119,-3.119,-3.119,-3.119,-3.119,-3.119,-3.119,-3.119,-3.119,-3.119,-3.119,-3.119,-3.119,-3.119,-3.119,-3.1291,-3.1487,-3.1752,-3.1915,-3.2161,-3.2648,-3.2745,-3.2872,-3.3332,-3.339,-3.3494,-3.3762,-3.3807,-3.3807,-3.3807,-3.3807,-3.3807,-3.3807,-3.3807,-3.3807,-3.3807,-3.3807,-3.3807,-3.3807,-3.3807,-3.3807,-3.3807,-3.3807,-3.3807,-3.3807,-3.3807,-3.3807,-3.3807,-3.3807,-3.3807,-3.3807,-3.3807,-3.3807,-2.4929,-2.5284,-2.5832,-2.7414,-2.763,-2.7765,-2.8783,-2.9011,-2.9011,-2.9011,-2.8586,-2.8146,-2.784,-2.7418,-2.7012,-2.6742,-2.6911,-2.7537,0.0,-2.9803,-2.9956,-2.8721,-2.9383,-2.9576,-2.8551,-2.8304,-2.8237,-2.8237,-2.8237,-2.8237,-2.8237,-2.788,-2.7754,-2.7897,-2.7754,-2.7754,-2.7897,-2.8102,-2.8237,-2.8237,-2.9013,-2.9813,-3.0612,-3.1384,-3.2022,-3.254,-3.236,-3.2057,-3.1789,-3.1389,-3.119,-3.119,-3.119,-3.119,-3.119,-3.119,-3.119,-3.119,-3.119,-3.119,-3.119,-3.119,-3.119,-3.119,-3.119,-3.119,-3.119,-3.119,-3.119,-3.119,-3.119,-3.119,-3.119,-3.119,-3.119,-3.1252,-3.1545,-3.1603,-3.1733,-3.2161,-3.223,-3.2417,-3.2872,-3.3075,-3.3332,-3.3734,-3.3807,-3.3807,-3.3807,-3.3807,-3.3807,-3.3807,-3.3807,-3.3807,-3.3807,-3.3807,-3.3807,-3.3807,-3.3807,-3.3807,-3.3807,-3.3807,-3.3807,-3.3807,-3.3807,-3.3807,-3.3807,-3.3807,-3.3807,-3.3807,-3.3807,-3.3807]}]]